GFSNGP_con_mlcape_000.txt.gz
CAPE
0 0 0 0 0 0 0 0 0 0 0 0 0 0 0 0 2 7 0 5 52 104 161 287 383 463 669 920 1100 1051 833 612 647 500 189 8 12 2 0 2 15 5 0 0
0 0 0 0 0 0 0 0 0 0 0 0 0 0 0 0 2 3 17 24 27 62 130 186 216 281 500 741 902 988 858 726 572 218 79 0 18 71 58 171 89 23 3 0
0 0 0 0 0 0 0 0 0 0 0 0 0 0 0 0 1 26 36 36 46 23 31 26 48 164 346 577 824 957 919 839 546 155 77 11 3 0 109 204 93 6 4 4
0 0 0 0 0 0 0 0 0 0 0 0 0 0 0 0 0 0 2 33 35 23 12 2 2 90 231 446 696 884 930 907 484 278 59 0 0 0 62 1 0 2 19 43
0 0 0 0 0 0 7 9 5 1 0 0 0 0 0 0 0 0 0 29 73 84 55 11 54 197 349 513 713 841 930 880 585 354 254 127 0 0 3 2 17 47 97 120
0 0 0 0 2 18 16 17 0 0 0 0 0 0 0 0 0 0 4 33 16 29 43 16 113 329 421 620 798 867 854 832 652 395 200 45 0 0 0 14 24 43 96 95
4 0 5 5 12 17 48 0 0 0 0 7 0 0 0 0 2 8 41 104 141 197 270 248 265 408 299 508 708 787 687 662 677 536 151 9 0 0 1 18 26 56 14 0
9 37 93 0 61 74 4 0 0 0 0 0 0 0 0 0 0 0 0 0 5 5 11 80 244 511 466 500 613 617 561 475 391 419 301 20 0 0 0 0 1 1 4 0
0 1 0 0 0 0 0 0 0 0 0 0 0 0 0 0 0 0 32 81 232 229 200 185 317 601 458 529 544 503 376 293 192 55 23 0 3 0 0 0 0 8 10 7
1 0 0 0 0 0 0 0 0 0 0 0 0 0 52 142 66 1 47 77 226 349 390 510 479 469 524 467 433 367 277 73 3 0 0 0 0 0 0 0 0 0 0 49
0 0 0 0 0 0 0 0 0 0 0 0 0 0 0 0 176 279 323 288 319 393 351 539 477 506 470 397 280 250 77 28 13 0 0 0 0 0 0 0 0 10 52 17
0 0 1 0 0 0 0 0 0 0 0 0 0 0 0 0 1 408 501 454 460 494 526 533 520 547 315 194 222 101 42 11 0 0 0 0 0 0 0 0 0 0 0 0
0 0 0 0 0 0 0 0 0 0 0 0 0 0 0 0 0 0 65 424 640 529 418 420 266 192 46 9 0 3 10 0 0 0 0 0 0 0 0 0 0 0 0 0
0 0 0 0 0 0 0 0 0 0 0 0 0 0 0 0 0 0 0 0 195 510 362 147 167 216 38 0 0 0 0 0 0 0 0 0 0 0 0 0 0 0 0 0
0 0 0 0 0 0 0 0 0 0 0 0 0 0 0 0 0 0 0 0 19 404 303 165 64 1 0 0 0 0 0 0 0 0 0 0 0 0 0 0 0 0 0 0
0 0 0 0 0 0 0 0 0 0 0 0 0 0 0 0 0 0 0 0 0 24 417 48 0 0 0 0 0 0 75 55 30 5 0 0 0 2 0 0 0 0 0 0
0 0 0 0 0 0 0 0 0 0 0 0 0 0 0 0 0 0 0 0 0 26 138 82 28 0 1 3 38 14 26 12 0 0 0 0 0 0 0 0 0 0 0 0
0 0 0 0 0 0 0 0 0 0 0 0 0 0 0 0 0 0 0 0 0 6 0 0 0 0 25 13 1 0 0 0 5 51 45 13 8 5 0 3 0 0 0 0
0 0 0 0 0 0 0 0 0 0 0 0 0 0 0 0 0 0 0 0 1 12 1 0 0 0 0 0 0 0 0 0 0 0 0 0 0 0 0 1 0 0 0 0
0 0 0 0 0 0 0 0 0 0 0 0 0 0 0 0 0 0 0 0 0 0 0 0 0 0 0 1 0 0 0 0 0 0 0 0 1 2 0 0 0 0 0 1
0 0 0 0 0 0 0 0 0 0 0 0 0 0 0 0 0 0 0 10 0 0 1 11 5 0 0 0 0 0 0 0 0 0 0 0 0 0 0 0 0 2 0 0
0 0 0 0 0 0 0 0 0 0 0 0 0 0 0 0 0 0 0 0 0 0 0 0 0 0 0 0 0 0 0 0 0 0 0 0 0 0 0 0 0 0 0 0
0 0 0 0 0 0 0 0 0 0 0 0 0 0 0 0 0 0 0 0 0 0 0 0 0 0 0 0 0 0 0 0 0 0 0 0 0 0 0 0 0 0 0 0
0 0 0 0 0 0 0 0 0 3 1 2 1 0 0 0 0 0 0 0 0 4 2 12 19 7 0 0 0 0 0 0 0 0 0 0 0 0 0 0 0 0 0 0
0 0 0 0 0 0 0 0 0 2 4 2 0 0 0 0 0 0 0 0 10 26 27 15 15 22 12 0 0 0 0 0 0 0 0 0 0 0 0 0 0 0 0 0
1 0 0 0 0 0 0 0 0 0 0 0 0 0 0 0 0 0 0 0 1 14 32 25 10 2 5 6 0 0 0 0 0 0 0 0 0 0 0 0 0 0 0 0
0 0 0 0 0 0 0 0 0 0 0 0 0 0 0 0 0 0 0 0 0 0 0 0 0 0 2 1 0 0 0 0 0 0 0 0 0 0 0 0 0 0 0 0

GFSNGP_con_mlcape_003.txt.gz
CAPE
0 0 0 0 0 0 0 0 0 0 0 0 0 0 0 0 29 1 40 67 191 218 407 788 1116 1183 1228 1313 1456 1582 1675 1724 1474 1077 682 271 163 2 0 0 0 0 0 0
0 0 0 0 0 0 0 0 0 0 0 0 0 0 0 0 39 26 50 72 172 238 401 532 698 795 980 1205 1419 1575 1623 1565 1255 886 400 233 111 0 0 0 0 0 0 0
0 0 0 0 0 0 0 0 0 0 0 0 0 0 0 6 15 81 115 146 181 265 399 461 513 649 647 813 1042 1241 1321 1352 1044 643 370 241 112 2 0 0 0 0 3 44
22 0 3 0 0 0 0 0 0 0 0 0 0 0 0 1 3 86 211 292 232 150 183 183 176 284 421 700 873 1084 1215 1219 940 581 479 283 173 38 0 0 0 4 22 234
0 16 3 0 0 0 0 0 0 0 0 0 0 0 0 0 0 0 19 62 161 148 103 53 60 159 352 519 679 930 1084 1207 803 534 560 393 246 96 0 0 0 7 62 86
7 6 12 0 11 3 0 0 0 0 0 0 0 5 36 0 0 0 66 221 213 113 45 56 73 152 170 299 587 879 1232 1212 809 571 477 448 433 317 128 25 6 28 45 60
120 96 15 13 20 45 6 0 0 0 0 7 10 54 8 25 137 163 192 225 188 128 78 105 309 347 311 481 601 1084 1176 1063 811 714 671 525 488 254 41 9 19 41 81 170
125 176 61 1 76 188 76 1 6 16 21 22 18 23 63 61 65 108 98 188 338 243 307 361 379 305 284 448 808 990 1053 947 890 731 594 440 292 86 46 91 128 130 211 204
0 13 0 0 3 52 75 45 47 20 25 0 41 84 87 92 98 198 305 313 427 389 423 489 557 629 345 542 624 851 881 878 776 693 386 266 233 161 85 71 69 95 99 38
0 0 0 0 0 0 24 28 69 82 35 5 24 41 197 225 162 115 395 496 815 823 682 630 696 627 678 571 743 767 767 693 648 691 544 341 219 59 15 4 9 0 0 15
32 0 0 0 0 0 0 0 0 0 6 1 0 0 57 422 584 576 560 489 602 562 625 864 838 826 719 772 767 849 727 726 612 631 414 296 82 1 0 0 0 7 15 128
32 0 2 0 0 0 0 0 0 0 0 0 0 0 0 2 292 600 834 1116 1019 944 668 666 821 791 732 736 757 798 710 614 428 178 38 0 0 0 0 0 0 0 0 97
0 0 0 0 0 0 0 0 0 0 0 0 0 0 0 0 0 0 27 263 962 1051 775 733 724 689 639 524 477 456 302 240 111 118 114 66 0 0 0 0 0 0 0 0
0 0 0 0 0 0 0 0 0 0 0 0 0 0 0 0 0 0 0 0 247 761 1049 760 608 589 388 218 145 61 17 0 4 3 12 0 0 0 0 3 4 0 0 0
0 0 0 0 0 0 0 0 0 0 0 0 0 0 0 0 0 0 0 0 15 236 581 869 579 481 168 47 0 0 0 0 12 37 39 26 12 0 4 32 29 0 0 0
0 0 0 0 0 0 0 0 0 0 0 0 0 0 0 0 0 0 0 0 0 5 610 750 584 326 32 0 0 9 32 73 105 50 10 27 20 25 33 33 0 0 0 0
0 0 0 0 0 0 0 0 0 0 0 0 0 0 0 0 0 0 0 0 0 0 235 607 514 46 9 19 40 103 191 78 96 120 111 88 87 81 90 5 0 0 0 0
5 2 0 0 0 0 0 0 0 0 0 0 0 0 0 0 0 0 0 0 12 21 42 129 171 92 34 56 74 22 46 75 189 226 154 112 110 66 59 49 28 17 4 0
0 0 0 0 0 0 0 0 0 0 0 0 0 0 0 0 0 0 0 44 55 121 0 0 0 9 18 24 11 6 41 71 68 54 76 44 62 164 179 124 69 34 17 0
0 0 0 0 0 0 0 0 0 0 0 0 0 0 0 0 0 0 11 0 0 0 1 0 0 20 38 0 10 33 9 10 10 6 12 31 67 52 38 20 35 24 8 0
0 0 0 0 0 0 0 0 0 0 0 0 0 0 0 0 0 0 0 13 10 19 33 15 42 16 0 0 0 0 0 0 0 0 0 0 0 2 8 0 0 1 1 0
0 0 0 0 0 0 0 0 0 0 0 0 0 0 0 0 0 0 0 0 7 2 44 26 0 0 0 0 0 0 0 0 0 0 0 0 0 0 0 0 0 0 0 0
0 0 0 0 0 0 0 0 0 0 0 0 0 0 0 0 0 9 5 0 3 0 19 24 0 0 0 0 0 0 0 0 0 0 0 0 0 0 0 0 0 0 0 0
0 0 3 0 0 0 1 0 0 3 7 11 6 1 0 0 0 0 0 0 0 0 28 19 0 0 0 0 0 0 0 0 0 0 0 0 0 0 0 0 0 0 0 0
6 4 10 18 4 0 2 0 0 0 0 4 5 1 0 0 0 0 0 0 3 27 31 15 25 23 29 28 12 1 0 0 0 0 0 0 0 0 0 0 0 0 0 0
6 7 6 2 0 0 0 0 0 0 0 14 34 25 18 12 8 2 0 0 6 18 55 81 62 44 59 62 46 33 11 0 0 0 0 0 0 0 0 0 0 0 0 0
0 0 0 0 0 0 0 0 0 0 0 0 0 1 0 0 0 0 0 2 17 17 28 36 47 36 52 57 45 38 22 5 0 0 0 0 0 0 0 0 0 0 0 0

GFSNGP_con_mlcape_006.txt.gz
CAPE
0 0 0 0 0 0 0 0 0 0 0 0 0 0 0 0 0 75 426 381 817 1017 1327 1631 1578 1704 1841 1866 1825 1852 2046 2152 2395 2495 2473 2274 1876 1062 531 0 0 0 0 0
11 0 0 0 0 0 0 0 0 0 0 0 0 0 0 0 0 62 535 375 939 1211 1438 1780 1823 1999 2109 2121 2002 2114 2231 2352 2372 2654 2518 2090 1507 735 543 5 0 0 0 0
31 46 22 3 0 0 0 0 0 0 0 0 0 0 0 0 26 68 474 456 785 1157 1387 1795 1898 2134 2139 2126 2099 2156 2332 2395 2500 2603 2285 1864 1294 892 521 42 0 0 0 0
93 103 84 0 0 0 0 0 0 0 0 0 0 0 0 27 12 87 545 735 820 979 1333 1505 1498 1621 1652 1841 1940 2078 2290 2321 2386 2262 2033 1701 1292 901 545 92 0 21 115 46
74 130 96 24 67 1 0 0 0 0 0 0 0 0 106 43 39 260 666 969 990 993 1187 1236 1043 1269 1363 1527 1714 1885 2078 2132 2106 1917 1728 1411 1183 1024 835 417 171 339 417 284
136 98 33 300 240 165 174 1 0 0 0 0 0 0 0 107 20 132 527 691 787 710 921 887 822 960 1165 1308 1621 1798 2023 2083 2003 1715 1680 1464 1267 1251 824 716 571 383 447 407
130 147 125 323 147 347 160 4 0 0 0 0 1 146 294 158 252 409 654 826 866 784 637 721 795 987 1082 1257 1369 1671 1966 2125 1871 1682 1761 1730 1462 1129 962 749 534 624 500 415
211 261 158 109 358 377 395 280 311 210 211 215 309 493 595 590 725 844 716 619 528 740 1027 1176 1209 1374 1249 1350 1877 2049 2136 2092 1763 1678 1509 1539 1209 919 608 565 680 587 471 600
168 134 178 99 144 343 475 545 491 466 413 432 417 480 557 568 548 559 532 516 648 1007 1342 1578 1793 1819 1793 2238 2050 2077 1727 1606 1560 1548 1245 954 825 593 596 607 736 655 598 683
329 190 26 61 85 235 420 491 377 373 325 337 311 311 347 433 548 780 919 817 841 962 1038 1109 1444 1559 1856 1338 1583 1732 1350 1475 1290 1075 1093 800 789 780 894 835 734 739 743 378
169 33 14 14 19 9 47 233 270 284 296 374 676 662 676 860 848 867 965 925 855 951 1367 1370 1603 1674 1618 1486 1369 1369 1301 1349 1136 922 795 970 589 306 599 119 168 268 264 0
63 65 20 0 0 0 0 0 1 35 47 92 161 230 589 754 1114 1358 1285 1341 1477 1546 1779 1887 1884 1782 1747 1502 1569 1571 1205 1091 977 992 1024 1011 494 46 0 0 0 0 0 59
105 19 0 0 0 0 0 0 0 0 0 0 0 0 0 1 18 89 389 928 1825 1616 1731 1668 1706 1661 1622 1615 1438 1190 1009 930 758 662 509 553 491 184 25 0 0 0 0 0
0 0 0 0 0 0 0 0 0 0 0 0 0 0 0 0 0 0 0 189 647 1733 1548 1446 1329 1377 1310 1119 1205 1147 827 380 471 454 449 294 245 241 240 170 57 0 0 0
0 0 0 0 0 0 0 0 0 0 0 0 0 0 0 0 0 0 0 0 51 357 1253 1494 1301 1166 965 816 707 442 69 61 186 79 30 32 59 86 141 170 120 49 0 0
0 0 0 0 0 0 0 0 0 0 0 0 0 0 0 0 0 0 0 0 0 40 502 1040 1336 989 748 266 34 1 0 0 6 49 148 178 274 229 218 184 197 158 29 2
0 0 0 0 0 0 0 0 0 0 0 0 0 0 0 0 0 0 0 0 32 145 412 941 1183 823 365 68 36 49 44 82 109 213 172 148 128 114 99 135 164 99 118 46
26 2 0 0 0 0 0 0 0 0 0 0 0 0 0 0 0 0 9 35 194 389 607 928 898 622 405 308 139 157 130 76 75 59 89 87 88 144 179 154 111 107 93 0
25 2 1 0 0 0 0 0 0 0 0 0 0 0 0 0 0 6 14 2 83 271 266 457 138 390 426 223 133 45 65 66 124 181 196 110 140 169 203 173 183 134 150 63
0 0 0 0 0 0 0 0 0 0 3 6 4 3 6 2 8 13 69 44 76 135 92 11 137 103 63 3 2 50 108 126 117 86 54 44 60 113 165 107 141 131 80 30
0 0 0 0 0 0 4 1 4 7 15 15 18 13 10 3 13 25 37 47 49 54 42 35 94 136 61 10 29 47 44 42 36 33 25 21 75 37 27 9 17 22 26 12
1 5 1 1 2 0 11 28 18 22 36 37 34 31 15 0 37 49 35 15 23 0 61 67 46 0 0 0 2 0 0 0 0 0 0 0 0 1 2 3 4 6 13 17
0 14 0 0 4 9 9 7 21 52 64 57 54 22 2 5 2 24 36 11 61 20 84 47 0 0 0 0 0 0 0 0 0 0 0 0 0 0 0 0 0 0 0 0
43 26 38 21 4 9 7 0 0 6 25 34 20 26 0 0 16 12 21 5 0 5 59 2 0 0 0 1 0 0 1 0 0 0 0 0 0 0 0 0 0 1 0 0
38 33 24 22 4 2 3 0 5 1 2 38 24 13 6 4 3 4 19 23 2 25 81 10 1 0 0 15 30 14 22 17 13 6 3 2 0 0 0 0 1 4 4 1
0 1 2 0 0 0 0 5 13 13 0 12 16 23 17 14 20 7 18 1 3 7 2 57 65 35 45 49 39 44 31 28 18 7 0 1 2 0 0 0 0 0 0 0
0 0 0 0 0 0 0 0 0 0 0 0 0 10 1 1 0 0 0 7 21 29 34 39 41 44 35 30 32 39 29 27 14 7 11 6 4 2 0 0 0 0 0 0

GFSNGP_con_mlcape_009.txt.gz
CAPE
0 0 0 0 0 0 0 0 0 0 4 8 21 27 7 0 0 0 0 280 519 727 1094 1394 1371 1503 1349 1055 1121 1200 1714 1900 2299 2912 2838 2760 2720 3184 3197 3004 2569 1585 839 470
0 0 0 0 0 0 0 0 0 0 0 1 8 10 10 0 0 0 0 4 638 920 1089 1820 1839 2187 2028 1770 1870 1790 2324 2366 2717 3287 3118 3011 3037 3248 3112 2693 2203 1292 514 108
7 7 27 18 0 0 0 0 0 0 0 0 0 3 16 0 0 0 0 0 465 904 1245 1732 1858 2299 2443 2482 2230 2307 2597 3049 3072 3578 3515 3576 3376 3084 2687 2013 1627 774 246 0
16 80 41 0 0 5 4 1 0 0 0 0 0 0 0 0 0 0 0 0 130 819 1412 1944 1949 2031 2256 2557 2790 2966 3098 3082 3340 3504 3700 3609 3256 2779 2129 1733 1398 712 194 4
53 130 56 13 200 267 205 9 0 4 0 0 0 0 0 0 0 0 0 3 311 1071 1511 2176 2141 2380 2620 2609 2851 2913 3001 3104 3237 3289 3455 3202 2841 2479 1812 1587 1435 720 258 80
180 76 86 134 287 365 208 2 0 1 0 0 0 1 0 0 1 197 258 49 778 1274 1651 2239 2308 2331 2434 2443 2554 2670 2851 2911 3013 3136 3003 2744 2494 2161 1827 1764 1336 934 502 555
38 113 65 620 272 420 79 148 777 569 254 78 0 0 117 91 37 271 324 941 1485 1531 2179 2176 2127 1984 2192 2147 2141 2122 2296 2495 2742 2737 2676 2441 2112 2023 1917 1638 1294 895 625 738
34 58 58 510 442 328 842 751 836 796 580 540 11 18 464 514 551 627 827 1238 1395 1623 1851 1827 1843 1908 1900 1909 2132 2344 2463 2557 2677 2554 2322 2203 1914 1994 1722 1304 1156 1121 981 1156
71 85 814 643 523 715 693 782 805 803 758 607 452 698 867 993 1354 1465 1425 1457 1395 1403 1447 1350 1700 1948 2121 2524 2514 2574 2651 2780 2518 2100 1903 1968 1900 1747 1222 1076 827 998 855 1101
700 580 505 599 603 745 891 884 856 917 994 986 986 1026 1124 1199 1053 888 893 1046 1148 1309 1664 2005 2007 2112 2987 2858 2764 2822 2462 1976 1852 1619 1575 1294 1321 1047 801 720 868 1083 1116 1063
750 441 483 398 483 577 807 856 891 1087 1207 1104 1161 1175 1216 1212 1059 995 981 1042 1171 1440 1686 1901 2166 2408 2132 2423 2562 2268 2313 2017 1676 1476 1281 934 655 611 826 287 498 777 766 860
244 369 203 13 18 180 231 128 337 559 521 962 1154 1154 1321 1206 1090 1065 1025 1131 1370 1397 1691 1984 2145 2141 2130 2116 2198 2019 2016 1765 1409 1169 1044 843 504 37 0 0 0 0 0 32
110 69 0 0 0 0 0 0 0 0 1 18 8 56 160 229 445 674 1110 1078 1181 1330 1701 2021 2111 2171 2051 2088 2136 1977 1457 1339 1047 1092 1010 1102 722 664 342 0 0 0 0 0
2 0 0 0 0 0 0 0 0 0 0 0 0 0 0 0 0 61 250 841 1420 1525 1700 1755 1733 1901 1954 1881 1883 1666 1329 904 869 726 591 612 598 415 177 57 4 0 0 0
1 1 0 1 0 0 0 0 0 0 0 0 0 0 0 0 0 0 0 4 326 1253 1382 1383 1436 1474 1460 1673 1652 1530 1130 658 692 604 509 305 161 146 206 202 149 0 0 0
3 0 0 0 0 0 0 0 2 0 0 0 0 0 0 0 0 0 0 0 0 109 748 1163 1413 1312 1204 1243 1174 664 224 225 423 264 68 23 54 32 100 143 117 13 0 0
2 2 0 0 0 12 0 0 0 0 0 0 0 0 0 0 0 0 1 0 0 0 77 573 1377 1203 1121 611 335 102 1 4 13 137 101 106 159 134 117 123 134 140 128 23
0 0 0 1 20 0 8 40 4 16 0 2 0 0 0 1 0 0 0 2 13 26 111 1014 1122 1014 866 441 291 94 98 101 17 127 93 90 93 90 94 92 110 121 29 7
9 24 30 37 60 58 39 27 13 7 0 0 3 6 4 5 12 22 32 37 55 50 251 606 562 704 678 518 169 148 71 51 47 48 102 72 90 157 134 124 139 108 12 8
1 8 9 17 35 48 29 19 12 29 32 31 32 38 26 20 32 35 70 113 222 222 265 237 336 398 417 95 5 92 56 80 93 99 111 137 126 74 49 60 109 128 84 57
13 7 5 9 13 33 26 32 21 32 20 29 17 15 19 40 38 53 41 52 88 86 86 96 176 53 50 11 28 81 78 69 60 79 75 61 55 40 55 60 31 26 30 24
11 6 5 14 21 20 17 16 24 53 53 56 34 22 31 29 42 38 65 61 49 17 87 79 55 2 21 1 77 61 53 29 20 23 7 2 2 4 20 33 32 33 33 49
13 10 11 17 31 26 21 15 4 23 54 40 11 0 4 23 24 23 39 53 83 30 23 4 0 0 0 0 28 22 15 0 0 0 0 0 0 0 0 0 1 3 4 2
40 35 53 31 14 19 8 1 14 0 0 22 0 0 0 7 3 26 27 6 0 0 15 0 0 0 0 3 7 9 10 4 1 0 0 0 0 0 0 0 0 0 0 0
39 62 84 47 29 24 31 21 26 18 33 68 41 27 31 20 10 5 1 19 0 0 37 1 0 0 0 0 25 21 12 18 22 21 11 3 0 0 0 0 0 0 1 2
11 24 19 5 20 19 13 21 21 24 13 25 23 31 30 25 21 21 40 22 20 10 3 87 49 17 13 15 27 42 39 35 33 24 12 4 1 1 5 0 0 0 0 0
0 0 1 0 0 0 0 0 0 1 9 1 0 1 23 34 34 12 16 28 33 34 24 37 30 78 32 55 52 36 13 41 30 20 17 20 18 18 15 9 4 0 0 0

GFSNGP_con_mlcape_012.txt.gz
CAPE
0 0 0 0 0 0 0 0 0 0 0 0 14 76 7 9 1 0 22 187 109 303 606 865 1017 1077 1124 1285 1472 1654 2285 2646 2884 3151 3138 3162 3110 3442 3500 3360 3361 2932 2467 1861
0 0 0 0 1 0 0 0 0 0 0 0 0 0 10 9 1 0 0 16 311 222 934 1452 1308 1243 1195 1130 1279 1370 1637 2230 2527 2935 3304 3165 3291 3180 3579 3510 3664 3292 2781 1929
0 0 0 1 0 0 0 0 0 0 0 0 0 1 82 180 122 67 21 0 215 724 902 1626 1965 1607 1365 1244 1366 1280 1619 2085 2215 2652 3179 3379 3293 3290 3396 3601 3513 3252 2943 1926
0 0 3 0 0 0 0 0 0 0 0 0 0 0 0 0 6 2 26 0 0 210 1205 1390 2226 2165 2011 1725 1585 1548 2035 2269 2519 2954 3386 3488 3464 3422 3556 3665 3469 3057 2531 1647
2 0 0 3 9 90 21 0 0 0 0 0 0 0 0 0 0 0 0 187 18 0 1106 1509 2120 2139 2603 2346 1951 2561 2268 3416 3004 4172 4133 4058 4026 3966 3822 3462 2875 2383 1818 889
6 10 0 4 103 310 150 112 289 373 89 32 20 1 0 0 0 0 0 0 18 27 1294 1761 2295 2443 2623 2918 2787 2404 3255 3344 4021 4147 4407 4361 4150 3798 3080 2498 2120 1801 1285 749
15 7 0 182 251 55 31 29 871 777 686 541 286 208 205 133 174 239 4 11 220 1623 1863 2203 2615 2810 2824 3055 3295 3289 3710 3739 3861 4009 4147 4085 3719 2990 2308 1986 1988 1568 1059 692
68 68 27 316 52 34 507 709 664 549 497 456 438 315 264 576 331 642 476 393 1209 2081 2500 3028 2867 3064 3258 3219 3466 3552 3611 3669 3746 3797 3484 3263 2793 2262 2163 1924 1664 1382 973 744
0 0 4 497 882 845 784 692 742 582 510 415 280 319 356 680 654 105 736 1690 2099 2993 3078 3030 3208 3126 3078 3053 2924 3013 3081 3350 3410 3141 2857 2643 2259 1998 1926 1731 1325 1078 1155 1069
14 91 858 634 492 701 715 877 976 1486 1580 1027 594 749 1206 1388 1690 1810 1907 2014 2369 2398 2545 2636 2749 2905 3077 3058 3166 3176 3269 3076 2782 2409 2258 2112 2043 1969 1572 1340 1127 1130 1123 1119
55 666 859 852 916 945 963 1363 1574 1331 1255 1580 1594 1640 1618 1798 1842 1938 1942 2021 2097 2218 2608 2844 3425 3185 3228 3343 3271 2883 2639 2382 2043 1745 1635 1418 762 887 1138 341 586 1125 958 865
455 267 711 392 522 518 472 568 629 587 494 425 668 617 824 1312 1530 1881 2026 2159 2272 2453 2706 2836 2759 2780 2991 3011 2457 2258 2090 1854 1549 1466 1170 734 468 138 0 0 0 0 12 587
1 0 0 1 3 40 18 1 3 1 2 0 1 1 85 95 959 1320 1566 1879 2001 2372 2544 2512 2542 2431 2502 2745 2638 2325 1853 1771 1675 1328 1231 854 571 393 119 0 0 0 0 0
0 0 0 0 0 0 0 0 0 0 0 0 0 0 0 0 60 724 1526 1684 2103 2354 2545 2515 2249 2207 2238 2171 2214 2393 2107 1664 1473 1401 1375 1314 1192 727 582 100 0 0 0 0
0 0 2 0 0 0 0 0 0 0 0 0 0 0 0 0 0 0 50 1372 1644 1806 1941 2239 2217 2232 2206 2333 2277 1677 1341 1155 1055 1011 1302 1201 893 769 308 70 4 0 0 0
0 0 0 0 0 0 0 0 0 0 0 0 0 0 0 0 0 0 0 61 776 1464 1757 1675 1689 1907 1758 1772 1736 1607 1293 801 793 715 403 367 270 235 207 271 21 0 0 0
0 0 0 0 0 0 0 0 0 0 0 0 1 0 0 0 0 0 7 6 28 246 669 1177 1351 1439 1377 1455 1288 820 359 426 183 491 217 146 75 69 96 101 77 40 20 0
0 1 0 0 0 0 0 0 0 0 0 0 0 29 20 0 17 5 1 30 10 552 909 1229 1238 1148 987 741 626 284 27 121 144 190 168 121 151 126 111 60 89 117 95 0
8 9 3 1 0 0 0 0 2 32 38 14 1 3 22 31 20 37 7 33 18 76 297 766 600 678 689 435 333 355 135 49 25 57 48 40 66 123 89 30 17 12 23 0
0 0 26 4 8 19 16 7 15 25 28 54 68 65 80 29 43 41 87 115 141 159 391 439 445 600 666 657 157 52 90 61 74 103 66 88 97 91 35 55 39 20 0 1
15 10 45 59 14 24 29 40 75 71 71 69 29 17 26 39 46 68 108 94 112 178 159 86 96 199 125 19 10 40 39 76 51 93 75 35 34 68 57 58 55 74 65 67
25 21 35 26 5 37 36 11 39 34 26 35 14 5 4 31 44 44 51 36 27 0 0 3 4 0 1 2 69 61 37 24 13 1 24 21 0 3 29 43 50 33 32 37
28 47 29 22 18 10 5 16 25 53 58 41 18 8 6 19 18 6 3 0 4 0 2 0 0 0 0 5 33 26 6 5 0 0 0 0 0 0 0 0 0 15 39 45
83 16 38 21 10 9 12 11 11 34 55 19 0 12 25 5 47 47 13 0 0 7 1 0 0 0 0 0 3 12 16 3 0 0 0 0 0 0 0 0 0 0 0 0
16 40 14 10 3 0 8 0 0 7 15 22 33 41 26 7 30 8 11 5 0 29 30 0 0 0 0 0 0 12 16 6 7 11 12 6 0 0 0 0 0 0 0 0
1 14 10 0 0 0 0 0 0 0 0 2 0 0 0 16 4 22 35 19 20 12 9 73 29 1 5 7 5 12 33 16 33 33 29 17 7 0 0 2 0 0 0 0
0 0 0 0 0 0 0 0 0 0 0 0 0 0 0 2 19 2 1 19 5 10 6 59 70 34 10 12 36 25 30 43 35 4 6 12 13 18 11 18 14 3 0 0

GFSNGP_con_mlcape_015.txt.gz
CAPE
0 0 0 0 0 0 0 0 0 0 0 0 0 0 39 32 30 6 1 11 45 507 499 928 1209 1313 1413 1706 1939 2769 2982 3116 2932 2904 2910 2995 2957 3080 2512 2422 2792 2411 1783 1311
0 0 0 0 0 0 0 0 0 0 0 0 0 0 10 79 65 5 0 27 166 419 575 608 886 1128 1419 1611 1916 2246 2777 2892 2888 2870 2958 2997 3091 3019 3189 2840 2706 2715 2361 1805
0 0 0 0 0 0 0 0 0 0 0 0 0 0 0 7 165 25 7 170 374 417 669 700 758 949 1257 1550 1718 1997 2354 2734 2769 2699 2885 2962 3040 3025 3158 3306 3165 3139 2850 2371
0 0 0 0 0 0 0 0 0 0 0 0 0 0 0 0 0 0 1 45 84 169 980 998 980 943 1145 1397 1725 1825 1897 2422 2557 2707 2674 2998 3078 3153 3116 3331 3355 3368 3158 2775
0 0 0 0 0 0 0 0 0 0 0 0 0 0 0 0 0 0 0 10 0 422 429 1774 1442 1124 1126 1234 1519 1583 1648 1851 2262 2397 2713 2990 3194 3220 3241 3339 3417 3313 2850 2410
0 0 0 0 0 152 123 0 371 169 105 21 9 0 0 21 57 0 0 0 0 0 229 632 1763 1729 1337 1261 1377 1343 1418 1728 2051 2205 2641 3079 3273 3290 3405 3350 3007 2794 2498 1994
1 0 0 0 1 144 98 170 629 470 355 282 113 148 149 90 103 498 200 0 0 0 373 818 1634 2148 1889 1590 1363 1733 1411 2607 2384 2769 3358 3446 3573 3446 3117 2712 2668 2426 1900 1113
44 13 20 237 191 160 309 586 394 260 195 127 138 90 107 7 4 308 362 881 38 117 236 860 1917 2349 2538 2195 2101 2133 3272 3014 3816 4003 4189 3742 3558 2827 2513 2477 2089 1566 1289 1038
4 119 393 279 255 41 29 515 639 819 1109 661 621 618 379 499 256 173 1007 1528 2320 1589 1610 2280 2467 2666 2920 3467 3301 3149 3380 3837 3858 3772 3541 3310 2805 2288 2023 1807 1633 1405 1195 925
0 1 12 0 0 345 1250 919 1225 1307 1185 994 888 1093 1672 1584 1665 1716 1824 1953 2739 3097 3204 3179 3242 3292 3356 3466 3497 3532 3481 3352 3154 3017 2675 2297 1931 1742 1649 1509 1352 1138 878 846
21 40 393 630 660 823 588 149 336 711 902 1034 1044 1061 1182 1502 1917 2210 2436 2542 2661 2913 3118 3259 3345 3309 3284 3359 3308 3197 2888 2587 2469 2292 1839 1113 541 873 1146 483 740 840 931 942
42 3 43 0 42 176 131 165 66 178 225 178 340 541 585 581 518 527 714 2278 2850 3048 3112 3171 3159 3110 2970 2821 2783 2489 2179 1995 1905 1420 1018 772 623 318 0 16 9 271 789 575
0 0 0 0 0 0 0 0 0 0 0 0 0 34 2 101 0 0 3 30 2466 2782 2870 2919 2875 2793 2557 2334 2302 2247 2072 1789 1556 1211 970 805 623 532 339 0 0 0 16 17
0 0 0 0 0 0 0 0 0 0 0 0 0 0 0 0 0 0 0 4 1439 1980 2167 2108 2044 2288 2562 2184 1944 1890 1694 1532 1368 1145 1005 887 717 478 192 132 52 0 0 0
0 0 0 0 0 0 0 0 0 0 0 0 0 0 0 0 0 0 0 357 1220 1812 1968 1864 1751 1999 2332 2360 2338 1867 1737 1623 1425 1211 911 778 653 410 79 19 0 0 0 0
0 0 0 0 0 0 0 0 0 0 0 0 0 0 0 0 3 0 0 424 967 1529 2022 1824 1946 2043 2047 1968 1741 1655 1511 1534 1433 1434 1322 1065 960 801 399 19 0 0 0 0
0 0 0 0 0 0 0 0 0 0 0 0 0 0 0 0 0 0 1 298 676 1132 1096 1409 1759 1435 1526 1462 1367 1110 867 546 419 350 1008 837 624 365 300 70 1 4 0 0
0 0 0 0 0 0 0 0 0 0 0 0 0 0 0 0 0 0 0 120 35 220 536 569 530 567 691 692 671 564 269 234 122 280 80 51 15 12 7 37 22 24 4 0
6 4 0 0 0 0 0 0 0 0 0 0 0 0 0 3 21 0 0 1 0 0 67 142 377 381 365 168 61 5 43 98 65 52 66 73 32 0 0 17 22 14 8 1
2 20 19 28 33 23 14 13 15 22 5 2 45 7 0 0 43 45 43 7 1 31 0 8 176 311 371 183 84 72 28 49 70 52 29 13 4 1 1 1 3 13 14 7
38 30 14 17 0 0 25 29 32 26 24 27 6 28 57 82 67 80 61 37 21 0 0 29 44 66 90 92 59 50 19 17 19 34 38 13 3 7 13 14 14 18 3 0
28 10 9 34 22 5 22 23 27 12 23 13 13 26 20 39 58 48 42 9 0 0 0 0 0 0 0 5 1 45 32 32 20 20 4 2 0 0 0 34 39 66 40 21
51 103 36 24 13 14 41 23 25 32 0 2 2 16 26 53 40 3 0 0 0 0 0 0 0 0 0 0 0 14 8 1 0 0 0 0 0 0 0 0 0 3 13 13
2 21 15 2 19 5 1 4 17 69 71 52 33 30 4 46 76 20 0 0 0 17 0 0 0 0 0 0 0 0 3 3 0 0 0 0 0 0 0 0 0 0 0 0
6 0 0 0 0 0 0 0 0 0 0 0 0 0 3 1 3 8 23 8 0 29 34 4 0 0 0 0 0 0 0 0 0 0 2 0 0 0 0 0 0 0 0 0
0 0 0 0 0 0 0 0 0 0 0 0 0 0 0 0 0 0 2 4 6 8 31 78 29 2 0 0 0 0 1 1 0 0 0 4 7 0 0 0 0 0 0 0
0 0 0 0 0 0 0 0 0 0 0 0 0 0 0 0 0 0 0 0 0 0 5 0 0 0 0 0 0 0 0 0 0 6 3 5 7 12 2 0 0 0 0 0

GFSNGP_con_mlcape_018.txt.gz
CAPE
0 0 0 0 0 0 0 0 0 0 0 0 0 0 0 0 1 94 22 0 4 9 148 383 713 838 1112 1427 1810 2124 2261 2376 2192 2257 2356 2348 2304 2075 1849 1842 1741 1625 1389 1261
0 0 0 0 0 0 0 0 0 0 0 0 0 0 0 0 0 0 23 21 0 14 164 290 705 917 1032 1346 1990 2237 2395 2402 2590 2482 2458 2448 2571 2532 2176 2016 2132 1912 1635 1503
0 0 0 0 0 0 0 0 0 0 0 0 0 0 0 0 0 0 0 0 0 42 237 457 766 948 1045 1407 1902 2400 2408 2655 2758 2706 2604 2559 2586 2659 2691 2381 2207 2185 2091 2010
0 0 0 0 0 0 0 0 0 0 0 0 0 0 0 0 0 0 0 0 17 118 323 611 820 1048 1104 1336 1733 2294 2493 2641 2866 2751 2676 2693 2730 2740 2751 2835 2593 2481 2330 2160
0 0 0 0 0 0 0 0 0 0 0 0 0 0 0 0 0 0 0 0 0 396 428 530 783 1018 1171 1328 1690 1909 2353 2513 2687 2724 2628 2722 2662 2755 2808 2929 2949 2854 2874 2620
0 0 0 0 0 0 0 0 1 0 0 0 0 0 0 0 0 0 0 0 0 27 328 686 708 761 1020 1241 1531 1747 1959 2261 2550 2626 2573 2625 2743 2785 2844 2941 2926 3019 2943 2739
0 0 0 0 0 19 0 0 176 23 0 0 0 0 0 21 0 54 0 0 0 0 87 944 889 745 768 969 1212 1491 1829 1967 2348 2542 2532 2559 2796 2861 2923 2956 2937 2714 2480 2026
3 9 0 0 4 0 2 388 65 9 11 0 0 0 0 3 0 108 196 46 0 0 0 38 632 1057 915 891 962 1295 1563 1630 1789 2210 2347 2606 2842 2941 2907 2779 2643 2196 1763 1737
0 0 182 12 542 424 848 743 684 400 403 290 227 651 1262 1122 988 325 759 997 791 19 0 0 262 695 852 1029 1089 1258 1289 1574 1762 2000 2386 2782 2807 2664 2570 2452 2144 1760 1549 1507
0 12 233 11 468 560 543 563 403 342 367 547 632 1098 1241 1285 1316 1468 1738 1985 2458 2341 663 561 707 1594 1137 1341 1538 1653 1724 2324 2615 2564 2689 2676 2476 2316 2276 2031 1769 1565 1318 1021
31 0 79 73 25 101 26 0 95 182 296 374 656 920 899 743 709 785 781 563 622 1754 2716 2521 2096 2413 2666 2269 2488 2456 2629 2538 2575 2114 1991 1304 630 1094 1370 1214 1443 1261 909 764
15 6 2 3 0 0 0 0 0 3 52 9 18 119 47 37 0 0 2 14 82 0 266 606 311 2802 3068 2792 2562 2456 2453 2123 1274 1001 590 397 601 48 0 23 481 661 638 642
0 2 1 0 0 0 0 0 0 0 0 0 0 0 0 0 0 12 37 0 0 0 0 3 0 0 2432 2213 2378 2415 1993 1320 1039 866 542 355 418 253 252 2 2 219 556 574
0 0 0 0 0 0 0 0 0 0 0 0 0 0 0 0 7 4 22 423 380 25 0 0 0 0 1310 1824 1604 1440 882 62 923 562 369 251 357 193 132 116 128 39 0 0
0 0 1 0 0 0 0 0 0 0 0 0 0 0 0 0 29 159 247 310 186 171 132 113 630 728 865 1222 1095 891 773 611 653 672 546 397 288 117 5 0 0 0 0 0
0 0 0 0 0 0 0 0 0 0 0 0 0 0 0 2 6 310 404 578 336 340 381 451 439 506 627 949 1012 1004 958 966 915 735 647 512 279 100 22 3 0 0 0 0
0 0 0 0 0 0 0 0 0 0 0 0 0 0 0 0 0 0 0 73 124 208 323 320 259 197 262 567 689 780 1008 1030 954 854 697 567 418 175 0 0 0 0 0 0
0 0 0 0 0 0 0 0 0 0 0 0 0 0 0 0 0 0 0 0 0 18 32 40 1 2 61 58 21 93 288 389 309 1145 953 645 536 347 223 4 0 0 0 0
5 0 0 15 0 0 0 0 0 0 0 0 0 0 0 0 0 0 0 0 0 0 0 0 36 29 2 0 5 3 64 30 6 104 300 322 220 166 217 62 1 0 0 0
58 51 55 24 34 20 24 22 14 40 22 11 2 0 0 0 0 0 0 0 0 0 0 0 0 0 0 0 0 0 4 0 0 0 0 5 1 0 1 36 30 7 0 0
25 19 23 48 39 36 22 24 32 20 13 41 62 36 25 15 18 3 3 0 0 0 0 0 0 0 0 0 0 0 2 5 3 26 0 0 0 0 1 22 30 32 9 0
42 43 32 14 12 9 11 26 4 1 3 8 25 40 45 32 14 6 3 14 0 0 0 0 0 0 0 0 0 18 19 4 9 11 1 0 0 0 0 2 4 16 2 1
0 0 0 0 0 0 0 0 5 0 0 0 0 17 41 20 0 0 0 0 0 0 0 0 0 0 0 0 0 18 15 7 13 4 0 0 0 0 0 13 21 16 23 20
0 0 0 0 0 0 0 0 0 0 0 0 0 0 1 0 2 0 0 0 4 0 0 0 0 0 0 0 0 0 0 0 0 0 0 0 0 0 0 0 0 0 0 0
0 0 0 0 0 0 0 0 0 0 0 0 0 0 0 0 0 0 0 0 0 0 0 0 0 0 0 0 0 0 0 0 0 0 0 0 0 0 0 0 0 0 0 0
0 0 0 0 0 0 0 0 0 0 0 0 0 0 0 0 0 0 0 0 0 0 0 0 0 0 0 0 0 0 0 0 0 0 0 0 0 0 0 0 0 0 0 0
0 0 0 0 0 0 0 0 0 0 0 0 0 0 0 0 0 0 0 0 0 0 0 0 0 0 0 0 0 0 0 0 0 0 0 0 0 0 0 0 0 0 0 0

GFSNGP_con_mlcape_021.txt.gz
CAPE
0 0 0 0 0 0 0 0 0 0 0 0 0 0 0 0 0 0 0 0 0 0 0 0 7 188 448 767 1116 1194 1274 1451 1411 1483 1458 1445 1370 1261 1277 1287 1310 1141 1165 1154
0 0 0 0 0 0 0 0 0 0 0 0 0 0 0 0 0 0 0 0 0 16 41 4 21 157 378 762 1120 1423 1441 1506 1631 1698 1687 1698 1723 1619 1498 1410 1408 1264 1176 1125
0 0 0 0 0 0 0 0 0 0 0 0 0 0 0 0 0 0 0 0 0 0 6 14 24 221 402 700 1076 1582 1613 1707 1774 1781 1804 1874 1941 1922 1792 1666 1621 1415 1353 1309
0 0 0 0 0 0 0 0 0 0 0 0 0 0 0 0 0 0 0 0 0 0 0 1 109 289 511 789 1143 1473 1737 1890 2051 2005 1891 2015 2109 2104 2080 1895 1825 1795 1528 1436
0 0 0 0 0 0 0 0 0 0 0 0 0 0 0 0 0 0 0 0 0 0 0 32 156 340 734 927 1107 1606 1802 1959 2134 2264 2206 2150 2118 2159 2288 2236 1952 1977 1822 1671
0 0 0 0 0 0 0 0 0 0 0 0 0 0 0 0 0 0 0 0 0 0 0 28 216 555 854 982 1226 1495 1843 2007 2249 2396 2385 2320 2244 2256 2318 2404 2357 2117 2149 2093
0 0 0 0 0 0 0 0 0 0 0 0 0 0 0 0 0 0 0 0 0 0 0 147 419 796 979 1070 1162 1394 1835 2110 2349 2546 2516 2444 2403 2389 2469 2504 2598 2499 2511 2413
0 0 0 2 21 57 21 0 0 0 0 0 0 0 0 4 0 94 570 861 740 0 0 263 383 697 898 1074 1112 1313 1562 1883 2188 2351 2568 2446 2459 2484 2601 2651 2741 2796 2575 2350
0 0 33 54 49 85 89 150 56 17 28 139 263 288 413 244 134 53 369 1139 1651 1454 1147 137 20 680 728 876 1125 1308 1404 1578 1770 2206 2420 2416 2474 2515 2619 2672 2727 2273 2258 2228
12 57 35 91 68 58 44 101 116 101 309 334 245 377 339 535 461 337 298 418 1246 1237 805 780 1270 1001 873 862 852 1111 1328 1408 1554 1951 2295 2332 2496 2607 2664 2719 2445 2078 1925 1709
14 46 59 67 0 0 0 3 37 19 109 124 84 18 5 20 29 155 169 57 161 878 1553 1572 807 915 832 1127 1187 936 1113 1296 1398 1739 2133 2415 1804 2242 2547 1841 1754 1496 1171 956
45 0 3 0 0 0 0 0 0 0 0 0 0 4 2 28 0 2 7 0 0 0 0 0 16 25 345 990 2021 1302 1072 1358 1705 1924 1282 1037 1102 775 72 303 729 418 526 135
51 0 0 0 0 0 0 0 0 0 0 0 0 0 0 0 0 5 16 0 0 0 0 0 9 14 0 1 1747 2468 2032 1696 1142 822 947 998 891 743 272 2 3 0 0 138
20 0 0 0 0 0 0 0 0 0 0 0 0 6 15 14 18 33 51 44 18 1 0 209 38 133 292 10 296 852 641 640 622 416 387 366 184 1 0 0 11 30 0 51
3 0 0 0 0 0 0 0 0 0 0 0 0 24 86 71 62 139 116 155 158 241 207 57 102 75 0 0 4 118 249 349 230 90 0 0 0 0 0 0 5 14 0 0
0 0 0 0 0 0 0 0 0 0 0 0 0 0 0 0 0 6 12 47 72 52 15 55 82 194 138 1 0 0 0 105 188 20 0 0 0 0 6 0 8 14 35 8
0 0 0 0 0 0 0 0 0 0 0 0 0 0 0 0 0 0 0 0 0 0 0 0 0 0 14 23 5 0 0 227 76 74 54 23 35 60 36 50 58 20 3 0
0 0 0 0 0 0 0 0 0 0 0 0 0 0 0 0 0 0 0 0 0 0 0 0 0 0 0 125 222 285 380 546 518 449 309 231 89 24 6 1 4 1 0 0
0 0 0 4 4 1 0 0 0 0 0 0 0 0 0 0 0 0 0 0 0 0 0 0 0 0 0 0 40 68 143 393 476 448 349 215 151 96 21 2 0 0 0 0
33 47 53 34 14 11 9 15 4 1 1 3 0 0 0 0 0 0 0 0 0 0 0 0 0 0 0 0 0 0 10 73 104 224 237 184 115 111 47 6 0 0 0 0
0 3 4 0 5 1 1 0 0 2 20 29 16 23 20 10 12 5 0 0 0 0 0 0 0 0 0 0 0 0 0 0 0 0 20 31 19 1 8 18 7 10 0 0
0 0 0 0 0 0 0 0 0 0 0 7 5 0 0 0 0 0 0 0 0 0 0 0 0 0 0 0 0 0 0 9 10 2 4 6 7 7 15 21 14 0 0 0
0 0 0 0 0 0 0 0 0 0 0 0 0 0 0 0 0 0 0 0 0 0 0 0 0 0 0 0 0 0 0 7 12 0 9 8 10 0 0 6 4 8 4 0
0 0 0 0 0 0 0 0 0 0 0 0 0 0 0 0 0 0 0 0 0 0 0 0 0 0 0 0 0 0 0 0 0 0 0 0 0 0 3 16 18 20 22 8
0 0 0 0 0 0 0 0 0 0 0 0 0 0 0 0 0 0 0 0 0 0 0 0 0 0 0 0 0 0 0 0 0 0 0 0 0 0 0 0 0 0 0 0
0 0 0 0 0 0 0 0 0 0 0 0 0 0 0 0 0 0 0 0 0 0 0 0 0 0 0 0 0 0 0 0 0 0 0 0 0 0 0 0 0 0 0 0
0 0 0 0 0 0 0 0 0 0 0 0 0 0 0 0 0 0 0 0 0 0 0 0 0 0 0 0 0 0 0 0 0 0 0 0 0 0 0 0 0 0 0 0

GFSNGP_con_mlcape_024.txt.gz
CAPE
0 0 0 0 0 0 0 0 0 0 0 0 0 0 0 0 0 0 0 0 0 0 0 0 0 4 37 155 287 522 617 679 852 930 965 975 1029 983 985 957 982 1002 915 953
0 0 0 0 0 0 0 0 0 0 0 0 0 0 0 0 0 0 0 0 0 0 0 0 0 46 121 214 398 569 692 723 904 1065 1046 1005 1010 1102 1116 1157 1180 1087 1054 940
0 0 0 0 0 0 0 0 0 0 0 0 0 0 0 0 0 0 0 0 0 0 0 0 26 110 186 301 556 739 797 924 1077 1206 1246 1219 1189 1103 1080 1118 1217 1191 1176 1102
0 0 0 0 0 0 0 0 0 0 0 0 0 0 0 0 0 0 0 0 0 0 0 0 26 35 173 338 623 801 987 1047 1259 1412 1453 1483 1487 1367 1278 1228 1178 1243 1225 1211
0 0 0 0 0 0 0 0 0 0 0 0 0 0 0 0 0 0 0 0 0 0 0 0 0 23 146 340 581 842 1107 1202 1353 1536 1598 1626 1645 1622 1630 1558 1430 1398 1356 1288
0 0 0 0 0 0 0 0 0 0 0 0 0 0 0 0 0 0 0 0 0 0 0 0 0 0 129 352 593 696 1113 1327 1528 1623 1629 1690 1777 1856 1870 1837 1707 1608 1514 1455
0 0 0 0 0 0 0 0 0 0 0 0 0 0 0 0 0 0 0 0 0 0 0 0 0 0 53 227 395 651 1063 1528 1773 1864 1826 1830 1913 2118 2130 2144 2010 1779 1698 1604
0 0 0 0 0 0 0 0 0 0 0 0 0 0 0 0 11 285 491 783 279 0 0 0 0 66 215 340 501 821 1163 1497 1715 1967 2129 2164 2086 2167 2163 2271 2225 2040 1852 1890
0 0 0 0 10 11 0 0 0 0 0 0 0 0 0 0 17 252 844 1238 1374 906 702 238 0 247 407 586 702 876 1100 1527 1893 2112 2275 2300 2335 2281 2255 2244 2314 2257 2128 2088
2 0 0 33 84 25 19 0 2 2 32 39 15 9 0 0 2 5 0 2 185 437 606 458 696 1201 982 977 1051 699 948 1287 1674 2125 2290 2530 2413 2375 2389 2323 2242 2049 1820 2236
0 0 2 7 0 46 74 0 1 5 5 0 20 12 13 22 6 0 0 0 0 0 0 0 0 0 0 55 1226 1961 1192 919 1326 1822 2209 2477 1887 1857 2317 2377 2421 2448 2031 1678
0 0 30 35 0 14 111 0 0 3 24 21 5 18 3 0 0 0 0 0 0 0 0 0 0 0 0 0 0 464 1135 1245 1151 1475 1936 1460 1076 700 831 1216 1374 770 331 147
0 0 54 32 0 0 45 0 0 0 0 1 23 28 4 6 0 0 0 0 0 0 0 0 0 0 0 0 0 224 505 992 1222 1298 1140 1021 1096 901 945 204 180 44 0 0
0 36 90 31 8 0 0 0 0 0 0 14 32 64 38 13 34 49 72 129 144 43 13 53 97 40 7 5 2 32 935 1158 1014 842 752 936 676 658 309 169 0 0 0 0
47 64 61 1 0 0 0 0 0 0 0 30 26 51 58 44 37 43 54 33 14 5 0 1 8 12 0 9 1 52 114 376 473 617 513 168 5 4 1 0 1 0 0 0
51 18 2 0 0 0 0 0 1 0 0 0 0 0 0 0 0 0 0 0 2 0 0 0 0 0 0 0 0 0 2 0 0 1 3 1 0 0 0 0 0 0 0 4
6 2 2 0 0 0 13 18 2 0 0 0 0 0 0 0 0 0 0 0 0 0 0 0 0 0 0 0 0 0 0 0 0 0 25 1 0 0 0 0 0 0 0 4
0 1 0 0 0 0 0 2 1 0 0 0 0 0 0 0 0 0 0 0 0 0 0 0 0 0 0 0 0 0 0 0 0 0 0 0 0 0 0 0 0 0 1 1
2 0 0 6 14 2 0 0 0 0 0 0 0 0 0 0 0 0 0 0 0 0 0 0 0 0 0 0 0 0 3 10 26 19 1 0 0 1 0 0 0 0 0 0
0 0 0 0 0 0 0 0 0 7 7 4 2 0 0 0 0 0 0 0 0 0 0 0 0 0 0 0 0 0 11 35 59 44 25 21 17 11 7 2 0 0 0 0
0 0 0 0 0 0 0 0 0 0 0 0 0 1 0 0 0 0 0 0 0 0 0 0 0 0 0 0 0 0 0 15 24 27 39 41 14 4 0 0 0 0 0 0
0 0 0 0 0 0 0 0 0 0 0 0 0 0 0 0 0 0 0 0 0 0 0 0 0 0 0 0 0 0 0 10 16 6 3 33 9 0 0 0 1 1 0 0
0 0 0 0 0 0 0 0 0 0 0 0 0 0 0 0 0 0 0 0 0 0 0 0 0 0 0 0 0 0 0 0 2 1 6 8 9 6 2 7 5 1 1 0
0 0 0 0 0 0 0 0 0 0 0 0 0 0 0 0 0 0 0 0 0 0 0 0 0 0 0 0 0 0 0 0 0 0 0 0 0 0 1 2 3 4 2 1
0 0 0 0 0 0 0 0 0 0 0 0 0 0 0 0 0 0 0 0 0 0 0 0 0 0 0 0 0 0 0 0 0 0 0 0 0 0 0 0 0 0 0 0
0 0 0 0 0 0 0 0 0 0 0 0 0 0 0 0 0 0 0 0 0 0 0 0 0 0 0 0 0 0 1 0 0 0 0 0 0 0 0 0 0 0 0 0
0 0 0 0 0 0 0 0 0 0 0 0 0 0 0 0 0 0 0 0 0 0 0 0 0 0 0 0 0 0 0 0 0 0 0 0 0 0 0 0 0 0 0 0

GFSNGP_con_mlcape_027.txt.gz
CAPE
0 0 0 0 0 0 0 0 0 0 0 0 0 0 0 0 0 0 0 0 0 0 0 1 72 229 267 445 605 736 925 974 1081 1214 1339 1367 1274 1247 1298 1363 1242 1277 1298 1419
0 0 0 0 0 0 0 0 0 0 0 0 0 0 0 0 0 0 0 0 0 0 0 0 24 149 252 343 489 732 826 808 1040 1387 1471 1438 1402 1358 1339 1363 1352 1455 1451 1442
0 0 0 0 0 0 0 0 0 0 0 0 0 0 0 0 0 0 0 0 0 0 0 0 0 96 186 297 490 660 766 879 1070 1279 1449 1502 1531 1533 1420 1481 1445 1410 1404 1453
0 0 0 0 0 0 0 0 0 0 0 0 0 0 0 0 0 0 0 0 0 0 0 0 0 23 250 421 471 673 842 1046 1221 1278 1378 1511 1601 1601 1619 1614 1541 1518 1475 1475
0 0 0 0 0 0 0 0 0 0 0 0 0 0 0 0 0 0 0 0 0 0 0 0 0 0 190 422 607 765 823 1034 1202 1194 1373 1572 1544 1566 1688 1741 1764 1732 1751 1659
0 0 0 0 0 0 0 0 0 0 0 0 0 0 0 0 0 0 0 0 0 0 0 0 0 9 175 366 631 711 874 962 1138 1408 1519 1558 1696 1777 1827 1769 1794 1828 1843 1782
0 0 0 0 0 25 0 0 0 0 0 0 0 0 0 0 0 0 0 0 0 0 0 0 0 0 0 255 511 702 1186 1545 1716 1751 1803 1882 1980 2080 2125 2113 2080 1974 1937 1831
0 0 0 0 0 0 0 0 0 0 0 0 0 0 0 0 0 66 287 8 0 0 0 0 12 3 3 163 738 1107 1351 1499 1765 1865 1903 2014 2120 1936 2194 2303 2344 2394 2293 2083
0 0 0 0 0 10 84 0 0 0 0 0 0 27 0 0 194 807 1318 879 388 4 0 3 254 623 638 718 852 1132 1244 1529 1853 2128 2268 2269 2412 2390 2316 2221 2229 2308 2230 2143
0 0 0 0 0 0 20 69 55 18 2 1 118 208 0 0 273 701 1009 1073 707 617 718 833 901 773 844 1166 1281 1145 1310 1494 1801 2077 2394 2631 2719 2598 2429 2166 1180 511 2247 2212
1 0 0 0 0 0 0 55 47 39 11 14 12 0 0 0 2 0 0 0 19 33 30 10 20 11 4 96 1427 2166 1642 1504 1766 2211 2331 2721 2767 2713 2540 2282 2220 1972 2282 2268
0 0 0 0 0 0 0 0 57 19 36 17 18 6 0 1 6 0 0 0 0 0 0 0 0 0 0 1 0 157 687 1184 1306 1650 2127 2483 2868 2207 1220 1476 2067 1846 2205 2257
0 0 0 7 0 30 46 57 34 12 7 4 9 19 14 14 0 0 0 0 0 78 258 377 310 220 254 233 105 142 198 618 1276 1146 1517 2445 1711 1832 1642 633 627 1282 1269 1057
8 2 1 1 4 49 40 27 13 14 29 47 58 48 39 43 32 51 95 68 57 28 22 100 239 150 5 0 14 11 205 10 381 1132 1605 1246 1113 1045 713 1012 932 6 7 60
0 0 45 65 99 55 3 4 14 4 7 25 15 61 18 11 18 15 9 0 0 0 10 56 126 13 0 1 52 124 123 0 0 9 105 233 505 293 349 133 25 5 0 0
0 0 1 36 20 23 23 4 1 2 4 3 0 0 0 0 0 0 0 0 0 0 0 62 60 53 0 0 1 1 0 0 0 0 0 0 0 0 0 5 3 2 0 0
1 0 3 9 24 29 25 16 0 0 0 1 4 2 1 0 0 0 0 0 0 0 0 0 0 17 119 14 0 0 0 5 0 2 0 0 0 0 0 0 0 1 3 1
12 39 38 43 19 0 0 0 0 0 0 0 0 0 0 0 0 0 0 0 0 0 0 0 0 0 7 77 61 45 32 18 7 0 2 1 0 0 1 0 3 2 0 0
3 1 2 2 13 0 2 13 32 13 0 0 0 0 0 0 0 0 0 0 0 0 0 0 0 0 0 0 36 45 4 5 2 1 1 0 0 0 2 0 0 0 0 3
4 2 2 3 2 2 5 3 2 0 0 0 0 0 0 0 0 0 0 0 0 0 0 0 0 0 0 0 0 22 56 62 0 5 13 4 3 1 1 3 4 5 5 4
0 1 0 0 0 0 0 0 0 0 0 0 0 0 0 0 0 0 0 0 0 0 0 0 0 0 0 0 0 0 0 1 14 87 96 45 19 1 0 0 0 2 0 0
0 0 0 0 0 0 0 0 0 0 0 0 0 0 0 0 0 0 0 0 0 0 0 0 0 0 0 0 0 0 0 0 0 1 0 0 1 1 0 1 0 0 0 0
0 0 0 0 0 0 0 0 0 0 0 0 0 0 0 0 0 0 0 0 0 0 0 0 0 0 0 0 0 0 0 0 0 0 0 0 0 0 0 0 0 0 0 0
0 0 0 0 0 0 0 0 0 0 0 0 0 0 0 0 0 0 0 0 0 0 0 0 0 0 0 0 0 0 0 0 0 0 0 0 0 0 0 0 0 0 0 2
0 0 0 0 0 0 0 0 0 0 0 0 0 0 0 0 0 0 0 0 0 0 0 0 0 0 0 0 0 0 1 0 0 0 0 0 0 0 0 0 0 0 0 0
0 0 0 0 0 0 0 0 0 0 0 0 0 0 0 0 0 0 0 0 0 0 0 0 0 0 0 0 0 0 0 2 2 0 0 0 0 0 0 0 0 0 0 0
0 0 0 0 0 0 0 0 0 0 0 0 0 0 0 0 0 0 0 0 0 0 0 0 0 0 0 0 0 0 0 0 0 0 1 2 1 1 0 0 0 0 0 0

GFSNGP_con_mlcape_030.txt.gz
CAPE
0 0 0 0 0 0 0 0 0 0 0 0 0 0 0 0 0 0 0 0 0 33 101 363 490 900 1475 1106 1037 1115 1449 1578 1898 2156 2261 2223 2194 2206 2246 2379 2308 2367 2352 2433
0 0 0 0 0 0 0 0 0 0 0 0 0 0 0 0 0 0 0 0 0 0 0 181 592 975 1013 1414 1144 1137 1504 1688 1861 2214 2422 2343 2374 2319 2355 2339 2386 2417 2313 2494
0 0 0 0 0 0 0 0 0 0 0 0 0 0 0 0 0 0 0 0 0 0 0 140 454 712 885 1197 1196 1273 1498 1857 1963 2240 2368 2429 2515 2509 2394 2379 2502 2432 2407 2431
0 0 0 0 0 0 0 0 0 0 0 0 0 0 0 0 0 0 0 0 0 0 0 2 92 8 574 816 1295 1413 1671 1829 2079 2206 2424 2627 2619 2586 2554 2584 2526 2673 2626 2605
0 0 0 0 0 0 0 0 0 0 0 0 0 0 0 0 0 0 0 0 0 0 0 0 0 0 32 807 1100 1460 1692 1854 1998 2208 2235 2465 2683 2610 2745 2644 2594 2637 2565 2730
0 0 0 0 0 0 0 0 0 0 0 0 0 0 0 0 0 0 0 0 0 0 0 0 0 5 209 640 965 1507 1622 1786 2029 2242 2305 2337 2654 2758 2754 2670 2554 2475 2542 2696
0 0 0 0 0 3 0 15 0 0 0 0 1 5 20 0 0 0 0 0 0 0 0 0 97 244 298 669 910 1492 1751 1814 2108 2369 2477 2527 2798 2805 2802 2726 2484 2714 2711 2702
0 0 0 0 0 0 0 0 0 0 0 0 0 0 100 276 212 11 0 279 728 91 0 0 231 88 178 448 1062 1727 1884 2005 2337 2631 2391 2340 2847 3040 2864 2810 2816 2661 2577 2645
0 0 0 0 0 0 0 0 0 0 0 0 0 1 114 470 495 0 90 738 1245 0 14 895 1282 896 569 1041 1520 1686 2002 2223 2412 2688 2807 2648 2994 3135 2968 3015 2633 2599 2286 2794
0 0 0 0 0 0 0 0 0 0 0 0 0 34 452 709 445 692 1307 1995 1782 1072 869 1433 1974 2122 2302 2112 2071 2051 2090 2260 2492 2743 2847 2812 2689 2945 2710 2570 2823 2590 2664 2777
22 14 3 0 0 0 0 0 0 0 0 0 0 108 672 570 587 1106 1357 1098 1237 1512 1513 1440 1554 1623 1849 2418 3053 2424 2581 2704 2781 2744 2819 3019 3044 2829 2771 2760 2774 2873 2811 2648
2 3 14 7 7 0 0 0 0 0 0 0 22 61 167 666 869 787 867 727 679 680 706 756 694 691 701 725 866 1551 2070 2056 1997 2042 2298 2671 2745 3068 1848 2037 1942 2176 2332 1968
1 2 14 16 4 0 16 0 0 0 1 41 32 5 36 126 65 107 534 691 894 977 1072 1051 945 762 152 285 1068 1088 1142 1161 1081 1205 1162 1349 1887 2377 2529 2437 1433 1433 1625 1935
9 11 4 12 2 1 0 3 4 25 59 71 35 20 24 23 15 115 279 410 497 624 806 779 412 60 254 667 954 1027 437 38 810 886 1099 1446 1982 2168 2428 2504 2273 1965 1288 717
5 5 7 1 11 14 43 9 43 54 52 73 61 18 24 28 18 8 2 25 209 446 622 569 371 397 578 705 300 94 42 285 185 67 33 83 126 185 321 414 234 111 0 4
1 1 7 10 2 0 94 87 22 17 76 74 68 77 23 1 0 0 0 0 0 0 1 56 482 589 219 246 202 171 14 0 2 24 0 0 2 0 0 0 0 0 0 0
5 8 3 0 8 58 11 8 5 36 34 21 7 8 1 0 0 0 0 0 0 0 0 0 6 183 692 726 486 307 216 265 0 1 0 3 0 0 5 7 6 0 0 0
45 37 22 0 35 25 2 14 2 1 4 3 0 0 0 0 0 0 0 0 0 0 0 0 0 4 11 143 538 397 345 162 79 20 6 1 7 6 7 3 9 2 0 1
2 2 1 1 2 3 1 0 13 13 2 1 1 0 1 0 0 0 0 0 0 0 0 0 0 0 0 1 272 385 208 166 78 64 55 0 0 0 6 7 3 5 2 0
1 1 1 0 2 2 1 1 2 1 3 1 0 0 0 0 0 0 0 0 0 0 0 0 0 0 0 0 6 76 403 449 150 17 17 3 3 2 2 2 3 2 1 12
0 0 0 0 0 0 0 0 0 1 0 0 0 0 0 0 0 0 0 0 0 0 0 0 0 0 0 0 0 0 0 0 32 146 187 58 4 0 1 3 2 2 0 0
0 0 0 0 0 0 0 0 0 0 0 0 0 0 0 0 0 0 0 0 0 0 0 0 0 0 0 0 0 0 0 0 0 0 2 3 12 5 2 2 2 2 2 1
0 0 0 0 0 0 0 0 0 0 0 0 0 0 0 0 0 0 0 0 0 0 0 0 0 0 0 0 0 0 0 0 0 0 0 0 0 0 3 3 2 2 1 2
0 0 0 0 0 0 0 0 0 0 0 0 0 0 0 0 0 0 0 0 0 0 0 0 0 0 0 0 0 0 0 0 0 0 0 0 0 0 0 0 0 1 2 2
0 0 0 0 0 0 0 0 0 0 0 0 0 0 0 0 0 0 0 0 0 0 0 0 0 0 0 0 0 0 0 0 0 0 0 0 0 0 0 0 0 0 0 0
0 0 0 0 0 0 0 0 0 0 0 0 0 0 0 0 0 0 0 0 0 0 0 0 0 0 0 0 0 0 0 0 0 0 0 1 0 0 0 0 0 0 0 0
0 0 0 0 0 0 0 0 0 0 0 0 0 0 0 0 0 0 0 0 0 0 0 0 0 0 0 0 0 0 0 0 0 0 0 0 0 0 0 0 0 0 0 0

GFSNGP_con_mlcape_036.txt.gz
CAPE
0 0 11 0 0 0 0 0 0 0 0 0 0 0 0 0 0 0 37 188 375 600 1245 1156 1459 1793 1967 2014 2087 2096 2160 2736 2817 2781 2874 2837 2969 3050 3241 3023 2813 2973 2996 3022
0 0 0 0 0 0 0 0 0 0 0 0 0 0 0 0 0 0 0 0 0 23 17 528 1497 1962 1860 2040 2249 2195 2165 2387 2671 2847 2875 3159 3020 3124 3193 3362 3295 3180 3289 3181
0 0 0 0 0 0 0 0 0 0 0 0 0 0 0 0 0 0 0 0 0 0 0 19 227 1826 2304 2224 2281 2439 2262 2530 2584 2701 2848 3033 3317 3215 3237 3364 3508 3431 3449 3413
0 0 0 0 0 0 1 0 0 0 0 0 1 0 0 0 0 0 0 0 0 0 0 0 40 244 1326 2388 2285 2176 2560 2558 2863 2921 2893 3172 3374 3492 3510 3496 3608 3594 3647 3591
0 0 0 0 0 0 0 0 2 0 0 1 0 0 0 0 0 0 0 0 0 0 0 0 52 151 548 881 2210 2465 2346 2526 2590 3062 3132 3258 3488 3610 3743 3797 3730 3864 3780 3789
0 0 0 0 0 0 0 0 7 0 0 0 0 0 185 320 100 192 411 560 551 298 173 0 7 0 1185 1074 1727 2134 2246 2311 2732 2773 3076 3262 3592 3880 3953 3943 3946 3886 3902 3820
0 0 0 0 0 0 0 92 55 9 8 6 37 364 296 82 51 202 419 528 617 458 313 399 69 46 100 834 1358 1890 2386 2726 2841 2963 2919 3298 3469 3929 4099 4128 4100 4038 3957 3952
0 0 0 0 0 0 9 0 0 0 0 0 0 0 3 1 59 173 539 904 647 532 377 356 1110 418 80 398 406 1027 1604 2784 3037 3365 3255 3292 3643 3847 4055 4124 4106 4018 3994 3954
0 0 0 0 0 0 0 0 0 0 0 0 0 0 0 0 81 568 1024 1131 955 586 102 118 1102 684 278 1331 2130 1762 2254 2645 2942 3440 3723 3307 3660 3835 3990 4118 4116 4092 3993 3996
0 0 0 0 0 0 0 0 0 0 0 0 0 0 0 0 0 440 1355 1370 2431 2252 2174 1813 920 1774 2309 1942 1981 2659 2965 3170 3381 3413 3738 3792 3468 3962 3797 3837 4080 4147 4081 3980
0 0 0 0 0 0 0 0 0 0 0 0 0 0 0 0 0 45 391 1949 1847 2340 2891 2913 3427 3387 3334 3455 3265 2891 2861 3690 3945 3765 3729 3996 3961 3462 4082 3894 3879 3936 3964 3670
1 0 0 0 0 0 0 0 0 0 0 0 0 0 0 0 22 55 725 1606 1819 1852 2172 2214 2115 2177 2322 2344 3189 3497 3264 3337 3297 3279 3381 3660 4004 3723 3124 3042 2577 1940 1579 2024
0 0 0 0 0 0 0 0 0 0 0 0 0 0 0 0 90 106 589 1485 1494 1717 1701 1668 1700 1386 1281 1993 2435 2736 2973 3261 3323 3019 3207 3482 3216 3868 3771 1260 389 604 520 279
0 0 0 0 0 0 0 0 0 0 0 0 0 0 0 0 84 121 320 949 1164 1304 1287 1189 1233 1541 1863 2177 1805 1292 900 1132 1492 1536 1672 1945 2100 2050 2135 2187 2410 1878 191 0
6 0 0 0 0 0 0 0 0 0 0 0 0 0 0 0 38 256 494 1124 924 852 836 1085 1117 1019 849 986 1221 1367 1207 905 883 600 559 596 584 532 510 517 380 150 11 0
0 0 9 0 1 0 0 2 0 0 0 0 0 0 0 66 35 242 561 708 637 444 468 636 779 838 1056 1046 396 119 367 344 492 351 295 269 259 360 367 174 123 45 0 0
8 0 0 3 0 3 1 1 0 0 0 0 3 0 81 140 21 22 28 8 7 59 91 389 553 970 1073 748 875 707 169 260 186 104 150 174 163 122 45 39 7 0 0 0
11 7 10 7 4 4 4 2 8 30 5 0 22 57 90 100 39 2 9 0 0 0 0 0 97 160 7 283 427 386 540 397 357 67 22 30 36 1 0 0 0 0 1 0
16 5 7 3 4 3 10 2 2 3 3 1 1 3 2 2 0 1 0 0 0 0 0 0 0 0 0 68 219 146 106 233 247 89 6 10 0 1 2 2 1 2 9 11
31 7 9 26 2 2 8 5 2 4 5 2 2 2 0 1 2 1 0 1 0 0 0 0 0 0 0 0 9 4 0 5 2 0 0 0 0 3 1 1 1 1 1 1
25 37 16 10 3 2 3 1 3 2 3 0 3 3 3 3 3 1 1 0 0 0 0 0 0 0 0 0 0 0 0 0 0 0 0 0 1 1 1 1 2 2 1 1
22 18 37 16 0 0 0 0 0 0 3 2 3 4 2 2 1 0 0 1 0 0 0 0 0 0 0 0 0 0 0 0 0 0 4 1 0 1 3 3 2 2 3 3
22 3 30 10 0 0 0 0 0 0 0 7 7 0 0 0 0 0 0 0 0 0 0 0 0 0 0 0 0 0 0 0 0 4 4 0 0 0 0 0 1 2 3 3
0 1 0 5 37 0 0 0 0 0 0 0 0 0 0 0 0 0 0 0 0 0 0 0 0 0 0 0 0 0 0 0 0 0 0 0 0 0 0 0 0 0 0 0
0 10 0 0 6 13 4 9 8 3 0 0 0 0 0 0 0 0 0 0 0 0 0 0 0 0 0 0 0 0 0 0 0 0 0 0 0 0 0 0 0 0 0 0
0 4 4 1 0 0 0 0 0 0 0 0 0 0 0 0 0 0 0 0 0 0 0 0 0 0 0 0 0 0 0 0 0 0 0 0 0 0 0 0 0 0 0 0
0 0 3 1 4 0 0 0 0 0 0 0 0 0 0 0 0 0 0 0 0 0 0 0 0 0 0 0 0 0 0 0 0 0 0 0 0 0 0 0 0 0 0 0

GFSNGP_con_mlcape_039.txt.gz
CAPE
0 0 0 0 0 0 0 0 0 0 0 0 0 0 0 0 0 0 5 326 942 1185 1307 1573 1462 1236 1189 1115 1245 1537 2160 2336 2369 2464 2350 2334 2351 2443 2153 1549 2231 2210 2348 2396
0 0 0 0 0 0 0 0 0 0 0 0 0 4 0 0 0 0 26 202 526 975 1263 1538 1690 1602 1464 1457 1417 1466 1977 2229 2559 2554 2519 2313 2362 2296 2608 2565 2026 2259 2440 2311
0 0 0 0 0 1 0 0 0 0 0 0 0 1 0 0 0 0 0 0 0 0 500 1473 1708 1800 1788 1809 1680 1717 1715 2160 2447 2661 2555 2552 2428 2588 2549 2647 2834 2496 2238 2578
0 0 0 0 0 0 0 0 0 0 2 0 27 67 10 0 0 0 0 0 0 0 0 0 551 1932 1845 1902 2094 1959 1937 1955 2188 2541 2700 2651 2693 2612 2774 2821 2930 3036 3011 2734
0 0 0 0 0 0 11 9 3 106 110 23 23 2 31 82 150 191 143 94 127 147 37 0 0 6 2049 2060 2182 2325 2222 2217 2213 2540 2687 2855 2788 2925 2947 2964 3061 3099 3306 3264
0 0 0 0 0 0 0 3 0 28 250 21 4 5 95 43 104 286 397 430 240 119 147 143 316 270 1023 2195 2328 2347 2469 2613 2533 2563 2709 2758 2899 2915 3069 3216 3161 3246 3212 3434
0 0 0 0 0 0 0 0 0 0 0 0 0 0 0 1 121 635 904 863 815 440 259 303 277 299 863 1292 1976 2035 2272 2437 2773 2941 2948 3012 3034 3157 3267 3400 3487 3468 3515 3510
0 0 0 0 0 0 0 0 0 0 0 0 0 0 0 0 27 408 615 1246 1755 1220 743 273 139 1088 644 183 1415 2028 2254 2278 2169 2346 2637 3082 3277 3437 3601 3664 3693 3688 3722 3763
0 0 0 0 0 0 0 0 0 0 0 0 0 0 0 0 0 16 137 662 1769 2000 2238 2001 983 858 844 1446 1601 2103 1825 2058 2486 2565 2596 2616 2988 3326 3729 3918 3973 3940 3906 3923
0 0 0 0 0 0 0 0 0 0 0 0 0 0 0 0 0 14 0 110 1321 1866 2197 3103 2829 2325 2236 2423 2221 1504 2149 3013 2582 2940 3253 3176 3254 3382 3613 3906 3975 4021 4006 3915
0 0 0 0 0 0 0 0 0 0 0 0 0 0 0 0 0 50 13 0 141 1310 1749 2162 2367 2545 2509 2529 2799 2981 1624 2769 3440 3336 3363 3425 3435 3661 3731 3780 3836 3823 3759 3694
0 0 0 0 0 0 0 0 0 0 0 0 0 0 0 0 0 0 10 0 0 925 1392 1438 2016 1896 1696 1736 2324 2971 3394 3133 3809 3526 3536 3592 3704 3385 1252 2281 2312 2211 2103 3304
0 0 0 0 0 0 0 0 0 0 0 0 0 0 0 0 0 0 0 0 0 347 891 1428 1367 1368 1125 1301 1944 2416 2740 3346 3285 3423 3535 3513 3739 3659 2925 379 15 102 107 15
0 0 0 0 0 0 0 0 0 0 0 0 0 0 0 0 0 0 0 0 189 468 1079 1220 1114 1247 1521 1958 1927 1715 1264 1355 2328 2221 2411 2880 2929 2955 2941 2171 1605 542 0 0
0 0 0 0 0 0 0 0 0 0 0 0 0 0 0 0 0 0 2 67 457 939 998 1088 921 885 714 746 1094 943 1520 821 707 803 942 1071 847 922 953 783 403 85 0 0
1 1 1 0 0 0 0 0 0 0 0 0 0 0 0 0 0 0 5 132 663 848 777 732 657 711 981 1038 307 274 342 389 197 341 320 311 243 82 38 29 0 0 0 0
2 2 9 1 0 0 0 0 0 0 0 0 0 0 0 0 0 0 3 173 6 0 0 0 60 513 215 419 1030 307 290 226 153 97 80 44 12 0 0 0 0 0 0 0
1 6 3 2 1 0 2 3 4 0 0 0 0 0 0 0 0 0 0 0 0 0 0 0 0 0 211 372 500 538 169 95 29 0 0 0 0 0 0 0 0 0 0 0
1 1 5 2 3 2 5 5 0 0 0 0 0 0 2 3 3 3 0 0 0 0 0 0 0 0 13 33 69 63 0 0 0 0 0 0 0 0 0 0 0 0 0 0
0 0 0 7 0 1 2 7 5 2 1 3 3 0 0 2 2 2 2 1 3 1 0 0 0 0 0 0 0 0 0 0 0 0 0 0 0 0 0 0 0 1 0 1
4 0 0 0 2 5 5 0 3 2 2 3 3 3 2 2 2 2 2 1 2 1 0 0 0 0 0 0 0 0 0 0 0 0 0 0 1 2 2 2 2 2 3 2
27 2 0 0 0 0 3 2 1 0 0 2 2 3 1 0 0 1 2 4 2 0 0 1 1 0 0 0 0 0 0 0 0 0 0 0 0 1 1 3 3 4 4 4
6 30 0 0 0 0 0 0 0 0 0 8 2 0 1 1 0 0 0 0 0 0 0 0 0 0 0 0 0 0 0 0 0 0 0 0 0 0 0 0 0 0 1 4
0 4 33 1 0 0 0 3 3 0 0 0 0 0 0 0 0 0 0 0 0 0 0 0 0 0 0 0 0 0 0 0 0 0 0 0 0 0 0 0 0 0 0 0
15 0 0 0 11 2 0 0 0 0 0 1 0 0 0 0 0 5 0 0 0 0 0 0 0 0 0 0 0 0 0 0 0 0 0 0 0 0 0 0 0 0 0 0
0 16 17 0 0 0 0 0 0 0 0 0 0 0 0 0 0 0 0 0 0 0 0 0 0 0 0 0 0 0 0 0 0 0 0 0 0 0 0 0 0 0 0 0
0 0 0 0 1 0 0 0 0 0 0 0 0 0 0 0 0 0 0 0 0 0 0 0 0 0 0 0 0 0 0 0 0 0 0 0 0 0 0 0 0 0 0 0

GFSNGP_con_mlcape_042.txt.gz
CAPE
0 0 0 0 0 0 0 0 0 0 0 0 0 0 0 0 0 0 8 594 974 911 833 778 620 497 735 908 1229 1555 1615 1646 1555 1464 1626 1857 1652 1389 1182 1416 1749 1274 1029 1547
0 0 0 0 0 0 0 0 0 0 0 0 0 0 0 0 0 0 0 536 1058 1034 1005 961 816 667 744 865 1072 1434 1590 1646 1689 1779 1706 1748 1929 1850 1647 1462 1304 1717 1766 1680
0 0 0 0 0 0 0 0 0 0 0 0 2 0 1 0 0 0 18 558 1062 1132 1122 1141 1041 877 796 894 981 1406 1550 1693 1882 1912 2065 2040 2032 2094 2101 1871 1700 1239 1434 1789
0 0 0 0 0 0 0 0 0 0 0 25 106 170 152 141 27 0 0 84 505 918 1161 1323 1311 1132 984 949 1027 1135 1486 1789 1922 2198 2180 2258 2226 2163 2136 2237 2247 2002 1584 1627
0 0 0 0 0 0 0 0 0 0 111 231 179 50 182 309 383 263 92 21 82 149 347 996 1605 1649 1464 1355 1355 1315 1366 1477 2011 2176 2390 2383 2410 2330 2299 2340 2351 2434 2413 2213
0 0 0 0 0 0 0 0 0 0 0 51 43 23 54 200 371 642 1021 571 149 114 143 208 226 1049 1760 1820 1806 1712 1650 1692 1692 2191 2356 2468 2439 2489 2495 2510 2587 2579 2610 2728
0 0 0 0 0 0 0 0 0 0 0 0 0 0 0 1 173 336 731 1382 1551 908 446 234 354 266 776 1795 1997 2053 2000 1837 1860 1869 2218 2414 2541 2586 2645 2718 2657 2707 2767 2790
0 0 0 0 0 0 0 0 0 0 0 0 0 0 0 0 0 42 373 1085 1699 2177 1439 1019 330 740 409 1022 1963 2114 2100 2270 2210 2214 2210 2420 2512 2649 2726 2724 2867 2914 2884 2949
0 0 0 0 2 0 0 0 0 0 0 0 0 0 0 0 0 0 0 105 1033 1750 2428 2467 2010 1902 1799 1980 1805 2016 2309 2450 2458 2609 2689 2717 2704 2699 2796 2900 2958 3065 3144 3177
0 0 0 0 0 0 0 0 0 0 0 0 0 0 0 0 0 0 0 0 243 1191 1381 2021 2081 2284 2247 2191 2254 2258 1145 2240 2267 2415 2554 2681 2894 2906 2962 3131 3257 3336 3441 3493
0 0 0 0 0 0 0 0 0 0 0 0 0 0 0 0 0 0 0 0 0 407 818 1378 1766 1608 1447 1315 1423 2331 2541 1979 1652 2587 2087 2238 2413 2434 3070 3240 3330 3424 3612 3709
1 0 0 0 0 0 0 0 0 0 0 0 0 0 0 0 0 0 0 0 0 4 363 775 1381 1151 1069 965 1217 1495 2421 2710 2902 2847 2985 3100 2466 1835 550 1207 2276 3144 3312 3527
2 2 0 0 0 0 0 0 0 0 0 0 0 0 0 0 0 0 0 0 0 67 318 805 1089 1049 1052 1165 1586 1631 1615 1677 2547 3415 3604 3467 3262 2574 2186 396 9 257 1093 1422
1 1 0 0 0 0 0 0 0 0 0 0 0 0 0 0 0 0 0 0 0 0 509 801 1093 872 716 796 975 1077 1040 1073 1934 2899 3469 3557 3424 2464 1523 1692 1522 510 0 0
1 0 1 0 0 0 0 0 0 0 0 0 0 0 0 0 0 0 0 0 0 271 623 823 991 889 716 706 563 589 1130 990 1181 1524 1844 2221 2573 2622 2103 1454 529 17 0 0
0 1 1 1 0 0 0 0 0 0 0 0 0 0 0 0 0 0 0 0 5 8 0 20 209 334 591 555 670 575 327 472 513 522 627 901 1354 1394 872 279 1 0 0 0
1 1 1 2 2 0 1 0 0 0 0 0 0 0 0 0 0 0 0 0 0 0 0 0 0 0 56 176 474 629 226 165 122 129 90 22 0 0 0 0 0 0 0 0
0 1 0 2 2 3 2 2 1 1 4 6 2 0 0 0 0 0 0 0 0 0 0 0 0 0 20 246 394 398 5 0 0 0 0 0 0 0 0 0 0 0 0 0
0 0 1 0 2 4 4 4 3 2 2 1 0 0 1 1 2 2 2 0 0 0 0 0 0 0 0 12 194 160 1 0 0 0 0 0 0 0 0 0 0 0 0 0
0 0 0 0 0 0 2 3 2 2 3 2 2 2 2 3 2 3 1 3 3 1 2 1 0 0 0 0 0 0 0 0 0 0 0 0 0 0 0 0 0 0 1 2
0 0 0 0 0 0 0 0 1 2 2 1 2 2 2 3 4 2 1 0 0 1 2 3 2 0 0 0 0 0 0 0 0 0 0 0 0 0 2 1 1 1 1 1
13 0 0 0 0 0 0 0 0 0 0 0 0 0 1 2 2 2 3 1 1 0 1 2 2 3 3 1 0 0 0 0 1 2 0 0 0 1 2 2 3 4 3 2
22 13 2 0 0 0 0 0 0 0 0 1 4 4 5 5 2 2 0 0 0 0 0 1 1 0 0 2 2 0 0 0 0 0 0 0 0 0 0 0 0 0 1 1
0 12 5 7 0 0 0 0 0 0 0 0 0 2 2 0 0 0 0 0 0 0 0 0 0 1 2 0 0 0 0 0 0 0 0 0 0 0 0 0 0 0 0 0
2 0 0 0 1 0 0 0 0 0 0 0 0 0 0 0 0 0 0 0 0 0 0 0 0 0 0 0 0 0 0 0 0 0 0 0 0 0 0 0 0 0 0 0
0 0 0 0 0 0 0 0 0 0 0 0 0 0 0 0 0 0 0 0 0 0 0 0 0 0 0 0 0 0 0 0 0 0 0 0 0 0 0 0 0 0 0 0
0 0 0 0 0 0 0 0 0 0 0 0 0 0 0 0 0 0 0 0 0 0 0 0 0 0 0 0 0 0 0 0 0 0 0 0 0 0 0 0 0 0 0 0

GFSNGP_con_mlcape_048.txt.gz
CAPE
0 0 0 0 0 0 0 0 0 0 0 0 0 0 0 0 0 0 0 0 0 2 73 114 287 208 370 397 332 280 285 437 486 447 430 429 498 627 663 408 357 383 372 364
0 0 0 0 0 0 0 0 0 0 0 0 0 0 0 0 0 0 0 0 0 0 37 164 288 316 336 459 465 369 331 400 510 536 509 462 396 445 701 822 720 643 592 578
0 0 0 0 0 0 0 0 0 0 0 0 0 0 0 0 0 0 0 0 0 0 13 198 308 342 334 471 566 536 475 430 488 618 710 702 650 557 502 551 822 842 815 788
0 0 0 0 0 0 0 0 0 0 0 37 125 98 8 0 0 0 52 0 0 24 141 240 324 334 306 461 666 653 616 656 700 752 843 909 967 949 865 725 688 903 1002 960
0 0 0 0 0 0 0 0 0 0 0 0 0 3 232 0 0 18 232 120 0 150 234 273 361 339 355 578 713 851 843 876 934 990 982 1039 1131 1154 1153 1136 1054 969 1059 1178
0 0 0 0 0 0 0 0 0 0 0 0 27 82 3 0 0 51 236 697 208 328 358 364 378 358 464 654 825 1033 1056 1134 1269 1283 1235 1204 1184 1252 1424 1522 1436 1403 1370 1342
0 0 2 1 0 0 0 0 0 0 0 0 0 0 0 0 0 4 118 591 675 500 577 547 500 464 561 662 847 981 1197 1370 1462 1527 1519 1510 1501 1533 1610 1702 1805 1862 1833 1809
1 0 1 0 0 0 0 0 0 0 0 0 0 0 0 0 0 2 121 366 663 1025 929 543 566 621 674 741 746 835 1035 1234 1433 1550 1694 1777 1810 1917 1947 1924 1966 2023 2073 2151
0 0 1 0 0 0 0 0 0 0 0 0 0 0 0 0 0 0 0 146 461 927 992 858 1048 1008 1048 1319 1162 990 989 1116 1265 1491 1661 1900 1941 1963 2073 2147 2186 2218 2269 2312
0 2 1 3 0 0 0 0 0 0 0 0 0 0 0 0 0 0 0 0 55 491 705 786 957 1374 1654 1892 1949 1860 1622 1463 1318 1416 1569 1815 2031 2126 2141 2240 2330 2366 2364 2393
0 3 1 3 0 0 0 0 0 0 0 0 0 0 0 0 0 0 0 0 0 195 566 616 663 859 1058 1217 1600 1976 2057 2104 2151 2029 1734 1737 1707 1852 2300 2390 2314 2408 2482 2525
0 3 3 2 0 0 0 0 0 0 0 0 0 0 0 0 0 0 0 0 0 9 335 564 652 734 1010 1023 909 989 1296 1658 1832 2266 1912 2241 1638 1133 150 517 1065 1530 1974 2541
4 1 2 1 0 0 0 0 0 0 0 0 0 0 0 0 0 0 0 0 0 0 1 191 508 432 306 235 247 227 399 556 905 1345 2435 2267 1677 1648 1691 274 141 655 1359 2082
0 0 2 2 3 1 1 0 0 0 0 0 0 0 0 0 0 0 0 0 0 0 0 0 9 303 3 52 321 202 444 700 840 969 1476 2467 2224 1861 1460 1489 1743 1189 49 745
0 1 1 1 1 1 0 0 0 0 0 0 0 0 0 0 0 0 0 0 0 0 0 0 0 0 0 0 0 267 270 786 841 1105 1296 2295 2376 1833 1284 963 909 621 92 2
5 0 2 1 1 2 2 0 2 0 0 0 0 0 0 0 0 0 0 0 0 0 0 0 0 0 0 0 0 13 298 334 551 744 1176 1595 1665 1468 758 396 262 101 9 2
0 0 2 2 0 1 3 4 4 3 3 2 0 0 0 0 0 0 0 0 0 0 0 0 0 0 0 0 0 8 250 260 309 396 679 813 706 584 87 0 0 0 0 0
1 2 2 2 2 0 0 3 3 2 2 3 3 1 0 0 0 0 0 0 0 0 0 0 0 0 0 0 0 0 100 160 154 207 207 241 175 42 1 0 0 0 0 0
0 0 0 0 0 3 2 2 2 2 2 2 2 2 3 3 1 1 2 2 0 0 0 0 1 0 0 0 0 0 22 69 26 2 2 0 4 5 3 2 1 1 0 1
0 0 0 0 0 0 0 1 1 1 2 1 2 2 1 2 3 0 1 2 2 3 2 1 2 0 0 0 0 0 10 21 4 0 0 1 3 3 2 1 0 0 1 2
0 0 0 0 0 0 0 0 0 0 0 2 0 0 2 1 1 3 2 2 2 2 2 3 3 2 0 2 0 0 0 0 1 2 2 1 1 2 2 3 4 4 1 3
6 0 0 0 0 0 0 0 0 0 0 0 0 0 0 0 1 1 1 1 2 2 2 2 3 3 2 0 2 1 2 2 3 3 4 4 4 4 5 6 6 6 5 5
1 5 0 0 0 0 0 0 0 0 0 0 0 0 0 1 1 0 1 0 0 1 2 2 4 3 4 3 4 5 5 4 4 4 5 5 4 4 2 2 1 1 1 0
0 0 1 3 0 0 0 0 0 0 0 0 0 0 0 0 0 0 2 2 0 0 1 4 4 3 2 2 2 3 4 5 6 5 5 4 4 0 0 0 0 0 0 0
0 0 0 0 0 0 0 0 0 0 0 0 0 0 0 0 0 0 0 0 1 0 0 0 2 1 2 1 1 2 3 3 2 0 1 0 0 0 0 0 0 0 0 0
0 0 0 0 0 0 0 0 0 0 0 0 0 0 0 0 0 0 0 0 0 0 0 0 2 2 0 1 1 1 2 2 2 2 1 1 0 0 0 0 0 0 0 0
0 0 0 0 0 0 0 0 0 0 0 0 0 0 0 0 0 0 0 0 0 0 0 0 4 2 2 0 0 0 0 0 0 1 1 0 0 0 0 0 0 0 0 0

GFSNGP_con_mlcape_051.txt.gz
CAPE
0 0 0 0 0 0 0 0 0 0 0 0 0 0 0 0 0 0 0 0 8 66 134 299 698 697 766 783 635 523 519 535 562 574 606 613 682 713 750 754 706 629 635 701
0 0 0 0 0 0 0 0 0 0 0 0 0 0 0 0 0 0 0 24 1 0 99 194 319 675 666 781 764 680 660 686 712 722 715 737 810 883 904 844 833 859 860 872
0 0 0 0 0 0 0 0 0 0 0 0 0 0 0 0 0 0 0 6 61 28 0 106 148 527 604 755 851 800 749 806 910 916 882 901 952 1053 1132 1098 1038 929 956 1036
0 0 1 4 0 0 0 0 0 0 0 0 3 125 15 0 0 0 0 0 22 220 4 6 136 362 635 832 904 883 825 855 1009 1056 1036 1063 1095 1126 1162 1343 1423 1317 1275 1311
1 6 0 40 0 0 0 0 0 0 0 0 0 276 246 0 0 0 0 15 300 613 58 13 325 567 728 955 1013 944 875 907 982 1107 1126 1205 1202 1163 1125 1111 1153 1264 1482 1536
1 0 21 2 0 0 0 0 0 0 0 0 98 245 1 0 0 0 1 187 626 277 106 219 567 740 844 966 1073 982 975 1059 1047 1084 1169 1316 1355 1362 1411 1402 1302 1286 1316 1568
6 2 1 1 3 0 0 0 0 0 0 0 0 0 0 0 0 0 94 318 1082 613 543 607 737 767 797 1022 1111 1205 1305 1324 1348 1312 1342 1447 1563 1719 1799 1800 1808 1816 1709 1772
2 2 0 2 0 0 0 0 0 0 0 0 0 0 0 0 0 2 40 302 735 969 643 797 741 768 896 988 1330 1506 1591 1546 1580 1582 1572 1713 1786 1876 1962 2083 2141 2203 2195 2216
0 0 3 12 3 2 8 2 0 0 0 0 0 0 0 0 0 0 20 183 691 1010 1004 1276 1004 1106 1157 1338 1480 1544 1639 1717 1822 1936 1941 2072 2122 2119 2127 2248 2217 2378 2447 2477
1 2 5 1 3 8 0 6 0 0 0 0 0 0 0 0 0 0 0 75 583 991 1103 1211 1499 1622 1842 1753 1461 1334 1468 1695 1842 1933 2019 2169 2331 2393 2423 2502 2508 2530 2648 2686
0 2 6 5 13 6 2 4 2 0 0 0 0 0 0 0 0 0 0 0 75 507 695 857 1068 1161 1207 1661 2398 1969 1690 1544 1602 1810 1855 2304 2380 2411 2508 2634 2634 2740 2804 2888
0 3 3 4 5 4 3 3 3 0 0 0 0 0 0 0 0 0 0 0 0 0 135 581 591 403 382 405 575 1412 2044 2251 2278 1962 1562 1858 2503 1497 278 606 1148 1673 2137 2713
5 2 7 3 3 3 3 3 5 3 0 0 0 0 0 0 0 0 0 0 0 0 0 0 189 131 24 26 361 336 411 663 1198 1581 1924 1695 2434 1868 1754 323 87 515 1041 1704
6 3 2 2 3 2 3 1 2 3 3 0 0 0 0 0 0 0 0 0 0 0 0 0 0 0 0 0 22 315 626 429 893 1266 2019 2516 2252 2049 2137 1998 1952 1343 243 697
6 6 8 7 3 2 1 0 1 2 2 3 1 0 0 0 0 0 0 0 0 0 0 0 0 0 0 0 0 20 503 663 1092 1525 1537 2215 2031 1886 1933 1908 1932 830 348 185
0 2 3 6 3 3 3 3 2 1 1 3 3 3 2 2 2 0 0 0 0 0 0 0 0 0 0 0 0 0 269 379 330 1170 1246 1586 1686 1808 1738 1537 1200 1043 831 482
0 0 0 1 2 4 4 5 4 4 3 2 2 3 4 2 0 0 0 0 0 0 0 0 0 0 0 0 0 0 2 500 234 834 1100 1071 1113 1122 972 975 883 616 251 2
0 0 0 0 1 2 4 4 3 4 4 4 4 4 4 2 2 3 2 1 0 0 0 0 2 0 0 0 0 0 0 123 480 649 740 536 496 287 172 46 1 0 0 0
0 0 0 0 0 1 2 2 2 3 4 3 3 3 3 2 3 2 3 3 3 2 2 2 2 1 0 0 0 0 0 84 292 379 387 75 134 23 3 1 1 2 2 2
0 0 0 0 0 0 0 0 1 1 2 3 1 0 1 3 3 2 2 2 3 3 2 3 0 1 1 0 0 0 2 35 227 137 4 19 4 4 4 1 0 2 2 4
10 0 0 3 2 1 0 0 0 0 3 0 1 1 1 1 1 2 2 2 3 1 2 3 3 1 1 0 1 4 2 1 3 5 6 5 5 6 4 3 1 1 2 3
51 36 5 2 4 10 14 18 1 0 0 0 0 0 0 0 0 1 1 3 2 1 3 2 2 4 2 1 1 2 1 1 2 4 4 5 4 4 7 6 7 5 6 5
19 57 59 43 27 15 10 10 10 13 2 0 0 1 2 3 5 3 0 0 0 1 2 3 4 4 5 3 5 6 6 6 5 5 5 5 5 6 6 6 6 4 3 4
14 37 29 44 44 8 0 0 0 0 0 0 0 0 0 0 8 8 15 5 0 2 3 3 3 4 2 2 2 2 3 4 5 5 5 5 5 4 3 2 1 0 0 0
0 0 0 0 0 0 0 0 0 0 0 0 0 0 0 0 0 0 17 18 7 1 2 2 4 2 1 2 3 2 1 1 1 1 2 2 2 2 0 0 0 0 0 0
0 0 0 0 0 0 0 0 0 0 0 0 0 0 0 0 0 0 5 7 12 7 5 0 0 2 2 2 2 1 2 2 2 2 2 1 1 0 0 0 0 0 0 0
0 0 0 0 0 0 0 0 0 0 0 0 0 0 0 2 0 0 1 6 9 10 7 6 5 2 1 1 1 2 2 1 1 2 1 1 1 1 0 0 0 0 0 0

GFSNGP_con_mlcape_054.txt.gz
CAPE
0 0 0 0 0 0 0 0 1 4 24 22 0 0 0 0 0 0 0 0 3 71 270 724 1007 1309 1300 1006 919 759 913 811 959 1197 1157 1194 1346 1461 1413 1490 1537 1620 1568 1418
0 0 0 0 0 0 0 0 0 0 0 13 0 0 0 0 0 16 0 70 29 5 228 490 812 1313 1495 1433 1184 1076 1227 1143 1236 1557 1473 1478 1555 1682 1697 1603 1594 1715 1589 1545
0 0 0 0 0 0 0 0 0 0 0 0 0 0 79 53 61 83 32 103 152 226 161 78 601 1005 1375 1674 1396 1316 1519 1486 1501 1707 1710 1717 1761 1826 1758 1748 1760 1878 1799 1715
0 0 0 0 0 0 0 0 0 0 0 5 0 8 390 13 0 40 3 20 139 292 409 647 91 388 1008 1373 1607 1667 1782 1717 1732 1863 1880 1956 1963 1963 2024 1910 1948 1970 1986 2052
10 1 0 9 113 52 98 43 17 1 0 0 0 130 650 0 0 5 0 27 110 223 536 811 945 113 568 1119 1516 1791 1875 1863 1928 1989 1954 1958 1987 2037 2030 2092 2111 2094 2097 2163
13 4 1 7 0 2 0 71 0 0 0 0 0 0 28 0 0 9 56 202 295 659 1032 1049 1123 157 390 1010 1300 1842 1883 1922 2022 2078 2135 2101 2154 2195 2268 2190 2232 2169 2231 2340
21 15 2 0 0 1 7 21 0 0 0 0 90 0 0 0 0 0 7 372 830 1416 1274 903 716 182 718 1173 1431 1802 1711 1712 1884 2125 2264 2309 2415 2446 2400 2211 2084 2219 2169 2297
12 19 18 0 0 2 1 11 3 3 1 0 0 0 0 0 0 0 5 750 1381 1396 1142 674 656 633 1402 1578 1556 1764 1749 1782 2067 2197 2085 2144 2534 2519 2470 2452 2439 2534 2441 2416
22 15 3 3 3 3 10 14 16 3 2 0 0 0 0 0 0 0 0 109 1271 1577 1475 1236 1068 1118 1451 1751 1789 1921 1962 2101 2123 2215 2206 2251 2514 2671 2631 2705 2578 2576 2589 2544
1 7 5 8 10 10 13 19 17 2 0 0 0 0 0 0 0 0 0 0 54 1071 1371 1784 1756 1675 1779 2001 2002 2134 2228 2317 2384 2536 2484 2294 2502 2645 2558 2563 2611 2542 2642 2644
0 1 1 8 7 6 11 17 9 3 1 0 0 0 0 0 0 0 0 0 0 0 531 599 709 940 1390 2138 2096 2247 2384 2458 2620 2662 2606 2751 2696 2492 2751 2713 2166 2814 2720 2877
1 3 4 5 10 5 4 8 16 6 1 0 0 0 0 0 0 0 0 0 0 0 0 13 32 185 489 1238 1708 2410 2233 2212 2309 2368 2683 2728 2876 2286 557 844 1186 1633 1744 2349
3 4 6 5 8 7 4 10 10 5 10 1 1 0 0 0 0 3 0 0 0 0 0 0 0 2 36 311 1091 1484 2012 2673 2650 2254 2449 2684 2508 2522 1685 931 883 1210 1508 1904
7 3 6 6 7 10 4 6 5 3 3 8 6 2 0 0 1 5 0 0 0 0 0 0 0 0 0 12 411 1148 993 1102 2192 1747 275 204 112 252 0 117 2124 2293 984 1213
4 4 9 10 13 11 8 7 2 4 4 5 3 9 7 11 4 1 0 0 0 0 0 0 0 0 0 0 21 568 960 1071 1575 1390 563 316 308 175 317 767 2625 2840 1103 146
8 4 2 1 4 4 8 7 4 5 4 4 4 5 3 6 12 8 2 0 0 0 0 0 0 0 0 0 0 77 403 328 739 1641 1534 563 418 362 1947 2548 2765 2564 1676 1120
3 4 2 3 0 2 4 5 6 6 6 5 4 4 5 5 5 4 4 5 3 6 5 0 0 0 0 0 0 0 22 334 394 1054 1388 1477 1429 1443 1767 2215 2419 2515 1983 150
14 9 9 13 5 1 4 4 3 4 3 4 5 5 4 3 4 4 5 3 3 0 1 3 1 0 0 0 0 0 0 20 376 681 1031 914 817 601 730 1373 788 157 2 1
19 17 16 12 21 21 14 7 0 0 1 1 2 3 3 3 3 2 5 3 3 3 3 3 2 0 0 0 0 0 0 0 24 359 840 462 610 466 297 219 263 49 11 5
43 32 22 30 23 23 24 14 9 0 0 0 1 2 3 4 2 3 4 4 3 4 3 3 3 0 0 0 0 0 0 0 30 217 245 401 511 312 106 0 0 0 0 0
33 51 29 17 22 18 17 24 19 8 15 6 1 0 0 0 0 0 3 3 3 3 4 4 3 2 5 1 0 0 0 5 4 2 2 2 1 1 1 1 1 1 2 0
11 18 30 14 9 6 8 7 12 20 14 2 4 8 6 3 4 6 1 2 2 2 2 2 3 4 4 4 5 6 6 3 5 3 2 1 1 4 3 2 2 2 1 2
22 16 7 10 8 8 0 0 3 3 8 11 12 12 13 14 11 8 2 1 2 2 6 4 5 4 3 2 3 4 6 9 11 9 8 7 6 5 5 5 3 1 1 0
34 38 29 10 5 0 0 0 0 0 3 4 8 9 5 0 5 1 9 0 0 2 6 6 3 4 3 3 2 3 2 3 3 3 4 6 5 4 5 4 3 0 0 0
33 28 46 18 8 3 0 0 0 2 4 3 3 11 13 19 15 12 6 8 0 0 2 5 4 3 2 2 2 2 2 1 2 2 2 2 3 2 1 0 0 0 0 0
26 33 33 5 0 1 3 6 6 1 7 9 8 10 14 13 9 7 6 5 6 1 0 2 2 1 1 1 2 2 2 2 1 1 2 2 1 0 0 0 0 0 0 0
8 3 22 13 14 7 2 0 14 11 4 13 12 19 22 12 5 9 4 10 4 4 3 2 3 6 11 10 11 8 1 0 0 0 1 1 1 0 0 0 0 0 0 0

GFSNGP_con_mlcape_057.txt.gz
CAPE
0 0 0 0 0 5 46 50 16 7 3 22 27 0 28 0 0 0 3 23 70 154 517 1157 1198 1575 1505 1195 1148 975 998 1009 1171 1507 1668 1766 1554 1916 1964 2138 2271 2385 2453 2349
0 0 0 0 0 0 0 0 0 0 0 0 0 54 22 0 11 10 0 0 0 57 253 562 932 1575 1833 1544 1470 1216 1275 1168 1183 1563 1774 1746 1708 1874 2094 2183 2330 2475 2404 2468
21 1 0 0 0 0 0 0 0 0 0 0 0 0 20 80 96 84 73 26 53 85 62 193 566 1076 1556 1867 1611 1587 1562 1593 1441 1671 1839 1836 1871 1987 2178 2251 2352 2515 2566 2554
20 9 4 0 0 0 0 0 0 0 0 0 0 0 2 614 290 160 181 161 201 297 300 282 333 631 978 1560 1932 1827 1830 2075 1739 2017 2054 2090 2164 2231 2383 2492 2364 2539 2611 2644
35 19 5 0 35 84 2 0 5 4 0 0 0 0 0 29 329 382 403 434 394 363 344 454 628 384 456 1163 2124 2032 2320 2035 2262 2103 2417 2491 2433 2493 2684 2690 2661 2615 2774 2792
31 23 11 4 92 1 14 0 57 138 3 3 5 11 8 160 53 96 200 433 647 733 736 825 942 977 888 611 1525 2287 2364 2313 2462 2373 2628 2750 2815 2870 2911 2842 2826 2506 2667 3010
3 39 38 184 30 0 0 0 0 16 27 84 73 210 80 0 0 0 2 301 495 1229 1298 1422 1594 1336 1225 693 1145 2037 2384 2538 2810 2697 2812 3007 3129 3145 3176 3137 2558 2938 2780 2936
42 74 24 160 21 0 0 0 0 2 0 1 3 0 0 0 0 0 0 0 68 1512 1890 1768 1693 1714 1817 1543 1095 1959 2286 2558 2775 2937 2719 2757 3148 3263 3250 3217 3100 3299 3169 3227
64 34 201 51 9 12 0 0 1 15 3 5 2 0 0 0 0 0 0 0 2 819 2522 2318 1611 1050 1576 1411 1739 2193 2449 2660 2782 2937 3018 2827 3143 3350 3193 3220 2776 2730 2864 2653
1 26 3 2 2 1 0 0 1 20 11 6 9 5 0 0 0 1 0 0 2 77 687 1438 1624 2078 2029 2171 2176 2573 2632 2763 2860 2913 3010 2897 3020 3151 2916 2750 2729 2611 2510 2443
0 1 0 2 6 7 2 5 26 24 3 2 2 12 0 0 0 13 3 4 2 3 4 4 32 428 915 1845 2355 2331 2666 2653 2754 2712 2713 2877 2927 2828 2747 2720 2473 2605 2255 1925
0 1 3 3 7 8 5 28 15 8 3 3 3 5 1 0 1 35 3 11 0 1 0 1 0 0 18 420 1875 2411 2583 2692 2671 2598 2776 2806 2813 2105 806 1295 1276 1470 1384 1842
3 5 2 7 10 12 8 28 14 1 2 6 3 5 0 0 25 12 13 0 19 7 0 0 2 0 0 0 492 2226 2481 2775 2850 2710 2911 3013 2897 2673 2380 1247 1096 1294 1615 1886
3 1 3 6 6 10 15 21 7 3 1 3 2 8 7 15 0 0 0 4 11 1 0 0 0 0 0 0 0 789 2022 2395 2684 2622 2875 3039 3022 2894 2725 2471 1981 2008 1138 1352
10 6 10 17 11 12 9 14 9 4 2 3 1 1 1 4 9 7 1 0 3 1 0 0 0 0 0 0 0 108 587 1082 1804 1984 2537 2259 1376 970 703 498 590 464 844 777
19 8 6 4 7 8 12 5 5 3 3 3 4 3 2 2 0 0 3 2 4 4 3 0 0 0 0 0 0 0 103 335 852 1219 830 902 810 847 615 345 105 0 8 301
11 18 10 10 4 9 8 9 8 7 4 4 5 4 3 1 4 2 0 2 4 4 3 3 1 0 0 0 0 0 0 123 459 1140 1542 777 1134 541 707 929 1684 1103 606 710
13 15 17 21 20 11 12 1 1 3 4 6 5 3 2 3 1 3 2 4 4 4 3 3 0 0 0 1 0 0 0 0 26 869 1048 1375 1391 1111 494 1319 1763 1496 965 384
5 8 8 8 9 15 19 17 0 0 0 4 6 4 1 2 1 3 5 1 2 4 3 4 2 0 0 0 0 0 0 0 0 407 584 654 846 781 730 941 1150 981 533 328
33 8 6 12 5 8 15 8 2 1 0 9 14 13 14 15 16 4 1 4 2 4 6 5 5 3 3 0 0 0 0 0 1 75 278 225 145 204 95 15 21 56 29 189
28 21 4 6 11 10 8 7 12 6 3 0 4 1 4 1 13 6 2 2 1 6 2 4 4 4 3 1 0 0 0 2 0 0 1 1 0 0 0 0 0 0 0 0
31 30 12 2 11 7 7 8 11 14 10 6 1 11 9 8 7 5 2 2 4 4 1 3 3 5 3 3 3 5 6 6 6 6 4 2 4 2 0 0 1 0 0 0
48 45 24 11 10 12 14 12 10 16 18 18 13 6 4 8 6 10 1 2 4 4 5 6 8 5 3 2 2 3 4 5 8 9 9 9 9 7 6 6 2 0 0 0
29 49 39 40 15 18 20 13 10 12 13 8 17 20 8 10 4 8 1 0 0 1 4 5 3 5 3 2 2 2 3 3 2 2 3 3 4 3 4 4 5 0 0 0
85 39 30 20 25 15 12 5 8 10 13 6 9 13 4 13 16 15 11 1 0 0 0 0 3 3 3 1 1 3 2 2 1 1 1 1 2 2 1 1 1 1 0 0
81 49 19 6 0 8 17 10 12 10 12 20 13 14 9 12 22 19 13 15 12 1 12 9 7 6 5 4 4 2 0 0 1 2 1 0 0 0 1 1 1 0 1 1
73 6 72 33 7 6 1 0 12 11 1 3 17 30 18 23 17 14 5 12 8 7 3 1 2 1 0 1 2 7 2 0 0 0 2 1 0 1 3 1 0 0 0 1

GFSNGP_con_mlcape_060.txt.gz
CAPE
0 0 0 0 0 0 0 0 0 0 0 0 2 0 2 15 16 0 0 15 12 89 527 1071 1150 1170 1129 1130 983 1034 1100 1380 1627 1734 1598 1592 1350 1421 741 1462 1911 2022 2074 2294
0 0 0 0 0 0 0 0 0 1 0 0 0 2 0 0 40 243 56 47 19 24 130 541 1240 1460 1427 1286 1284 1168 1124 1314 1415 1690 1699 1673 1438 1522 1646 1476 1716 2118 2303 2335
2 17 1 0 0 0 0 0 0 0 0 0 0 0 0 1 16 282 513 262 308 241 265 270 274 545 1782 1727 1460 1417 1362 1340 1400 1659 1796 1700 1846 1506 2003 1837 2052 2172 2317 2455
10 8 11 0 0 0 0 0 0 0 0 0 0 0 0 0 1 39 354 431 285 240 204 195 1 39 2071 2061 1839 1846 1530 1673 1532 1514 1712 1905 1890 2046 1831 2214 2114 2304 2402 2466
1 16 0 0 6 63 87 0 0 0 0 0 0 0 0 80 193 54 18 3 324 384 412 554 645 741 1020 2073 2081 1765 2102 1699 1965 1578 1827 1912 2039 1993 2130 2126 2353 2362 2548 2596
36 4 4 0 43 11 7 0 44 0 0 0 0 4 25 45 9 0 0 0 128 430 626 914 849 863 858 981 2536 2089 1783 2250 1950 2050 1870 2112 2134 2162 2236 2286 2362 2538 2498 2654
31 33 17 128 95 25 4 0 0 0 0 0 0 7 4 39 0 0 0 1 2 37 332 869 1781 1383 1068 937 1121 2631 2265 1926 2467 2470 2092 2397 2421 2427 2500 2559 2646 2710 2718 2775
40 16 6 211 51 27 37 2 0 0 0 0 0 0 0 0 0 0 0 0 1 3 339 1996 2524 2401 1588 1508 1183 1588 2660 2406 2421 2517 2724 2499 2855 2914 2822 2843 2897 2904 2946 3011
0 16 109 62 28 2 2 2 0 0 0 0 0 3 1 1 1 1 2 0 1 3 122 159 408 1512 2824 2361 2111 1560 2045 2669 2654 2923 2903 2739 3005 3119 3231 3178 3164 3090 3074 3194
0 16 3 0 1 3 2 5 1 0 0 0 0 1 1 5 0 0 3 2 0 4 2 3 2 3 602 1322 2640 2463 1543 3010 2858 3156 3139 2970 3074 3240 3347 3327 3318 3265 2998 3301
1 3 0 4 1 2 3 1 0 0 0 0 10 0 3 0 0 0 1 0 1 1 1 1 2 4 5 155 1156 2446 2379 3082 3170 3244 3099 3171 2834 3311 3321 3233 3228 3197 3169 2868
0 2 3 1 2 2 1 0 0 9 3 16 13 0 2 0 0 7 0 0 2 0 0 0 2 3 7 1 119 1733 3296 3301 3188 3176 3163 3204 2889 2520 1554 2667 2348 2777 2534 2897
0 3 7 6 2 7 6 11 19 4 2 10 7 2 2 0 3 0 0 0 2 1 0 0 0 2 4 0 0 411 1752 2889 2918 2772 2915 2991 2956 2724 2338 1053 521 896 1660 1735
2 0 0 7 5 12 13 10 16 9 4 3 1 0 0 2 3 0 0 0 0 0 0 0 0 0 0 3 0 1 590 1440 2502 2647 2540 2842 2907 2997 2364 2153 2088 1747 647 831
2 3 0 2 4 5 10 8 12 5 3 2 4 2 0 3 1 2 0 0 2 0 0 0 0 0 0 1 0 2 0 66 556 1643 1925 2163 2666 3085 2803 2614 2546 2431 1354 599
11 12 12 7 7 0 4 7 6 6 2 2 2 3 2 3 0 0 0 0 3 3 0 0 0 0 0 1 0 2 0 0 90 614 817 599 1407 1375 1928 2088 2068 1615 1094 1068
3 10 1 8 22 2 0 1 7 10 11 10 6 2 3 1 3 0 1 0 2 3 1 1 1 0 0 0 0 0 0 0 0 433 289 459 784 528 457 506 511 284 186 72
0 1 2 5 16 23 2 0 0 3 11 12 14 6 0 0 2 3 1 1 0 0 1 1 0 0 0 0 0 0 0 0 13 511 567 758 792 859 743 314 378 502 322 154
12 6 5 15 8 14 32 16 3 6 5 5 11 12 20 10 2 3 2 1 2 3 2 2 4 0 0 0 0 0 0 0 0 0 119 280 188 0 4 58 134 179 281 624
50 37 40 16 7 24 22 15 24 28 11 2 5 6 15 14 2 2 2 2 3 2 1 2 1 1 2 0 0 0 0 1 0 0 0 0 2 1 0 0 0 0 0 2
28 54 51 52 22 5 14 11 24 21 21 9 21 11 2 8 1 0 2 3 2 2 2 5 3 2 2 2 0 1 1 2 0 0 0 0 0 0 0 1 4 4 1 0
46 28 28 41 26 21 8 13 9 20 29 13 24 44 20 3 0 1 0 1 2 4 4 4 4 6 2 3 2 5 7 8 7 7 5 8 9 5 5 1 2 1 1 2
51 74 29 42 27 26 26 17 6 4 18 13 17 26 3 1 0 0 0 0 0 0 1 0 3 3 2 2 2 3 4 5 8 6 5 6 4 7 7 8 3 0 0 0
94 74 59 16 23 29 30 22 13 10 10 24 16 7 6 1 0 0 0 0 0 0 0 0 0 0 0 0 1 2 3 3 2 3 3 4 4 3 3 3 1 0 0 0
8 29 38 53 21 16 20 23 24 28 22 42 1 14 1 0 0 3 3 0 0 3 0 0 0 0 0 0 0 0 0 0 0 1 1 1 1 2 2 1 1 0 0 0
156 37 11 48 4 1 12 2 21 2 8 32 25 23 20 0 11 12 14 10 5 3 4 1 5 2 0 0 0 0 0 0 0 0 0 0 1 1 1 1 1 0 0 0
172 13 62 45 15 7 0 0 18 19 1 12 25 28 27 11 2 3 8 6 1 3 3 2 1 0 0 0 0 0 0 0 0 0 2 3 2 0 0 0 0 0 0 0

GFSNGP_con_mlcape_063.txt.gz
CAPE
0 0 0 0 0 0 0 0 0 0 0 0 0 0 0 2 104 218 447 506 213 147 27 106 64 367 578 563 528 771 1461 1517 1423 1242 1082 1032 487 324 0 664 361 1410 1046 1623
0 0 0 0 0 0 0 0 0 0 0 0 0 0 0 0 21 66 153 208 183 43 0 69 246 320 197 634 746 653 1072 1567 1563 1406 1334 1224 1133 835 488 31 1214 580 1251 1407
0 0 1 0 0 0 0 0 0 0 0 0 0 0 0 9 75 101 2 0 0 41 86 69 24 32 0 461 781 898 885 1373 1482 1461 1449 1367 1280 1124 1132 623 590 1584 1187 1204
0 0 0 0 0 0 0 0 0 0 0 0 0 0 0 0 0 0 4 0 0 0 0 1 6 108 128 180 760 745 941 992 1388 1481 1435 1492 1401 1320 1128 1130 747 615 1331 1657
4 0 0 0 0 3 0 0 0 0 0 0 0 0 0 0 0 0 0 0 0 0 0 0 38 23 224 441 483 642 1014 1191 1269 1387 1527 1617 1433 1441 1244 1325 1322 1073 1281 1536
2 0 0 3 44 1 0 0 0 0 0 0 0 0 0 0 0 0 0 0 0 0 0 1 48 283 402 4 136 472 1328 1589 1390 1383 1496 1559 1643 1420 1577 1270 1328 1696 1477 1788
0 9 0 17 85 12 0 0 0 0 0 0 0 0 0 0 0 0 0 0 0 0 0 18 52 73 1210 827 621 974 1481 1972 1731 1558 1422 1609 1637 1754 1566 1725 1654 1598 1898 1850
0 0 1 0 48 27 0 0 0 0 0 0 0 0 0 0 0 0 0 0 0 0 0 0 0 20 39 762 713 1297 1088 1850 2138 2036 1651 1734 1727 1757 1832 1736 1829 1838 1867 2062
1 1 0 0 0 0 0 0 0 0 0 0 0 0 0 0 0 0 0 0 0 0 0 0 0 1 35 93 100 587 1668 1759 2034 2287 2192 1895 2040 1921 1953 1980 1966 1982 2050 2066
0 0 0 0 0 0 0 0 0 0 0 0 0 0 0 1 1 0 0 0 0 0 0 0 0 0 3 1 1 56 1132 2379 2011 2376 2513 2225 2415 2183 2163 2159 2233 2176 2266 2293
0 1 0 0 0 1 2 2 0 0 0 4 1 0 0 4 10 16 0 0 0 2 0 0 0 0 1 4 6 11 685 2310 2493 2298 2571 2640 2440 2682 2519 2533 2446 2453 2429 2449
0 0 3 1 1 6 5 2 1 1 3 1 1 0 9 13 12 22 27 0 0 0 0 0 0 0 0 1 6 8 259 1555 2554 2659 2866 2780 2610 2080 1463 2168 2547 2523 2530 2729
0 0 0 0 0 0 1 2 5 4 3 1 0 1 26 23 8 36 8 0 0 1 0 0 0 0 0 0 3 3 7 225 1294 2999 3091 2992 2877 2564 2363 1604 910 1362 1814 2577
0 0 0 0 0 1 2 5 3 8 1 7 0 2 2 4 20 2 0 2 1 1 0 0 0 0 0 0 2 0 1 1 149 1239 2753 2939 2947 2887 2444 2074 2312 1878 906 1407
0 0 0 0 2 0 0 0 4 3 6 6 1 4 2 1 1 2 0 0 1 0 0 0 0 0 0 0 0 0 1 0 0 236 1587 2099 2453 2615 2490 2023 1844 1604 734 625
0 0 0 6 7 0 0 0 1 4 7 12 12 1 1 3 2 1 0 0 1 1 2 1 0 0 0 0 2 0 0 1 5 0 773 1419 1851 1827 2044 2107 1952 1456 1156 864
0 0 0 0 0 0 0 0 0 3 8 6 10 7 2 1 3 1 1 1 0 0 1 2 1 0 0 1 0 0 0 0 1 79 166 570 1053 1062 1245 1605 1516 1045 746 282
0 0 0 4 3 0 0 0 0 0 1 6 2 2 0 1 3 1 1 1 1 2 1 2 2 2 0 0 0 0 0 2 1 1 189 171 342 324 316 435 396 195 49 2
0 0 0 0 5 1 0 0 0 2 0 0 0 0 0 3 2 1 0 1 2 3 2 1 4 2 2 1 0 0 3 3 6 6 24 2 28 5 0 4 22 82 110 86
5 10 6 0 0 14 0 0 0 6 0 0 1 0 0 0 0 1 1 1 2 3 2 2 2 2 2 1 2 0 1 3 6 5 8 3 4 6 7 5 2 2 4 2
38 24 14 4 0 13 3 2 0 2 1 4 9 0 0 0 0 0 4 4 2 2 2 4 3 2 2 1 2 4 6 5 6 5 5 5 4 5 2 1 3 5 5 3
7 2 22 6 0 5 23 9 10 0 3 4 4 0 0 0 0 0 0 0 0 0 1 4 2 5 2 2 2 3 6 6 6 8 8 8 8 7 7 6 3 0 0 1
6 0 5 20 18 4 9 19 19 30 2 0 1 0 0 0 0 0 0 0 0 0 0 0 0 0 2 1 1 2 2 3 4 4 5 7 8 8 8 7 4 2 1 0
120 89 23 87 32 1 6 35 21 88 5 9 2 0 0 0 0 0 0 0 0 0 0 0 0 0 0 0 0 0 1 1 1 2 3 3 5 3 3 3 2 0 0 0
102 56 33 57 70 14 0 4 1 27 15 22 1 4 1 0 0 0 0 0 0 0 1 0 0 0 0 0 0 0 0 0 0 0 1 1 2 2 1 2 1 1 0 0
155 92 20 69 95 2 6 16 0 5 30 29 18 1 6 1 0 0 0 0 1 0 1 0 0 0 0 0 0 0 0 0 0 0 0 0 0 0 0 0 0 0 0 0
0 0 11 66 44 0 3 8 2 0 1 37 29 7 6 6 3 3 2 1 0 5 1 0 0 0 0 0 0 0 0 0 0 0 0 0 0 0 0 0 0 0 0 0

GFSNGP_con_mlcape_066.txt.gz
CAPE
0 0 0 0 0 0 0 0 0 0 0 0 0 0 100 69 17 111 87 3 47 101 88 79 3 0 24 170 421 618 534 583 445 571 657 344 12 0 24 16 122 158 482 1065
0 0 0 0 0 0 0 0 0 0 0 0 0 0 0 0 0 0 0 0 0 0 19 10 60 3 4 94 267 729 765 743 833 608 749 741 542 67 0 0 0 105 287 451
0 0 0 0 0 0 0 0 0 0 0 0 0 0 0 0 0 0 1 1 0 0 0 0 1 20 28 59 278 438 1000 1049 1084 1156 965 863 869 654 336 178 0 0 193 573
0 0 0 0 0 0 0 0 0 0 0 0 0 0 0 0 0 0 0 0 0 0 0 0 0 36 53 90 55 509 600 1258 1483 1437 1369 1271 1038 943 759 562 300 64 264 366
0 1 0 0 0 0 0 0 0 0 0 0 0 0 0 0 0 0 0 0 0 0 0 0 5 14 348 373 67 140 431 688 1059 1587 1511 1436 1343 1189 1077 960 798 406 370 730
0 1 0 0 0 0 0 1 0 0 0 0 0 0 0 0 0 0 0 0 0 0 0 0 0 0 209 476 53 0 11 310 460 950 1414 1509 1435 1361 1256 1148 1099 954 660 536
0 0 0 0 0 26 5 0 0 0 0 0 0 0 0 0 0 0 0 0 0 0 0 0 0 0 26 70 158 150 176 485 784 884 1180 1401 1441 1420 1370 1307 1171 1168 1091 896
1 0 0 0 0 0 0 0 0 0 0 0 0 0 0 0 0 0 0 0 0 0 0 0 0 0 0 1 0 1 2 21 332 1220 1447 1349 1448 1493 1393 1354 1322 1183 1302 1365
0 0 0 0 0 0 0 0 0 0 0 0 0 0 0 0 0 0 0 0 0 0 0 0 0 0 0 0 0 0 0 8 32 676 1749 1408 1453 1515 1535 1388 1445 1481 1252 1242
0 0 0 0 0 0 0 0 0 0 0 0 0 0 0 0 0 0 0 0 0 0 0 0 0 0 0 0 0 0 0 0 2 348 1743 1865 1510 1554 1535 1631 1499 1497 1616 1541
0 0 0 0 0 0 0 0 3 2 1 1 6 0 1 0 0 0 0 0 0 0 0 0 0 0 0 0 0 0 0 0 24 383 1758 2116 1901 1802 1680 1673 1667 1613 1575 1573
0 0 0 0 0 0 0 0 2 7 2 1 6 0 1 0 1 2 0 5 0 1 1 0 0 0 0 0 0 0 5 5 8 13 653 2249 2358 1902 998 1228 1583 1544 1548 1634
0 0 0 0 0 0 0 1 2 6 6 19 0 9 3 5 6 3 17 7 0 1 0 0 0 0 0 0 0 0 0 3 7 7 191 1922 2473 2441 2174 1196 813 1282 1407 1582
0 0 0 0 0 0 0 0 1 3 0 0 1 11 15 3 10 1 0 0 0 2 0 0 0 0 0 0 0 0 1 0 3 7 4 440 2491 2738 2315 2181 2269 2042 1074 1386
0 0 0 0 0 0 0 0 3 1 1 4 6 4 1 2 2 2 2 1 0 0 0 0 0 0 0 0 0 0 0 0 0 3 5 1 601 2267 2681 2323 2016 2203 1154 956
0 0 0 0 0 1 0 0 0 0 3 2 5 1 1 14 12 1 1 0 1 0 0 0 1 1 0 0 0 0 0 0 2 5 6 0 306 1134 1880 2029 1989 1635 1354 1600
0 0 0 0 0 0 0 0 0 0 9 5 9 4 5 10 2 1 1 1 1 1 0 3 3 1 0 1 0 0 0 0 7 7 5 14 223 620 1405 1664 1621 1416 933 529
0 0 0 0 0 0 0 0 0 1 3 2 1 3 3 5 2 2 1 1 1 1 0 1 1 0 2 1 1 0 0 0 7 4 6 1 16 337 690 1105 965 645 221 53
0 0 0 0 0 1 0 12 0 2 4 1 8 7 0 0 3 1 0 1 2 2 1 1 3 2 5 1 2 0 0 2 7 1 10 3 1 0 0 149 8 12 49 22
0 22 13 0 0 1 8 6 0 0 0 1 16 6 0 0 1 0 1 3 5 7 3 3 1 1 2 1 4 3 0 6 8 0 1 10 11 7 13 1 3 1 2 1
21 21 35 44 1 0 0 0 0 0 0 0 5 0 0 0 0 0 1 2 3 11 5 4 5 1 2 2 3 4 4 8 9 8 4 5 7 2 10 15 11 13 8 4
12 29 0 0 1 0 0 0 0 0 0 0 0 0 0 1 0 0 0 2 2 8 11 4 2 5 4 3 2 5 5 7 9 11 11 9 9 8 11 11 11 9 11 11
11 4 0 0 2 4 0 0 0 0 0 0 0 0 0 0 0 0 0 0 4 14 21 18 1 0 1 1 2 3 5 4 5 7 8 8 7 8 9 5 6 7 6 7
0 0 1 4 9 0 0 0 0 0 0 0 0 0 0 0 0 0 0 0 1 18 26 28 20 0 0 0 1 2 2 3 3 3 3 3 4 5 4 4 6 4 1 0
22 4 1 3 26 0 0 0 0 0 0 0 0 0 0 0 0 0 0 0 1 13 19 18 13 0 0 0 0 0 0 1 1 1 1 2 2 2 3 1 0 0 0 0
12 10 0 0 0 0 0 0 0 3 0 0 0 0 0 0 0 0 0 0 0 0 0 0 0 0 0 0 0 0 0 0 0 0 0 0 0 0 0 0 0 0 0 0
0 0 1 0 0 0 0 0 2 10 4 0 0 0 0 0 0 0 2 0 0 0 0 0 0 0 0 0 0 0 0 0 0 0 0 0 0 0 0 0 0 0 0 0

GFSNGP_con_mlcape_069.txt.gz
CAPE
0 0 0 0 0 0 0 0 0 0 0 0 0 0 0 0 0 2 2 0 0 0 0 0 8 0 0 1 78 106 46 157 227 227 141 3 4 0 0 0 0 6 120 450
0 0 0 0 0 0 0 0 0 0 0 0 0 0 0 0 0 0 0 0 0 0 0 0 0 3 13 7 21 252 268 203 247 252 286 160 1 0 0 0 0 0 0 35
0 0 0 0 0 0 0 0 0 0 0 0 0 0 0 0 0 0 0 0 0 0 0 1 0 0 81 89 59 137 408 366 335 335 367 422 282 32 0 0 0 0 0 0
0 0 0 0 0 0 0 0 0 0 0 0 0 0 0 0 0 0 0 0 0 0 0 2 2 0 38 235 217 155 400 562 507 545 455 482 576 438 196 22 4 3 0 0
0 0 0 0 0 0 0 0 0 0 0 0 0 0 0 0 0 0 0 0 0 0 0 0 2 0 34 307 311 5 67 449 782 810 897 725 708 707 629 393 205 137 48 0
0 0 0 0 0 0 0 0 0 0 0 0 0 0 0 0 0 0 0 0 0 0 0 0 0 0 0 49 62 30 55 94 354 367 1307 1259 1156 1004 881 742 649 473 367 110
0 0 0 0 0 0 0 0 0 0 0 0 0 0 0 0 0 0 0 0 0 0 0 0 0 0 0 0 0 0 3 0 28 155 482 559 1002 1274 1219 1076 947 875 794 552
0 0 0 0 0 0 0 0 0 0 0 0 0 0 0 0 0 0 0 0 0 0 0 0 0 0 0 0 0 0 0 0 0 8 75 300 1199 1190 1306 1275 1159 1074 1034 978
0 0 0 0 0 0 0 0 0 0 0 0 0 0 0 0 0 0 0 0 0 0 0 0 0 0 0 0 0 0 0 0 0 0 0 101 729 1304 1272 1299 1325 1213 1154 1070
0 0 0 0 0 0 0 0 0 0 0 0 0 1 0 1 1 0 0 0 0 0 0 0 0 0 0 0 0 0 2 0 0 0 1 36 562 1256 1339 1353 1393 1304 1269 1181
0 0 0 0 0 0 0 0 0 1 1 0 1 0 0 2 0 0 0 0 0 0 10 2 0 0 0 0 0 0 0 0 0 0 0 0 36 1116 1427 1446 1454 1442 1332 1263
0 0 0 0 0 0 0 0 0 3 6 3 8 6 7 1 0 0 0 0 0 0 4 0 0 0 0 0 0 0 0 0 0 0 0 0 4 280 1069 1214 1259 1223 1212 1270
0 0 0 0 0 0 0 2 0 3 6 5 0 1 1 1 1 15 10 1 24 25 0 0 0 0 0 0 0 0 0 0 0 0 0 0 0 28 745 1480 855 837 798 1033
0 0 0 0 0 0 0 1 0 0 0 0 2 3 15 17 7 0 5 2 15 1 0 0 0 0 0 0 0 0 0 0 0 0 0 1 3 0 26 1028 2049 1906 1197 997
0 0 0 0 0 0 0 3 3 0 0 1 1 0 1 4 2 1 1 1 1 1 0 0 0 0 0 0 0 0 0 0 0 0 0 0 0 1 1 75 1553 2158 1794 1027
0 0 0 0 0 0 0 0 0 6 5 1 0 0 1 5 4 0 0 0 1 2 1 0 1 1 1 1 0 0 0 0 0 0 0 2 2 0 0 60 655 1948 2059 1906
0 0 0 0 0 0 2 3 0 0 5 1 0 0 3 3 3 3 2 0 0 1 1 1 2 0 1 1 2 0 0 0 0 1 0 4 3 3 4 116 411 1132 1663 1583
0 0 0 0 0 0 10 12 0 0 0 0 1 5 0 2 3 2 3 1 0 0 2 1 0 2 0 1 0 2 1 2 4 6 2 2 2 5 3 70 417 607 938 629
1 0 0 0 0 0 0 1 3 0 0 0 0 2 0 0 2 5 6 5 3 2 1 1 7 1 1 1 4 0 3 4 5 5 3 5 1 5 4 1 66 556 401 201
8 5 0 0 0 0 3 0 2 4 0 0 0 0 0 0 1 2 4 5 7 10 7 6 3 0 1 1 3 3 6 6 8 7 2 4 5 4 10 10 2 0 11 3
22 15 12 15 13 22 0 0 0 1 0 0 2 0 0 0 0 1 3 5 6 15 7 9 8 3 2 2 1 2 5 7 7 8 2 5 7 4 3 10 12 5 4 5
16 22 34 20 0 21 0 0 0 0 0 1 0 0 0 0 0 0 1 1 4 15 19 8 8 11 5 2 2 2 2 5 6 8 8 8 7 7 5 1 9 9 11 9
2 13 32 2 0 1 0 0 0 0 1 7 0 0 0 0 0 0 0 0 1 6 17 19 9 4 1 1 1 2 2 2 3 5 5 5 4 8 8 8 4 2 6 7
0 0 0 0 0 0 0 0 0 0 0 0 0 0 0 0 0 0 0 0 0 6 11 8 12 0 0 0 1 2 2 1 2 2 3 2 2 4 5 5 5 5 4 5
0 0 0 0 0 0 0 0 0 0 0 0 0 0 2 0 0 0 0 0 0 1 0 0 2 0 0 0 0 1 1 1 1 2 3 3 3 2 2 3 3 4 1 1
1 5 0 0 0 0 0 0 0 0 0 0 0 0 2 0 2 1 0 0 0 0 0 4 0 0 0 0 0 0 0 2 2 2 1 1 1 1 2 2 2 2 1 1
0 0 0 0 0 0 0 0 0 0 0 0 0 0 0 0 0 1 0 0 0 0 0 0 0 0 0 0 0 0 0 0 0 0 2 2 1 3 1 2 2 2 1 1

GFSNGP_con_mlcape_072.txt.gz
CAPE
0 0 0 0 0 0 0 0 0 0 0 0 0 1 0 0 0 0 0 0 0 1 2 1 12 16 24 54 20 0 27 68 25 0 0 0 0 0 0 0 0 0 57 177
0 0 0 0 0 0 0 0 0 0 0 0 0 0 0 0 0 0 0 0 0 0 1 1 3 3 28 46 43 55 43 82 147 132 73 0 0 0 0 0 0 0 0 0
0 0 0 0 0 0 0 0 0 0 0 0 0 0 0 0 0 0 0 0 0 0 0 0 2 4 1 32 91 66 187 142 98 163 186 152 60 0 0 0 0 0 0 0
0 0 0 0 0 0 0 0 0 0 0 0 0 0 0 0 0 0 0 0 0 0 0 0 0 0 0 46 270 163 159 305 259 197 241 265 246 125 20 0 0 0 0 0
0 0 0 0 0 0 0 0 0 0 0 0 0 0 0 0 0 0 0 0 0 0 0 0 0 0 0 2 5 23 52 154 367 364 335 337 370 413 318 100 4 0 0 0
0 0 0 0 0 0 0 0 0 0 0 0 0 0 0 0 0 0 0 0 0 0 0 0 0 0 0 0 0 0 0 0 2 154 508 601 499 495 484 480 392 200 116 49
0 0 0 0 0 0 0 0 0 0 0 0 0 0 0 0 0 0 0 0 0 0 0 0 0 0 0 0 0 0 0 0 0 6 85 439 849 847 621 631 621 700 606 454
0 0 0 0 0 0 0 0 0 0 0 0 0 0 0 0 0 0 0 0 0 0 0 0 0 0 0 0 0 0 0 0 0 0 0 56 140 268 792 1102 967 892 907 839
0 0 0 0 0 0 0 0 0 0 0 0 0 0 0 0 0 0 0 0 0 0 0 0 0 0 0 0 0 0 0 0 0 0 0 0 15 74 340 994 1227 1183 1142 1078
0 0 0 0 0 0 0 0 0 0 0 0 0 0 0 0 0 0 0 0 0 0 0 0 0 0 0 0 0 0 0 0 0 0 0 0 0 1 106 955 1187 1297 1358 1285
0 0 0 0 0 0 0 0 0 0 0 1 3 3 4 2 0 0 0 0 0 0 0 0 0 0 0 0 0 0 0 0 0 0 0 0 0 0 10 198 1032 1295 1338 1334
0 0 0 0 0 0 0 0 0 0 1 4 10 4 2 0 1 4 1 0 0 0 0 0 0 4 0 0 0 0 0 0 0 0 0 0 0 0 0 0 136 621 722 1191
0 0 0 0 0 0 0 0 3 3 0 0 0 1 1 5 2 0 1 6 13 4 0 0 0 1 0 0 0 0 0 0 0 0 0 0 0 0 0 0 0 182 481 656
0 0 0 0 0 0 0 0 2 2 1 0 0 0 2 0 1 1 1 1 1 1 2 1 1 0 0 0 0 0 0 0 0 0 0 0 0 0 0 0 0 62 225 656
0 0 0 0 0 0 0 0 0 0 10 2 0 0 4 3 0 1 0 0 0 0 1 0 0 0 0 1 1 0 0 0 0 0 0 0 0 1 1 0 0 0 110 635
0 0 0 0 0 0 0 0 0 0 0 5 1 0 0 2 3 2 1 0 0 1 0 1 0 0 0 0 1 1 0 1 0 0 0 0 0 1 1 2 0 1 57 452
0 0 0 0 0 0 0 0 0 0 0 0 2 1 9 0 1 0 2 2 1 1 2 1 1 0 0 1 1 3 3 2 2 0 0 1 0 4 4 5 3 5 25 289
0 0 0 0 0 0 0 0 0 0 0 0 0 2 8 0 5 3 0 0 1 2 2 3 1 5 1 0 2 1 2 3 2 2 3 4 7 7 8 5 4 2 4 77
0 0 0 0 0 0 0 0 0 0 0 0 0 0 0 0 0 0 0 0 1 3 0 1 15 5 1 0 6 3 1 4 4 4 6 7 7 7 6 5 1 0 1 2
10 0 0 0 0 0 0 0 0 0 0 0 0 0 0 0 1 1 2 3 3 1 11 2 2 4 2 1 5 1 4 5 6 6 6 7 7 6 5 4 6 2 3 3
0 0 0 0 1 10 6 0 0 0 0 0 0 0 0 0 0 0 0 0 0 0 0 2 5 8 3 10 1 1 2 4 4 5 6 6 6 6 6 4 4 8 11 12
0 0 0 8 7 6 5 0 0 0 0 0 0 0 0 0 0 0 0 0 0 1 0 4 10 11 9 6 2 1 2 2 3 3 3 4 6 6 6 6 3 5 6 8
0 1 6 8 0 0 0 0 0 0 0 1 0 0 0 0 0 0 0 0 1 8 9 1 12 12 7 2 3 3 3 2 2 1 2 3 3 3 6 3 4 4 3 5
2 0 3 0 0 0 1 3 0 0 0 0 0 0 0 0 0 0 0 0 0 6 1 6 5 13 6 4 4 3 3 3 3 1 1 2 2 2 2 4 3 2 2 3
0 0 6 0 2 3 0 0 0 0 0 1 0 0 0 0 0 1 0 0 0 1 8 6 0 1 6 4 3 3 3 2 2 1 1 2 2 2 2 3 3 3 2 2
0 0 0 0 0 0 0 0 0 0 0 0 0 0 0 1 0 0 0 0 0 1 20 14 0 0 0 1 2 3 3 3 2 2 2 2 2 2 2 2 2 2 2 2
0 0 0 0 0 0 0 0 0 0 0 0 0 0 0 0 0 0 0 0 0 0 0 2 0 0 0 0 0 0 0 0 0 1 0 2 2 3 3 3 3 3 2 3

GFSNGP_con_mlcape_075.txt.gz
CAPE
0 0 0 0 0 0 0 0 0 0 0 0 0 0 0 0 0 0 0 0 1 1 2 3 2 4 58 186 185 196 296 273 312 321 67 24 162 364 456 476 365 337 524 745
0 0 0 0 0 0 0 0 0 0 0 0 0 0 0 0 0 0 0 0 0 0 0 0 3 4 3 5 89 155 164 415 454 511 500 398 304 286 312 343 428 389 317 352
0 0 0 0 0 0 0 0 0 0 0 0 0 0 0 0 0 0 0 0 0 0 0 0 0 0 0 2 107 333 258 260 384 523 630 567 489 424 369 315 346 370 335 388
0 0 0 0 0 0 0 0 0 0 0 0 0 0 0 0 0 0 0 0 0 0 0 0 0 0 0 0 3 122 548 465 589 559 549 678 686 605 524 453 396 383 407 401
0 0 0 0 0 0 0 0 0 0 0 0 0 0 0 0 0 0 0 0 0 0 0 0 0 0 0 0 0 1 5 35 139 489 837 710 744 777 770 617 493 415 416 435
0 0 0 0 0 0 0 0 0 0 0 0 0 0 0 0 0 0 0 0 0 0 0 0 0 0 0 0 0 0 1 3 6 21 249 830 932 901 922 978 742 661 527 476
0 0 0 0 0 0 0 0 1 0 0 0 0 0 0 0 0 0 0 0 0 0 0 0 0 0 0 1 0 0 0 0 0 6 3 63 619 1131 1038 1057 1099 1115 1059 881
0 0 0 0 0 0 0 0 0 0 0 0 0 0 0 0 0 0 0 0 0 0 0 0 0 0 0 0 4 0 0 0 0 0 4 2 29 71 354 956 1057 1154 1277 1392
0 0 0 0 0 0 0 0 0 0 0 0 0 0 0 0 0 0 0 0 0 0 0 0 0 0 0 0 5 1 0 0 0 0 0 2 0 4 141 236 596 1093 1492 1278
0 0 0 0 0 0 0 0 0 0 0 0 0 0 0 0 0 0 0 0 0 0 0 0 0 0 0 2 14 0 0 0 0 0 0 0 0 1 0 15 264 458 899 1569
0 0 0 0 0 0 0 0 0 0 0 1 3 2 5 6 5 6 6 4 3 5 4 1 0 0 0 0 16 1 0 0 0 0 0 0 0 0 0 0 2 261 729 1248
0 0 0 0 0 0 0 0 0 0 0 4 3 2 5 5 0 1 4 2 9 19 14 6 8 12 3 5 6 0 0 1 0 0 0 0 0 0 0 0 0 0 0 0
0 0 0 0 0 0 0 0 0 0 0 0 1 2 5 7 7 7 8 2 0 0 1 10 1 2 1 2 0 0 0 0 0 0 0 0 0 0 0 0 0 0 0 0
0 0 0 0 0 0 0 0 0 0 0 0 1 0 1 6 11 11 1 0 2 3 0 1 1 1 1 2 2 1 0 0 2 0 0 0 0 0 0 0 0 0 0 0
0 0 0 0 0 0 0 0 0 0 0 0 0 0 2 8 10 12 12 0 0 2 2 0 2 4 2 4 6 1 2 0 1 2 0 0 0 2 1 1 0 0 0 0
0 0 0 0 0 0 0 0 0 0 0 0 0 0 2 5 5 7 5 1 1 1 0 0 0 1 1 2 5 3 2 1 3 2 1 1 2 1 1 3 1 0 0 1
0 0 0 0 0 0 0 0 0 0 0 0 0 4 7 7 0 5 1 1 0 0 0 3 1 6 14 4 6 3 1 1 1 2 2 2 3 3 4 4 0 0 2 3
5 0 0 0 0 0 0 0 0 0 0 0 1 0 3 1 1 2 4 3 2 0 8 2 18 17 7 11 9 4 3 2 1 3 2 2 2 2 2 3 5 5 5 2
8 0 0 0 0 0 0 0 0 0 0 0 0 0 0 0 0 2 0 3 8 14 16 9 34 5 3 6 16 10 6 4 3 3 3 3 4 4 5 7 7 7 7 5
19 17 22 10 0 0 0 0 0 4 0 0 0 0 0 0 0 0 3 0 5 8 4 13 13 13 2 5 14 3 2 2 2 3 5 6 7 7 8 8 7 8 7 8
14 12 17 32 54 55 1 3 19 32 0 0 0 4 10 0 0 0 0 15 4 2 8 6 13 23 5 9 2 2 2 1 2 3 4 5 6 7 7 8 6 6 5 4
17 14 10 9 37 106 79 34 4 18 17 11 23 28 0 0 0 0 0 0 6 12 21 20 8 19 16 6 2 1 2 1 2 1 2 3 4 6 6 5 5 5 4 5
18 1 21 17 14 32 17 10 0 1 36 48 50 35 0 0 0 0 1 10 42 52 14 22 0 4 13 3 2 2 2 2 2 2 2 2 1 2 3 3 3 3 3 4
19 12 6 3 7 10 15 0 0 0 4 30 72 27 0 0 0 8 26 25 0 6 8 6 0 0 8 6 2 2 2 1 1 2 3 3 3 1 1 2 2 2 2 2
0 3 18 18 8 13 3 0 0 0 0 29 35 2 0 6 1 4 26 10 0 4 8 4 0 0 0 5 5 2 3 2 2 1 1 2 2 2 2 1 2 2 2 2
8 3 4 8 0 1 1 0 4 2 9 22 27 4 1 8 13 11 0 0 5 15 39 43 14 20 24 0 3 4 3 3 3 1 1 0 2 2 2 2 1 2 2 2
5 0 1 1 2 0 0 1 4 1 10 37 19 0 0 0 4 0 0 0 0 8 9 26 39 37 27 11 2 11 7 7 2 3 2 2 2 2 2 2 2 1 2 2

GFSNGP_con_mlcape_078.txt.gz
CAPE
0 0 0 0 0 0 0 0 0 0 0 0 1 0 0 0 0 0 0 0 0 0 0 1 2 3 4 4 164 769 659 689 732 853 792 694 538 718 948 1143 1189 1194 964 1040
0 0 0 0 0 0 0 0 0 0 0 0 0 0 0 0 0 0 0 0 0 0 0 0 0 0 0 2 6 238 702 767 910 842 927 1041 849 486 903 1072 1250 1256 1225 971
0 0 0 0 0 0 0 0 0 0 0 0 0 0 0 0 0 0 0 0 0 0 0 0 0 0 0 0 2 2 435 948 704 785 1068 1063 1152 1127 1038 976 1091 1216 1221 1169
0 0 0 0 0 0 0 0 0 0 0 0 0 0 0 0 0 0 0 0 0 0 0 0 0 0 0 0 0 0 0 0 14 589 897 958 1004 1105 1204 1194 1132 1126 1165 1265
0 0 0 0 0 0 0 0 0 0 0 0 0 0 0 0 0 0 0 0 0 0 0 0 0 0 0 0 0 0 0 0 1 2 32 601 1079 978 1059 1192 1177 1189 1160 1218
0 0 0 0 0 0 0 0 0 0 0 0 0 0 0 0 0 0 0 0 0 0 0 0 0 0 0 0 0 0 0 0 0 3 2 1 134 773 952 1133 1173 1332 1216 1228
0 0 0 0 0 0 0 0 0 0 0 0 0 0 0 0 0 0 0 0 0 0 0 0 0 0 0 0 0 0 0 0 0 0 0 2 1 8 487 1161 1245 1219 1307 1369
0 0 0 0 0 0 0 0 0 0 0 0 0 0 0 0 0 0 0 0 0 0 0 0 0 0 0 0 0 0 0 0 0 0 0 0 6 1 4 191 674 1151 1286 1342
0 3 0 0 0 0 0 0 0 0 0 0 0 0 0 0 0 0 0 0 0 0 0 0 0 0 0 0 0 0 0 0 0 0 0 0 0 0 1 10 337 620 661 868
0 0 0 0 0 0 0 0 0 0 0 0 0 0 0 0 0 0 0 0 0 1 0 0 0 0 0 0 0 0 0 0 0 0 0 0 0 0 0 0 0 39 270 639
0 0 0 0 0 0 0 0 0 0 0 0 0 0 1 0 0 1 4 2 3 9 8 0 0 1 7 13 9 0 0 0 0 0 0 0 0 0 0 0 0 0 3 0
0 0 0 0 0 0 0 0 0 0 0 0 1 5 2 5 3 1 6 2 6 7 13 10 6 6 5 2 0 10 18 0 0 0 0 0 0 0 0 0 0 0 0 0
0 0 0 0 0 0 0 0 0 0 0 0 3 5 5 4 1 1 1 8 11 14 4 6 6 12 8 10 6 0 0 12 3 0 0 0 0 0 0 0 0 0 0 0
0 0 0 0 0 0 0 0 0 0 1 2 6 9 8 7 2 4 3 4 8 8 7 2 8 5 5 10 12 6 1 0 1 5 0 0 0 0 0 0 0 0 0 0
0 0 0 1 0 0 0 0 0 5 14 13 19 13 16 14 16 3 0 8 10 10 7 8 14 10 5 5 9 4 8 3 2 5 5 1 0 0 0 0 0 0 0 0
0 0 0 1 8 1 0 0 2 12 14 15 14 17 14 13 10 7 5 10 10 13 9 7 8 1 9 13 6 6 5 3 2 5 1 2 1 0 0 0 0 0 0 0
1 1 0 4 7 13 4 2 4 7 3 6 6 11 15 16 10 5 4 6 6 8 11 11 13 14 25 7 5 3 0 6 3 6 9 3 4 2 1 1 1 1 0 0
2 12 6 5 9 24 50 15 12 11 4 3 3 7 15 17 3 0 1 3 7 6 8 9 12 12 9 9 8 7 8 7 4 3 3 1 6 4 2 1 2 0 0 0
7 10 23 18 22 35 39 27 17 12 9 10 2 2 9 14 1 0 0 4 4 5 12 5 2 9 9 10 18 12 7 3 2 4 7 5 4 2 1 0 2 2 2 2
25 30 26 29 23 25 19 27 12 16 13 15 2 10 21 27 1 2 8 10 11 7 6 19 16 16 16 8 9 5 3 2 2 1 3 4 4 4 2 2 2 4 3 4
37 35 30 46 59 79 10 40 36 39 29 24 11 13 28 22 1 1 6 15 9 21 13 12 15 9 8 10 4 2 1 1 1 3 3 2 4 4 4 4 3 4 4 6
52 48 65 56 50 63 77 87 99 92 85 27 19 24 40 24 3 8 10 8 25 17 11 20 5 0 0 8 5 2 0 0 1 1 1 2 1 1 2 3 4 4 4 5
54 29 26 61 48 47 47 96 120 112 12 32 38 36 56 7 24 34 36 40 15 10 1 21 2 0 0 10 2 2 3 1 0 1 2 1 2 2 2 1 1 2 3 3
20 27 16 26 61 13 1 0 3 16 26 39 85 67 56 6 14 17 27 19 1 0 3 30 6 0 0 11 1 3 2 2 1 1 1 1 1 1 1 2 1 1 1 2
13 18 28 63 46 2 0 0 0 9 14 34 41 60 34 13 8 13 26 24 2 0 31 19 0 0 4 20 7 1 2 2 3 1 1 1 1 0 0 1 1 3 3 2
18 36 52 61 58 2 7 0 1 0 8 14 32 47 45 40 44 13 21 19 12 9 22 22 34 48 24 20 24 0 3 2 2 3 1 1 1 1 0 1 0 0 1 2
26 4 28 62 70 29 2 2 4 2 11 21 28 52 20 21 32 10 13 15 11 16 15 16 24 15 19 21 20 19 9 20 0 2 3 3 1 0 1 0 0 0 0 1

GFSNGP_con_mlcape_081.txt.gz
CAPE
0 0 0 0 0 0 0 0 17 254 105 62 11 6 4 2 0 0 0 0 0 0 0 0 0 0 0 3 15 235 972 1090 1344 1307 1156 1249 1396 1414 1389 1530 1631 1699 1658 1297
0 0 0 0 0 0 0 0 0 100 71 13 2 0 0 0 0 0 0 0 0 0 0 0 0 0 0 0 2 6 67 375 535 918 1089 1569 1432 1369 1341 1364 1755 1955 1806 1721
0 0 0 0 0 0 0 0 0 93 55 5 1 0 0 0 0 0 0 0 0 0 0 0 0 0 0 0 0 0 0 0 8 192 711 940 1363 1644 1581 1410 1514 1827 1904 1877
0 0 0 0 0 0 0 0 0 0 0 0 0 0 0 0 0 0 0 0 0 0 0 0 0 0 0 0 0 0 0 0 0 0 31 260 822 1132 1211 1647 1635 1571 1804 2001
0 0 0 0 0 0 0 0 0 0 0 0 0 0 0 0 0 0 0 0 0 0 0 0 0 0 0 0 0 1 0 0 0 0 1 3 35 154 919 1225 1150 1317 1547 1697
0 0 0 0 0 0 0 0 0 0 0 0 0 0 0 0 0 0 0 0 0 0 0 0 0 0 0 0 0 0 0 0 0 0 0 0 0 3 39 616 1295 1479 1398 1234
0 0 0 0 0 0 0 0 0 0 0 0 0 0 0 0 0 0 0 0 0 0 0 0 0 0 0 0 0 0 0 0 0 0 0 0 0 1 0 4 292 1135 1520 1499
0 1 0 0 0 0 0 0 0 0 0 0 0 0 0 0 0 0 0 0 0 0 0 0 0 0 0 0 0 0 0 0 0 0 0 0 0 0 1 0 9 306 856 1059
2 48 1 0 0 0 0 0 0 0 0 0 0 0 0 0 0 0 0 0 0 0 0 0 0 0 0 0 0 0 0 0 0 0 0 0 0 0 0 0 0 0 197 337
0 0 0 0 0 0 0 0 0 0 0 0 0 0 0 0 0 0 0 0 0 1 1 1 2 1 0 0 0 0 0 0 0 0 0 0 0 0 0 0 0 0 0 1
0 0 0 0 0 0 0 0 0 0 0 0 0 0 0 0 1 0 0 0 1 1 1 3 3 1 1 6 5 4 0 0 0 0 0 0 0 0 0 0 0 0 0 0
0 3 1 0 0 0 0 0 0 0 0 0 0 0 0 3 1 1 1 1 1 2 2 2 2 3 4 4 4 6 8 0 0 0 0 0 0 0 0 0 0 0 0 0
8 2 0 0 0 0 0 0 0 0 0 0 0 0 0 1 4 0 0 0 1 3 1 2 2 2 1 4 2 3 5 7 2 0 0 0 0 0 0 0 0 0 0 0
8 4 2 0 0 0 0 0 0 0 0 0 0 0 0 1 1 3 0 0 1 1 2 1 0 0 0 2 5 5 5 1 0 1 1 0 0 0 0 0 0 0 0 0
7 8 8 0 4 12 7 7 1 0 0 1 2 1 2 6 4 0 0 1 3 1 0 0 0 1 3 2 3 1 0 0 1 4 1 0 0 1 0 0 0 0 0 0
19 14 17 0 0 1 11 14 8 8 7 8 4 3 1 12 3 3 1 0 2 3 1 2 2 9 2 5 3 0 0 0 0 0 4 8 3 5 6 1 0 0 0 0
24 12 2 0 0 0 0 13 15 14 22 22 19 14 2 5 8 11 8 8 7 3 4 7 10 6 5 4 1 1 0 1 1 3 5 6 1 0 2 4 6 4 0 0
7 1 0 0 0 2 7 19 17 12 23 14 18 25 12 11 15 20 9 10 12 5 8 11 7 2 6 3 0 0 0 0 0 2 1 4 4 6 0 0 1 5 8 3
2 7 2 0 0 7 8 7 13 22 39 26 6 19 25 20 18 17 14 12 13 17 6 10 1 7 7 1 0 0 0 0 1 2 4 3 4 5 2 2 9 2 6 4
28 40 18 18 26 16 12 33 34 29 23 18 18 22 17 19 12 24 21 15 9 3 11 16 18 10 8 1 0 0 0 2 3 2 2 4 4 3 3 2 3 5 7 5
79 84 78 67 63 40 64 101 66 53 43 25 19 31 49 40 33 27 12 17 4 19 15 0 12 10 2 0 0 0 2 2 1 2 1 1 2 2 2 2 4 6 3 4
84 120 91 77 59 45 50 103 160 93 97 74 28 22 43 43 40 33 17 5 17 6 11 14 15 1 0 0 6 2 4 3 2 2 1 1 1 1 2 2 2 4 5 4
39 38 25 32 38 47 89 97 143 144 216 220 114 24 35 35 31 25 13 15 24 2 0 11 2 0 0 0 12 7 2 8 2 2 1 1 1 1 1 1 1 0 0 2
19 30 35 30 36 54 77 33 2 5 28 46 168 58 6 41 22 19 31 2 0 1 2 3 0 0 0 0 19 1 1 5 11 3 1 1 2 0 0 1 1 1 1 1
17 26 29 24 116 142 129 94 32 15 0 0 27 25 46 55 3 0 22 25 0 1 22 8 0 0 0 12 28 25 16 0 2 6 0 1 0 0 0 0 1 1 0 1
16 15 18 25 79 82 76 1 1 1 10 11 19 5 20 15 28 31 27 19 50 16 32 45 15 48 42 29 31 29 20 3 0 15 1 0 1 0 0 0 1 2 1 1
8 0 10 14 27 40 43 9 1 0 0 0 6 16 10 13 14 12 6 38 37 16 28 34 37 13 17 17 39 45 16 20 0 5 13 2 1 1 1 1 1 0 0 1

GFSNGP_con_mlcape_084.txt.gz
CAPE
0 0 0 0 0 0 0 0 283 377 133 160 89 41 2 0 0 0 0 0 0 0 0 1 0 0 0 2 0 5 149 344 485 778 1571 1616 1601 1519 1787 1960 2029 2094 2054 1739
0 0 0 0 0 0 0 0 69 160 230 50 3 5 6 0 0 0 0 0 0 0 0 0 0 0 0 1 0 0 0 24 102 356 569 871 1032 1222 1453 1594 1902 2072 2063 2176
0 0 0 0 0 0 0 0 324 248 57 10 0 0 0 0 0 0 0 0 0 0 0 0 0 0 0 0 0 0 0 0 0 7 102 183 537 1078 1173 1199 1290 1636 1959 2136
0 0 0 0 0 0 0 0 220 361 105 1 0 0 0 0 0 0 0 0 0 0 0 0 0 0 0 0 0 0 0 0 0 0 0 0 88 159 349 730 1172 1289 1477 1857
0 0 0 0 0 0 0 0 47 215 56 0 0 0 0 0 0 0 0 0 0 0 0 0 0 0 0 0 0 0 0 0 0 0 0 0 0 0 1 67 435 1059 1353 1433
0 0 0 0 0 0 0 5 0 8 28 3 0 0 0 0 0 0 0 0 0 0 0 0 0 0 0 0 0 0 0 0 0 0 0 0 0 0 0 0 0 168 658 1354
7 7 21 0 0 0 0 27 0 0 0 0 0 0 0 0 0 0 0 0 0 0 0 0 0 0 0 0 0 0 0 0 0 0 0 0 0 0 0 0 0 5 145 678
0 14 35 0 0 0 0 0 0 0 0 1 0 0 0 0 0 0 0 0 0 0 0 0 0 0 0 0 0 0 0 0 0 0 0 0 0 0 0 0 0 0 5 115
50 57 1 0 0 0 0 0 0 0 0 0 0 0 0 0 0 0 0 0 0 0 0 0 0 0 0 0 0 0 0 0 1 0 0 0 0 0 0 0 0 3 8 28
2 26 3 0 0 0 0 0 0 0 0 0 0 0 0 0 0 0 0 0 0 0 0 0 0 0 0 0 0 0 0 0 0 0 0 0 0 0 0 0 0 0 0 0
0 0 0 0 0 0 0 0 0 0 0 0 0 0 0 0 0 0 0 1 0 0 0 1 0 0 0 0 0 0 0 0 0 0 0 0 0 0 0 0 0 0 0 0
7 8 7 11 4 2 0 0 0 0 0 0 0 0 0 0 0 0 1 1 2 4 5 3 1 1 0 0 0 0 1 0 0 0 0 0 0 0 0 0 0 0 0 0
6 7 3 0 0 0 0 0 0 0 0 0 0 0 0 0 1 0 0 0 0 0 2 4 4 1 2 0 1 0 0 0 0 0 0 0 0 0 0 0 0 0 0 0
24 25 10 1 0 0 0 0 0 0 0 0 0 0 0 3 0 1 0 0 0 0 0 1 2 2 2 3 2 1 0 0 0 0 0 0 0 0 0 0 0 0 0 0
1 5 13 3 1 3 1 1 1 0 1 1 1 0 2 5 5 0 0 0 0 0 0 0 0 1 3 0 0 0 0 0 0 0 0 0 0 0 0 0 0 0 0 0
0 7 10 6 14 0 1 5 5 1 3 6 7 4 0 2 8 6 4 0 0 1 0 1 2 1 2 2 0 0 0 0 0 0 0 0 0 1 0 0 0 0 0 0
8 14 12 2 13 23 5 0 1 6 10 14 17 17 0 0 4 1 1 1 0 2 1 0 0 0 0 2 0 0 0 0 0 0 0 0 2 2 2 1 3 3 0 0
3 4 5 8 16 29 6 0 1 4 8 6 14 23 6 0 1 8 5 0 0 2 2 8 6 1 0 2 0 0 0 0 0 0 0 0 0 0 2 4 7 5 4 4
12 11 9 0 8 2 2 1 2 0 0 12 20 26 29 4 3 6 11 0 5 4 6 7 1 0 0 0 0 0 0 0 0 0 0 0 0 0 1 1 0 3 3 4
46 30 10 4 0 1 6 4 29 20 13 30 52 35 31 26 7 1 5 0 1 9 5 14 3 2 1 1 0 0 0 0 0 0 1 0 1 0 1 1 2 2 5 4
43 111 98 4 16 3 2 20 7 23 19 5 5 20 20 38 20 11 8 4 0 10 10 3 1 0 0 0 0 0 1 1 1 1 1 1 1 1 1 1 3 3 3 4
18 38 43 43 99 106 50 11 13 25 91 13 31 35 67 15 44 16 9 12 21 4 7 2 8 2 0 0 0 0 2 0 0 1 1 0 1 1 1 1 1 2 2 3
10 3 2 8 13 12 8 56 92 43 29 55 47 129 121 22 0 12 24 7 0 9 5 19 21 1 0 0 0 2 5 0 1 1 0 0 1 1 1 1 1 2 1 2
7 5 11 13 18 17 40 175 101 60 41 3 13 203 182 50 0 0 15 11 7 0 0 0 0 0 0 0 0 3 2 0 3 2 0 0 1 1 1 2 0 1 1 1
9 10 13 3 6 18 74 172 114 20 39 39 7 25 73 1 1 1 7 5 0 0 4 6 0 0 0 10 7 3 8 13 2 3 1 1 2 2 2 1 1 1 1 1
1 0 5 11 17 31 49 22 2 1 9 31 10 12 5 3 10 15 6 6 15 3 10 14 8 13 31 28 46 3 47 27 4 0 2 2 0 2 3 0 2 2 1 1
0 0 6 4 8 1 2 0 1 1 0 0 0 0 0 2 4 10 0 2 30 9 22 29 5 4 27 12 7 13 13 30 1 1 0 1 1 0 0 0 1 1 1 0

GFSNGP_con_mlcape_087.txt.gz
CAPE
0 0 0 0 0 0 0 114 145 249 90 117 28 0 0 0 0 0 0 0 0 1 2 1 0 3 1 0 17 9 18 53 12 38 368 933 1146 1861 1746 1730 1845 1627 1452 1499
0 0 0 0 0 0 0 101 53 103 226 126 3 1 5 0 0 0 0 0 0 0 0 0 0 1 1 0 0 0 0 2 13 11 219 333 700 1078 1289 1279 1241 1760 1704 1736
0 0 0 0 0 0 105 353 266 187 233 94 17 0 0 0 0 0 0 0 0 0 0 0 0 0 0 0 0 0 0 0 0 2 26 120 157 294 468 647 1160 1240 1271 1440
0 0 0 0 0 0 0 383 204 153 52 0 0 0 0 0 0 0 0 0 0 0 0 0 0 0 0 0 0 0 0 0 0 0 0 0 2 20 85 148 395 790 991 1122
0 0 0 0 0 0 167 472 331 171 18 0 0 0 0 0 0 0 0 0 0 0 0 0 0 0 0 0 0 0 0 0 0 0 0 0 0 0 0 0 6 117 363 675
4 0 0 0 0 0 12 115 351 23 0 0 0 0 0 0 0 0 0 0 0 0 0 0 0 0 0 0 0 0 0 0 0 0 0 0 0 0 0 0 0 0 0 88
0 0 0 0 0 0 0 11 254 18 0 0 0 0 0 0 0 0 0 0 0 0 0 0 0 0 0 0 0 0 0 0 0 0 0 0 0 0 0 0 0 0 0 0
0 0 0 0 0 0 17 0 0 3 0 0 0 0 0 0 0 0 0 0 0 0 0 0 0 0 0 0 0 0 0 0 0 0 0 0 0 0 0 0 0 0 0 1
63 0 0 0 0 0 0 0 0 0 0 0 0 0 0 0 0 0 0 0 0 0 0 0 0 0 0 0 0 0 0 0 0 0 0 0 0 0 0 0 0 0 0 0
45 5 0 0 0 0 0 0 0 0 0 0 0 0 0 0 0 0 0 0 0 0 0 0 0 0 0 0 0 0 0 0 0 0 0 0 0 0 0 0 0 0 0 0
0 5 0 0 0 0 0 0 0 0 0 0 0 0 0 0 0 0 0 0 0 0 0 0 0 0 0 0 0 0 0 0 0 0 0 0 0 0 0 0 0 0 0 0
0 4 3 16 0 0 0 0 0 0 0 0 0 0 0 0 0 0 0 0 0 0 0 0 0 0 0 0 0 0 0 0 0 0 0 0 0 0 0 0 0 0 0 0
0 0 0 0 0 5 0 0 0 0 0 0 0 0 0 0 0 0 0 0 0 0 0 0 0 0 0 0 0 0 0 0 0 0 0 0 0 0 0 0 0 0 0 0
0 3 12 7 0 0 0 0 0 0 0 0 0 0 0 0 0 0 0 0 0 0 0 0 0 0 0 0 0 0 0 0 0 0 0 0 0 0 0 0 0 0 0 0
0 0 0 1 0 0 0 0 0 0 0 0 0 0 0 0 0 0 0 0 0 0 0 0 0 0 0 0 0 0 0 0 0 0 0 0 0 0 0 0 0 0 0 0
1 0 0 1 3 4 2 2 1 0 0 0 0 0 0 0 0 0 0 0 0 0 0 0 0 0 0 0 0 0 0 0 0 0 0 0 0 0 0 0 0 0 0 0
0 1 0 0 3 5 18 6 4 10 0 0 0 5 0 0 0 0 0 0 0 0 0 0 0 0 0 0 0 0 0 0 0 0 0 0 0 0 0 0 0 0 0 0
0 0 0 0 1 6 1 15 15 5 7 3 21 12 1 0 0 0 0 0 0 0 0 0 0 0 0 0 0 0 0 0 0 0 0 0 0 0 0 0 0 0 0 0
22 1 0 7 0 0 0 12 1 2 16 0 1 7 0 1 0 0 0 0 0 0 0 0 0 0 0 0 0 0 0 0 0 0 0 0 0 0 0 0 0 0 0 1
74 60 42 58 18 1 0 0 10 4 2 0 0 0 11 14 7 7 11 0 0 0 0 0 0 0 0 0 0 0 0 0 0 0 0 0 0 0 0 0 0 0 1 1
11 19 39 42 24 10 20 9 11 21 32 15 11 14 7 46 18 19 16 1 0 0 0 0 0 0 0 0 0 0 0 0 0 0 0 0 0 0 0 0 0 1 0 2
0 0 0 1 5 6 22 19 30 41 44 26 4 0 0 13 19 26 14 1 0 3 2 1 1 1 0 0 0 0 0 0 0 0 0 0 0 0 0 0 1 1 2 2
0 0 0 0 0 1 2 3 11 39 84 32 14 0 5 17 6 3 12 7 3 10 3 1 1 10 0 0 0 0 0 0 0 0 0 0 0 0 0 0 2 0 1 1
0 0 16 5 0 0 0 0 0 21 30 34 37 19 18 52 23 16 9 0 0 0 1 12 6 13 5 0 0 0 0 0 0 0 0 0 0 0 0 0 1 0 1 2
0 0 0 0 0 0 0 0 0 0 17 77 21 18 3 40 32 3 0 0 0 0 4 1 1 0 0 0 0 0 3 0 0 0 0 0 0 0 0 1 0 1 1 1
0 0 0 0 0 0 0 0 0 0 2 40 11 1 1 1 1 0 0 0 2 16 5 7 17 0 0 0 0 24 6 6 9 0 0 0 0 0 0 0 0 0 1 0
0 0 0 0 0 0 0 0 0 0 0 1 0 0 0 3 3 11 4 4 12 7 8 7 5 1 3 1 21 6 3 0 0 0 0 0 0 0 0 0 0 0 0 0

GFSNGP_con_mlcape_093.txt.gz
CAPE
0 0 0 0 0 0 0 0 0 0 0 25 30 10 2 4 1 1 1 1 2 14 32 33 7 43 98 113 94 57 56 38 35 62 115 158 193 261 414 706 941 870 733 721
0 0 0 0 0 0 0 0 32 14 18 65 0 0 0 0 0 0 0 1 1 1 0 7 3 15 31 59 30 18 54 53 69 42 11 14 22 63 148 229 325 578 806 970
8 0 0 0 0 0 76 115 38 4 17 36 13 3 0 0 0 0 1 1 1 1 1 0 1 1 0 0 0 1 0 5 5 3 8 8 1 0 5 16 51 148 327 521
1 0 0 0 0 2 414 246 204 47 35 29 5 0 0 0 0 0 0 0 0 0 0 2 2 1 0 0 0 0 1 3 3 3 0 1 0 0 0 2 0 6 78 118
0 0 0 0 0 0 7 110 234 64 14 0 0 0 0 0 0 0 0 0 0 0 0 0 0 0 0 0 0 0 0 0 0 0 0 0 0 0 0 0 0 0 0 23
0 0 0 0 0 0 0 62 136 112 5 0 0 0 0 0 0 0 0 0 0 0 0 0 0 0 0 0 0 0 0 0 0 0 0 0 0 0 0 0 0 0 0 77
0 0 0 0 0 0 0 0 3 0 0 0 0 0 0 0 0 0 0 0 0 0 0 0 0 0 0 0 0 0 0 0 0 0 0 0 0 0 0 0 0 6 0 0
0 0 1 0 0 0 0 0 0 0 0 0 0 0 0 0 0 0 0 0 0 0 0 0 0 0 0 0 0 0 0 0 0 0 0 0 0 0 0 0 0 0 0 0
0 0 0 0 0 0 0 6 0 0 0 0 0 0 0 0 0 0 0 0 0 0 0 0 0 0 0 0 0 0 0 0 0 0 0 0 0 0 0 0 0 0 0 0
0 0 0 0 0 0 0 0 0 0 0 0 0 0 0 0 0 0 0 0 0 0 0 0 0 0 0 0 0 0 0 0 0 0 0 0 0 0 0 0 0 0 0 0
0 0 0 0 0 0 0 0 0 0 0 0 0 0 0 0 0 0 0 0 0 0 0 0 0 0 0 0 0 0 0 0 0 0 0 0 0 0 0 0 0 0 0 0
0 0 0 0 0 0 0 0 0 0 0 0 0 0 0 0 0 0 0 0 0 0 0 0 0 0 0 0 0 0 0 0 0 0 0 0 0 0 0 0 0 0 0 0
0 0 0 0 0 0 0 0 0 0 0 0 0 0 0 0 0 0 0 0 0 0 0 0 0 0 0 0 0 0 0 0 0 0 0 0 0 0 0 0 0 0 0 0
0 0 0 0 0 0 0 0 0 0 0 0 0 0 0 0 0 0 0 0 0 0 0 0 0 0 0 0 0 0 0 0 0 0 0 0 0 0 0 0 0 0 0 0
0 0 0 0 0 1 0 0 0 0 0 0 0 0 0 0 0 0 0 0 0 0 0 0 0 0 0 0 0 0 0 0 0 0 0 0 0 0 0 0 0 0 0 0
0 0 0 0 0 0 0 0 0 0 0 0 0 0 0 0 0 0 0 0 0 0 0 0 0 0 0 0 0 0 0 0 0 0 0 0 0 0 0 0 0 0 0 0
0 0 0 0 0 0 0 0 0 0 0 0 0 0 0 0 0 0 0 0 0 0 0 0 0 0 0 0 0 0 0 0 0 0 0 0 0 0 0 0 0 0 0 0
0 0 0 0 0 0 0 0 0 0 3 1 0 0 0 0 0 0 0 0 0 0 0 0 0 0 0 0 0 0 0 0 0 0 0 0 0 0 0 0 0 0 0 0
0 0 0 0 0 0 0 0 0 0 0 0 0 0 0 0 0 0 0 0 0 0 0 0 0 0 0 0 0 0 0 0 0 0 0 0 0 0 0 0 0 0 0 0
0 0 3 1 0 1 0 0 0 0 0 0 0 0 5 0 0 0 0 0 0 0 0 0 0 0 0 0 0 0 0 0 0 0 0 0 0 0 0 0 0 0 0 0
0 0 0 6 8 4 6 6 8 2 0 0 0 0 3 8 2 0 0 0 0 0 0 0 0 0 0 0 0 0 0 0 0 0 0 0 0 0 0 0 0 0 0 0
0 0 0 0 0 0 0 0 0 0 0 0 13 9 6 10 7 4 1 0 0 0 0 0 0 0 0 0 0 0 0 0 0 0 0 0 0 0 0 0 0 0 0 0
0 0 0 0 0 0 0 0 0 0 0 0 0 0 0 1 3 13 14 7 3 8 5 0 0 0 0 0 0 0 0 0 0 0 0 0 0 0 0 0 0 0 0 0
0 0 0 0 0 0 0 0 0 0 0 0 0 0 0 0 0 0 0 0 0 0 0 2 0 0 0 0 0 0 0 0 0 0 0 0 0 0 0 0 0 0 0 0
0 0 0 0 0 0 0 0 0 0 0 0 0 0 0 0 0 0 0 0 24 16 8 6 0 0 0 0 0 0 0 0 0 0 0 0 0 0 0 0 0 0 0 0
0 0 0 0 0 0 0 0 0 0 0 0 0 0 0 0 1 7 3 5 62 53 6 8 4 1 1 0 5 0 8 0 0 0 0 0 0 0 0 0 0 0 0 0
0 0 0 0 0 0 0 0 0 0 0 0 0 0 0 0 0 8 3 0 1 1 3 1 2 0 0 7 5 6 1 0 0 0 0 0 0 0 0 0 0 0 0 0

GFSNGP_con_mlcape_096.txt.gz
CAPE
0 0 0 0 0 0 0 0 0 0 0 0 101 87 72 15 13 2 3 33 128 112 56 42 91 113 120 109 84 47 45 6 19 19 4 11 20 91 135 247 405 652 736 619
0 0 0 0 0 0 0 0 8 0 0 18 51 49 25 16 14 8 16 1 6 25 26 31 46 82 85 76 74 60 44 12 4 18 9 0 12 0 0 0 21 112 298 498
0 0 0 0 0 0 0 17 53 0 29 120 134 111 14 1 0 3 5 4 22 10 1 1 0 0 5 8 9 0 0 4 7 4 20 3 4 0 0 0 0 0 2 32
0 0 5 0 0 0 105 192 134 91 83 136 68 1 0 0 0 0 0 0 0 2 2 1 1 0 0 0 0 0 0 0 1 3 2 2 0 0 0 0 0 0 0 5
0 0 0 0 0 0 4 114 174 94 96 16 0 0 0 0 0 0 0 0 0 0 0 0 0 0 0 0 0 0 0 0 0 0 0 0 0 0 0 0 0 0 0 62
0 0 0 0 0 0 0 41 137 70 25 15 16 26 0 0 0 0 0 0 0 0 0 0 0 0 0 0 0 0 0 0 0 0 0 0 0 0 0 0 0 0 2 0
0 0 0 0 0 0 0 1 127 48 0 0 6 0 0 0 0 0 0 0 0 0 0 0 0 0 0 0 0 0 0 0 0 0 0 0 0 0 0 0 0 0 0 0
0 0 0 0 0 0 0 0 9 0 0 0 0 0 0 0 0 0 0 0 0 0 0 0 0 0 0 0 0 0 0 0 0 0 0 0 0 0 0 0 0 0 0 0
0 0 0 0 0 0 0 11 0 4 0 0 0 0 0 0 0 0 0 0 0 0 0 0 0 0 0 0 0 0 0 0 0 0 0 0 0 0 0 0 0 0 0 0
0 0 0 0 0 0 0 5 0 0 0 0 0 0 0 0 0 0 0 0 0 0 0 0 0 0 0 0 0 0 0 0 0 0 0 0 0 0 0 0 0 0 0 0
0 0 0 0 0 0 0 0 2 0 0 0 0 0 0 0 0 0 0 0 0 0 0 0 0 0 0 0 0 0 0 0 0 0 0 0 0 0 0 0 0 0 0 0
0 0 0 0 0 0 0 0 2 8 0 0 0 0 0 0 0 0 0 0 0 0 0 0 0 0 0 0 0 0 0 0 0 0 0 0 0 0 0 0 0 0 0 0
0 0 0 0 0 0 0 0 0 0 0 0 0 0 0 0 0 0 0 0 0 0 0 0 0 0 0 0 0 0 0 0 0 0 0 0 0 0 0 0 0 0 0 0
0 0 0 0 0 0 0 0 0 0 0 0 0 0 0 0 0 0 0 0 0 0 0 0 0 0 0 0 0 0 0 0 0 0 0 0 0 0 0 0 0 0 0 0
0 0 0 0 0 0 0 0 0 0 0 0 0 0 0 0 0 0 0 0 0 0 0 0 0 0 0 0 0 0 0 0 0 0 0 0 0 0 0 0 0 0 0 0
0 0 0 0 0 0 0 0 0 0 0 0 0 0 0 0 0 0 0 0 0 0 0 0 0 0 0 0 0 0 0 0 0 0 0 0 0 0 0 0 0 0 0 0
0 0 0 0 0 0 0 0 0 0 0 0 0 0 0 0 0 0 0 0 0 0 0 0 0 0 0 0 0 0 0 0 0 0 0 0 0 0 0 0 0 0 0 0
0 0 0 0 0 0 0 0 0 0 0 0 0 0 0 0 1 0 0 0 0 0 0 0 0 0 0 0 0 0 0 0 0 0 0 0 0 0 0 0 0 0 0 0
0 0 0 0 0 0 0 0 0 0 0 0 0 0 4 0 2 0 0 0 0 0 0 0 0 0 0 0 0 0 0 0 0 0 0 0 0 0 0 0 0 0 0 0
0 0 0 0 0 0 1 0 0 0 0 0 0 0 0 0 0 0 0 0 0 0 0 0 0 0 0 0 0 0 0 0 0 0 0 0 0 0 0 0 0 0 0 0
0 0 0 0 0 0 0 0 0 0 0 0 0 0 0 0 0 0 0 0 0 0 0 0 0 0 0 0 0 0 0 0 0 0 0 0 0 0 0 0 0 0 0 0
0 0 0 0 0 0 0 0 0 0 0 0 0 0 0 4 17 9 4 1 0 0 0 0 0 0 0 0 0 0 0 0 0 0 0 0 0 0 0 0 0 0 0 0
0 0 0 0 0 0 0 0 0 0 0 0 0 0 0 0 0 1 3 6 12 6 0 0 0 0 0 0 0 0 0 0 0 0 0 0 0 0 0 0 0 0 0 0
0 0 0 0 0 0 0 0 0 0 0 0 0 0 0 0 0 0 0 0 0 0 0 1 0 4 0 4 0 0 0 0 0 0 0 0 0 0 0 0 0 0 0 0
0 0 0 0 0 0 0 0 0 0 0 0 0 0 0 0 3 4 3 1 0 0 0 0 1 3 7 2 5 0 0 0 0 0 0 0 0 0 0 0 0 0 0 0
0 0 0 0 0 0 0 0 0 0 0 0 0 0 0 0 0 1 3 9 9 3 1 0 21 41 19 5 2 0 0 1 0 0 0 0 0 0 0 0 0 0 0 0
0 0 0 0 0 0 0 0 0 0 0 0 0 0 0 0 0 0 0 0 0 0 4 32 3 5 4 1 1 1 0 0 0 0 0 0 0 0 0 0 0 0 0 0

GFSNGP_con_mlcape_099.txt.gz
CAPE
0 0 0 0 0 0 0 0 0 0 0 6 144 256 197 199 242 269 247 261 289 287 280 298 269 194 129 67 43 21 4 0 37 141 209 320 354 365 398 642 798 1021 1070 1130
9 0 0 0 0 0 0 0 0 9 0 68 269 205 181 182 180 220 262 191 186 226 186 147 211 187 140 88 65 30 46 48 41 26 60 116 159 172 190 246 334 403 453 533
14 0 0 0 0 0 0 22 35 31 100 328 178 291 179 122 98 115 102 113 159 121 71 67 115 84 76 84 43 53 83 67 18 4 0 3 44 66 48 44 68 80 119 217
15 1 14 0 0 0 19 236 248 199 134 240 224 218 64 19 29 25 18 19 15 0 0 0 0 0 0 0 0 0 0 0 2 2 0 0 11 25 22 15 6 7 132 0
1 15 1 0 0 0 0 57 247 220 186 106 42 2 2 4 14 0 1 0 1 2 2 1 0 0 0 0 0 0 0 0 0 2 1 1 1 0 0 0 0 40 0 0
17 15 15 0 0 0 0 78 294 223 151 73 66 132 5 0 0 1 1 1 2 3 3 0 0 0 0 0 0 0 0 0 0 0 0 0 0 0 0 0 3 3 1 0
5 0 9 0 0 0 34 15 232 280 72 100 147 55 0 0 2 4 2 0 0 0 0 0 0 0 0 0 0 0 0 0 0 0 0 0 0 0 0 0 0 0 0 0
0 0 2 2 2 0 0 0 88 64 2 0 0 0 0 0 3 0 0 0 0 0 0 0 0 0 0 0 0 0 0 0 0 0 0 0 0 0 0 0 0 0 0 0
2 10 0 0 0 0 0 0 10 9 0 0 0 0 0 0 0 1 0 0 0 0 0 0 0 0 0 0 0 0 0 0 0 0 0 0 0 0 0 0 0 0 0 0
7 0 0 0 0 0 9 4 0 0 0 0 0 0 0 0 0 0 0 0 0 0 0 0 0 0 0 0 0 0 0 0 0 0 0 0 0 0 0 0 0 0 0 0
0 0 0 0 0 0 33 47 8 0 0 0 0 0 0 0 0 0 0 0 0 0 0 0 0 0 0 0 0 0 0 0 0 0 0 0 0 0 0 0 0 0 0 0
0 0 0 0 0 0 12 51 40 11 1 0 0 0 0 0 0 0 0 0 0 0 0 0 0 0 0 0 0 0 0 0 0 0 0 0 0 0 0 0 0 0 0 0
0 0 0 0 0 0 0 0 0 2 0 0 0 9 0 3 0 0 0 0 0 0 0 0 0 0 0 0 0 0 0 0 0 0 0 0 0 0 0 0 0 0 0 0
0 0 0 0 0 0 0 0 0 0 0 0 0 0 0 0 0 0 0 0 0 0 0 0 0 0 0 0 0 0 0 0 0 0 0 0 0 0 0 0 0 0 0 0
0 0 0 0 0 0 0 0 0 0 0 0 0 0 0 0 0 0 0 0 0 0 0 0 0 0 0 0 0 0 0 0 0 0 0 0 0 0 0 0 0 0 0 0
0 0 0 0 0 0 0 0 0 0 0 0 0 0 0 0 0 0 0 0 0 0 0 0 0 0 0 0 0 0 0 0 0 0 0 0 0 0 0 0 0 0 0 0
0 0 0 0 0 0 0 0 0 0 0 0 0 0 0 0 0 0 0 0 0 0 0 0 0 0 0 0 0 0 0 0 0 0 0 0 0 0 0 0 0 0 0 0
0 0 0 0 0 0 0 0 0 0 0 0 0 0 0 0 2 1 4 1 0 0 0 0 0 0 0 0 0 0 0 0 0 0 0 0 0 0 0 0 0 0 0 0
0 0 0 0 0 0 0 0 0 0 0 0 0 0 0 0 0 1 10 0 0 0 0 0 0 0 0 0 0 0 0 0 0 0 0 0 0 0 0 0 0 0 0 0
0 0 0 0 0 0 0 0 0 0 0 0 0 0 0 0 0 0 0 0 2 1 0 0 0 0 0 0 0 0 0 0 0 0 0 0 0 0 0 0 0 0 0 0
0 0 0 0 0 0 0 0 0 0 0 0 0 0 0 0 0 0 0 0 0 0 0 0 0 0 0 0 0 0 0 0 0 0 0 0 0 0 0 0 0 0 0 0
0 0 0 0 0 0 0 0 0 0 0 0 0 0 0 0 0 3 7 9 24 8 0 0 0 0 0 0 0 1 0 0 0 0 0 0 0 0 0 0 0 0 0 0
0 0 0 0 0 0 0 0 0 0 0 0 0 0 0 0 1 0 0 13 56 78 25 7 0 0 0 0 0 0 10 0 0 0 0 0 0 0 0 0 0 0 0 0
0 0 0 0 0 0 0 0 0 0 0 0 0 0 0 0 0 3 9 4 0 0 1 42 47 0 0 5 2 0 0 6 4 0 0 0 0 0 0 0 0 0 0 0
0 0 0 0 0 0 0 0 0 0 0 0 0 0 0 0 2 0 6 8 9 5 1 1 1 10 4 6 4 2 2 0 0 1 7 15 8 5 1 0 0 0 0 0
0 0 0 0 0 0 0 0 0 0 0 0 0 0 0 0 0 0 8 3 8 4 10 22 9 14 41 51 39 11 3 2 0 0 0 0 15 28 18 10 5 0 0 0
0 0 0 0 0 0 0 0 0 0 0 0 0 0 0 0 0 0 0 19 6 8 2 1 1 0 5 78 100 24 7 2 1 1 2 0 10 49 45 17 6 0 0 0

GFSNGP_con_mlcape_102.txt.gz
CAPE
17 3 0 31 24 0 0 0 0 0 0 0 338 662 869 779 585 676 606 600 643 630 659 682 570 381 176 30 12 30 88 95 327 632 696 794 726 945 969 981 651 931 888 1235
35 32 33 10 0 0 0 0 0 0 3 184 612 752 802 722 672 587 646 603 691 673 700 701 584 475 291 185 131 86 6 7 31 42 191 483 729 914 967 1130 1307 1364 1448 1417
29 81 61 33 28 4 5 5 0 1 66 470 771 754 714 714 619 646 552 579 700 852 759 749 777 624 516 268 122 74 13 3 6 44 43 135 221 416 576 676 804 823 873 884
50 100 30 110 37 28 8 47 324 253 379 564 772 681 680 595 500 400 327 257 196 140 101 83 173 341 304 212 187 164 95 43 49 23 4 1 21 42 148 215 315 436 256 47
82 82 90 33 21 7 8 154 415 551 540 486 559 388 261 194 236 186 60 22 3 4 2 1 0 2 4 1 1 1 0 2 4 1 0 0 0 14 44 106 199 281 45 0
110 47 42 79 0 0 0 74 191 430 435 316 186 289 216 138 110 3 5 2 3 5 6 2 2 1 0 1 0 0 0 0 0 0 10 13 17 0 0 70 45 0 0 0
41 29 108 63 2 2 28 72 136 297 279 244 230 93 101 36 10 4 5 5 5 2 3 4 0 0 0 0 0 0 0 0 0 0 0 1 0 3 3 0 0 0 0 0
121 59 49 119 141 118 109 35 106 212 80 33 13 37 68 5 4 3 2 1 0 0 0 0 0 0 0 0 0 0 0 0 0 0 0 0 3 5 1 0 0 0 0 0
175 261 222 233 239 261 219 118 193 244 2 18 22 38 6 5 3 1 0 0 0 0 0 0 0 0 0 0 0 0 0 0 0 0 0 0 0 0 0 0 0 0 0 0
176 130 81 51 62 335 361 260 246 159 2 8 2 10 7 3 2 0 0 0 0 0 0 0 0 0 0 0 0 0 0 0 0 0 0 0 0 0 0 0 0 0 0 0
187 71 39 23 4 144 383 422 252 158 29 0 0 2 2 0 0 1 0 0 0 0 0 0 0 0 0 0 0 0 0 0 0 0 0 0 0 0 0 0 0 0 0 0
174 238 267 34 0 44 196 283 267 124 13 1 0 0 0 0 0 0 0 0 0 0 0 0 0 0 0 0 0 0 0 0 0 0 0 0 0 0 0 0 0 0 0 0
202 65 68 0 0 0 14 96 167 161 90 32 9 0 0 14 9 3 0 0 0 0 0 0 0 0 0 0 0 0 0 0 0 0 0 0 0 0 0 0 0 0 0 0
5 12 18 0 0 0 0 0 0 56 117 110 82 29 31 3 0 9 3 0 0 0 0 0 0 0 0 0 0 0 0 0 0 0 0 0 0 0 0 0 0 0 0 0
0 0 4 0 0 0 0 0 0 7 60 82 103 95 86 90 69 49 15 0 0 0 0 0 0 0 0 0 0 0 0 0 0 0 0 0 0 0 0 0 0 0 0 0
0 0 0 0 0 0 0 0 0 0 0 16 37 44 44 44 68 66 16 0 0 0 0 0 0 0 0 0 0 0 0 0 0 0 0 0 0 0 0 0 0 0 0 0
0 0 0 0 0 0 0 0 0 0 0 0 0 4 20 28 39 56 30 0 0 0 0 0 0 0 0 0 0 0 0 0 0 0 0 0 0 0 0 0 0 0 0 0
0 0 0 0 0 0 0 0 0 0 0 0 0 0 13 16 34 50 71 64 48 34 26 8 0 0 0 0 0 0 0 0 0 0 0 0 0 0 0 0 0 0 0 0
0 0 0 0 0 0 0 0 0 0 0 0 0 0 1 3 29 38 58 49 43 42 49 31 0 0 0 0 0 0 0 0 0 0 0 0 0 0 0 0 0 0 0 0
0 0 0 0 0 0 2 3 6 9 5 0 0 0 0 4 11 8 23 42 53 43 52 55 12 0 0 0 0 0 0 0 0 0 0 0 0 0 0 0 0 0 0 0
0 0 0 3 4 0 0 11 22 32 17 0 0 2 4 6 12 21 28 25 46 54 40 13 6 8 1 0 0 0 0 0 0 0 0 0 0 0 0 0 0 0 0 0
0 0 2 0 0 0 2 6 1 0 0 0 0 0 0 0 0 0 1 10 27 3 17 38 36 20 4 0 0 0 0 0 0 0 0 0 0 0 0 1 1 2 0 0
0 1 0 0 0 0 0 0 0 0 0 0 1 1 0 0 0 0 0 1 1 1 0 1 32 3 3 10 2 0 0 0 0 0 0 0 0 0 1 2 3 4 4 3
0 0 0 0 0 0 0 0 0 0 0 0 1 0 0 0 0 0 9 4 0 0 0 2 4 7 0 35 55 24 1 0 0 3 5 0 4 6 9 15 13 13 13 3
0 0 0 0 0 0 0 0 0 0 0 0 0 0 0 0 0 5 10 11 0 2 12 11 2 1 10 28 9 1 1 3 0 0 1 12 13 9 25 19 25 29 29 32
0 0 0 0 0 0 0 0 0 0 0 0 0 0 1 2 3 15 21 8 11 8 14 4 0 6 14 23 19 21 8 3 3 1 2 0 7 22 31 35 35 56 41 31
0 0 0 0 0 0 0 0 0 0 0 3 14 7 5 3 7 0 3 29 30 32 22 21 11 1 0 0 13 58 103 72 15 5 1 2 7 8 14 19 16 29 23 37

GFSNGP_con_mlcape_105.txt.gz
CAPE
11 0 0 1 5 0 0 0 15 24 26 38 504 674 1088 1291 1301 1525 1220 866 701 904 656 576 702 542 424 245 166 66 42 230 315 701 915 790 835 932 486 533 626 711 761 1040
20 1 0 3 16 15 20 3 2 0 5 135 831 919 1213 1150 900 1012 981 1069 1078 1117 989 921 1034 915 644 459 369 149 96 149 334 489 879 931 831 938 879 788 669 735 818 1025
28 19 22 2 14 26 8 9 21 25 9 537 550 807 1040 1053 865 774 1146 881 1014 816 885 950 1015 949 793 520 300 276 160 111 106 175 91 135 435 675 742 759 901 1040 958 1069
65 32 30 89 50 68 38 51 62 101 62 521 587 1026 987 985 852 770 665 910 753 645 599 678 902 910 837 641 640 364 360 135 39 7 5 58 69 125 262 395 599 585 526 216
94 41 3 9 94 101 54 174 322 227 221 433 1034 1047 639 654 614 642 393 146 70 24 16 6 68 460 703 579 487 424 340 278 204 148 58 15 11 25 47 125 218 177 116 58
219 162 52 73 4 9 35 48 113 65 565 746 743 574 632 408 266 141 5 7 7 7 8 3 3 4 13 17 26 17 28 29 16 9 0 0 0 0 0 8 17 27 0 0
136 99 127 36 4 0 42 154 127 329 519 437 621 474 632 369 72 4 6 7 6 4 6 6 2 1 4 2 3 2 0 0 0 0 0 1 1 12 2 1 0 0 0 0
177 60 0 108 167 220 252 227 185 348 292 244 127 227 42 3 5 7 7 5 2 1 1 0 0 0 1 1 0 0 0 0 0 0 0 0 8 1 1 2 0 0 0 0
23 133 337 297 337 403 293 246 258 334 187 181 150 14 5 6 6 5 4 0 0 0 0 0 0 0 0 0 0 0 0 0 0 0 1 11 6 4 1 0 0 0 0 0
212 256 229 235 424 556 535 378 337 345 96 83 1 4 4 5 4 3 0 0 0 0 0 0 0 0 0 0 0 0 0 0 0 0 0 4 8 0 1 7 7 6 2 0
231 92 160 94 221 449 626 550 394 288 124 0 0 2 1 3 5 3 0 0 0 0 0 0 0 0 0 0 0 0 0 0 0 0 0 0 0 0 0 0 0 0 0 0
320 385 435 209 65 245 342 513 402 186 61 0 0 0 0 0 0 0 0 0 0 0 0 0 0 0 0 0 0 0 0 0 0 0 0 0 0 0 0 0 0 0 0 0
519 337 399 129 6 11 61 212 418 366 73 0 0 0 0 0 0 0 0 0 0 0 0 0 0 0 0 0 0 0 0 0 0 0 0 0 0 0 0 0 0 0 0 0
255 252 215 99 103 9 0 2 72 361 320 69 1 14 1 0 0 2 0 0 4 4 0 0 0 0 0 0 0 0 0 0 0 0 0 0 0 0 0 0 0 0 0 0
228 228 260 206 121 61 1 0 18 127 204 162 85 43 65 6 6 0 11 22 22 28 0 0 0 0 0 0 0 0 0 0 0 0 0 0 0 0 0 0 0 0 0 0
141 46 7 0 1 0 0 5 10 29 65 101 148 103 98 95 62 29 42 28 48 55 28 0 0 0 0 0 0 0 0 0 0 0 0 0 0 0 0 0 0 0 0 0
60 1 0 0 0 0 0 0 2 41 46 28 29 68 105 124 100 101 129 94 46 42 49 16 0 0 0 0 0 0 0 0 0 0 0 0 0 0 0 0 0 0 0 0
0 0 0 0 0 0 0 0 0 0 0 11 30 32 34 89 100 83 105 104 17 4 13 19 9 0 0 0 0 0 0 0 0 0 0 0 0 0 0 0 0 0 0 0
0 0 0 0 0 0 2 1 2 7 3 1 1 4 23 40 53 38 56 61 34 37 37 33 4 0 0 0 0 0 0 0 0 0 0 0 0 0 0 0 0 0 0 0
0 0 0 0 0 0 4 9 15 26 32 31 25 16 15 19 33 30 39 40 31 30 77 87 60 16 4 5 0 0 0 0 0 0 0 0 0 0 0 0 0 0 0 0
0 0 0 0 0 2 1 1 8 15 29 31 10 3 7 8 15 21 24 27 50 73 92 55 50 32 41 18 8 0 0 0 0 0 0 0 0 0 0 0 0 0 0 0
0 0 4 12 21 20 11 2 2 9 9 2 0 0 0 0 0 0 1 0 21 5 27 31 45 21 32 31 17 14 8 0 0 0 0 0 0 0 0 0 1 0 0 0
0 0 6 20 21 21 13 1 0 0 0 0 0 2 1 0 1 0 2 5 0 1 0 1 11 5 7 26 37 33 29 11 3 0 0 1 1 0 0 1 1 1 4 5
0 0 1 7 11 1 0 0 0 0 0 1 1 1 0 1 7 5 1 0 0 0 0 4 0 0 0 9 20 23 13 20 22 0 0 0 0 0 0 2 1 11 12 14
1 1 1 0 0 0 0 3 0 0 0 6 2 0 0 0 1 3 7 1 0 1 11 0 0 0 1 12 19 5 35 47 17 4 2 4 0 0 0 4 6 9 17 21
46 23 11 1 0 0 1 0 0 2 5 10 8 9 13 13 7 4 26 10 19 10 27 24 0 5 12 22 23 16 38 94 28 17 23 35 1 0 0 16 16 15 13 25
0 0 6 0 0 0 0 0 0 1 0 4 12 16 15 18 20 1 6 16 26 21 21 23 35 14 5 0 1 8 46 30 29 43 37 12 4 0 1 1 5 19 15 6

GFSNGP_con_mlcape_108.txt.gz
CAPE
0 6 3 2 1 3 0 0 3 20 69 579 472 496 514 834 1031 1121 1047 694 566 355 301 250 108 81 638 575 471 559 533 574 460 487 648 646 614 561 432 805 741 608 794 769
10 0 0 0 0 5 13 0 0 5 3 281 512 750 860 1293 1573 1302 891 683 861 922 658 668 617 407 288 335 390 321 136 81 43 80 144 369 415 584 781 756 563 585 583 659
1 3 1 0 0 0 41 22 5 4 237 34 306 322 375 866 1114 1373 1265 1131 1073 1067 956 950 878 943 624 806 693 494 291 123 146 165 73 170 215 468 636 405 384 579 737 890
41 52 28 60 19 32 4 26 117 288 274 207 440 0 0 481 909 949 1004 737 683 812 975 895 587 641 753 911 733 395 344 312 205 151 53 21 84 105 133 177 235 390 228 71
7 31 35 112 52 28 0 205 212 122 44 2 78 97 329 489 754 656 366 71 9 3 3 34 169 674 644 700 589 528 379 214 159 78 0 0 8 11 41 82 90 29 1 0
268 40 135 137 49 7 0 88 234 274 304 15 0 59 75 403 188 90 0 2 3 6 2 0 2 74 193 290 347 274 284 223 186 139 25 2 0 0 0 32 7 0 0 0
109 132 246 62 25 0 1 131 119 162 299 476 251 128 67 27 4 4 4 6 4 5 5 5 3 1 0 2 1 2 0 19 35 25 4 0 0 8 0 0 0 0 0 0
116 24 36 4 98 31 202 135 125 174 199 383 410 110 24 4 4 5 5 4 3 2 3 3 2 0 3 3 1 0 0 0 0 0 0 0 0 0 0 0 0 0 0 0
0 84 27 177 203 284 214 265 299 297 321 157 2 4 6 5 5 4 3 4 1 0 0 0 0 0 0 0 0 0 0 0 0 2 0 0 0 0 0 0 0 0 0 0
208 18 48 201 372 508 493 485 474 365 66 0 0 3 3 3 3 2 0 0 0 0 0 0 0 0 0 0 0 0 0 0 0 0 0 0 0 0 0 0 0 0 0 0
158 266 235 230 422 507 607 484 448 284 14 0 0 2 2 2 2 0 0 0 0 0 0 0 0 0 0 0 0 0 0 0 0 0 0 0 0 0 0 0 0 0 0 0
310 321 407 332 214 281 638 543 455 253 43 2 0 0 0 0 0 0 0 0 0 0 0 0 0 0 0 0 0 0 0 0 0 0 0 0 0 0 0 0 0 0 0 0
418 345 239 192 72 71 115 789 547 358 143 4 1 0 0 0 0 0 0 0 0 0 0 0 0 0 0 0 0 0 0 0 0 0 0 0 0 0 0 0 0 0 0 0
444 279 236 37 33 9 6 70 560 302 43 1 0 0 0 0 0 0 0 0 0 0 0 0 0 0 0 0 0 0 0 0 0 0 0 0 0 0 0 0 0 0 0 0
126 85 98 70 176 48 23 8 88 413 246 129 8 1 1 3 8 6 1 0 0 0 0 0 0 0 0 0 0 0 0 0 0 0 0 0 0 0 0 0 0 0 0 0
136 78 38 118 22 27 20 33 25 186 323 218 157 134 74 41 7 12 15 21 1 0 0 0 0 0 0 0 0 0 0 0 0 0 0 0 0 0 0 0 0 0 0 0
105 34 1 0 1 6 4 6 22 31 22 214 190 151 170 198 133 97 44 37 36 17 11 11 7 3 0 0 0 0 0 0 0 0 0 0 0 0 0 0 0 0 0 0
60 12 1 0 0 0 0 0 0 0 5 12 35 40 47 91 63 67 56 63 63 69 64 52 19 5 0 0 0 0 0 0 0 0 0 0 0 0 0 0 0 0 0 0
0 0 0 0 0 0 0 0 0 1 0 0 0 0 0 18 27 46 54 80 28 35 71 70 61 29 6 0 0 0 0 0 0 0 0 0 0 0 0 0 0 0 0 0
0 0 0 0 0 0 0 0 0 5 5 6 3 3 0 0 1 13 13 25 48 41 68 60 52 33 18 23 0 0 0 0 0 0 0 0 0 0 0 0 0 0 0 0
0 0 0 0 0 0 0 2 6 10 14 17 11 0 0 10 10 3 0 3 27 26 76 98 79 92 56 39 16 1 0 0 2 0 0 0 0 0 0 0 0 0 0 0
0 0 0 0 1 2 9 5 5 6 15 23 0 0 0 0 0 0 0 6 2 0 2 27 20 3 8 13 43 32 17 9 1 0 5 1 0 0 0 0 2 2 0 0
0 0 0 0 2 13 11 3 0 0 5 0 0 2 2 0 6 5 32 0 4 0 0 0 0 0 0 0 5 24 16 16 17 10 1 4 0 0 0 0 0 1 9 1
0 0 0 0 6 12 6 0 0 0 0 0 1 2 0 0 0 0 0 0 0 0 0 0 0 0 0 0 0 2 26 27 10 21 20 0 0 0 1 8 2 0 5 10
7 1 0 0 4 3 2 0 0 0 0 0 4 0 0 0 3 0 13 0 0 0 3 0 0 0 0 5 9 2 10 4 15 46 61 37 9 0 0 2 0 0 0 0
37 13 6 0 0 0 0 0 1 4 4 6 1 0 0 0 0 0 2 14 16 6 17 30 14 4 0 0 0 2 10 16 17 32 70 110 84 42 10 12 1 0 0 2
111 22 14 5 0 0 0 19 14 10 0 13 13 12 16 7 21 11 4 23 16 24 23 22 10 8 0 0 8 0 0 16 4 13 10 13 29 54 61 68 19 3 4 7

GFSNGP_con_mlcape_111.txt.gz
CAPE
0 3 0 0 0 3 3 0 0 123 160 182 17 112 98 54 241 338 202 125 256 210 186 153 52 14 2 0 22 33 345 481 413 273 510 660 533 418 663 471 657 508 666 680
0 4 1 0 2 0 0 9 0 426 278 155 0 8 120 210 633 812 669 511 467 456 204 39 31 47 0 0 0 161 256 262 298 248 283 364 310 379 355 345 352 354 447 427
0 14 3 0 2 0 15 337 311 377 402 398 4 5 0 0 11 2 447 570 709 804 595 363 94 1 49 7 79 163 184 169 166 125 96 141 121 197 256 125 147 117 172 25
83 0 32 113 1 1 144 342 193 173 194 12 0 0 0 90 158 88 44 30 178 387 412 496 823 363 359 244 307 267 228 264 250 154 104 76 79 73 110 113 96 100 25 0
51 7 103 158 25 0 94 147 194 345 0 149 48 0 0 0 0 3 4 0 2 4 2 2 87 574 563 429 349 311 336 344 267 150 62 18 0 0 49 38 4 0 0 0
138 127 87 152 55 2 0 108 346 382 334 338 249 44 52 1 6 0 0 0 1 4 2 1 2 1 254 428 421 458 352 281 230 110 24 0 0 0 0 0 0 0 0 0
7 17 96 7 38 32 0 53 206 196 363 113 73 55 2 2 1 2 2 1 2 4 3 3 2 1 0 2 2 0 211 295 236 117 32 15 1 0 0 0 0 0 0 0
2 26 0 0 24 60 83 52 243 264 316 102 15 0 2 4 4 3 2 2 2 3 3 2 2 2 2 2 2 1 1 2 2 7 0 0 1 0 0 0 0 0 0 0
4 28 14 0 0 0 59 436 401 175 37 2 0 0 0 2 3 2 3 1 0 0 0 0 0 0 0 1 0 0 0 0 0 0 0 0 0 0 0 0 0 0 0 0
54 74 64 0 1 245 429 373 161 115 17 0 0 4 4 3 1 0 0 0 0 0 0 0 0 0 0 0 0 0 0 0 0 0 0 0 0 0 0 0 0 0 0 0
121 9 6 198 469 584 615 394 191 26 0 0 1 2 1 0 0 0 0 0 0 0 0 0 0 0 0 0 0 0 0 0 0 0 0 0 0 0 0 0 0 0 0 0
226 65 223 324 369 612 490 289 193 10 0 1 0 0 0 0 0 0 0 0 0 0 0 0 0 0 0 0 0 0 0 0 0 0 0 0 0 0 0 0 0 0 0 0
386 380 145 107 111 683 506 456 164 4 0 0 0 0 0 0 0 0 0 0 0 0 0 0 0 0 0 0 0 0 0 0 0 0 0 0 0 0 0 0 0 0 0 0
328 256 165 150 3 197 643 481 259 15 0 0 0 0 0 0 0 0 0 0 0 0 0 0 0 0 0 0 0 0 0 0 0 0 0 0 0 0 0 0 0 0 0 0
300 188 131 53 47 9 2 421 225 52 9 1 1 0 0 0 0 0 0 0 0 0 0 0 0 0 0 0 0 0 0 0 0 0 0 0 0 0 0 0 0 0 0 0
130 35 121 114 34 18 24 23 222 139 44 20 15 0 0 1 0 0 0 0 0 0 0 0 0 0 0 0 0 0 0 0 0 0 0 0 0 0 0 0 0 0 0 0
93 19 0 0 1 0 0 0 16 263 230 71 33 12 1 13 7 10 20 24 28 12 3 3 0 0 0 0 0 0 0 0 0 0 0 0 0 0 0 0 0 0 0 0
36 8 0 0 0 0 0 0 0 0 53 4 92 189 130 99 23 25 42 45 40 39 24 28 24 1 0 0 0 0 0 0 0 0 0 0 0 0 0 0 0 0 0 0
3 0 0 0 0 0 0 0 0 0 0 0 0 0 4 0 1 57 62 84 63 36 22 36 45 18 0 0 0 0 0 0 0 0 0 0 0 0 0 0 0 0 0 0
0 0 0 0 0 0 0 0 0 0 0 0 0 0 0 0 0 0 7 12 12 31 42 40 44 35 16 8 3 0 0 0 0 0 0 0 0 0 0 0 0 0 0 0
0 0 0 0 0 0 0 0 0 0 5 0 0 0 0 0 0 0 0 0 0 0 32 84 70 32 42 31 19 0 0 0 0 0 0 0 0 0 0 0 0 0 0 0
0 0 0 0 0 0 0 0 0 0 6 6 3 0 0 0 0 0 0 0 0 0 5 4 3 1 2 16 28 14 4 0 1 10 1 1 0 0 0 0 0 0 0 0
0 0 0 0 0 0 0 0 0 0 0 0 0 0 0 0 0 0 0 0 0 0 0 0 0 0 0 0 0 0 10 15 15 11 25 16 6 3 0 0 1 2 0 0
0 0 0 0 0 0 1 0 0 0 0 0 0 0 0 0 0 0 0 0 0 0 0 0 0 0 0 0 0 0 0 0 1 7 15 20 6 1 0 0 1 11 0 1
0 0 0 0 0 0 0 0 0 0 0 0 0 0 0 0 0 0 0 0 0 0 0 0 0 0 0 0 0 0 0 0 1 1 0 8 12 0 0 0 0 0 0 0
73 0 0 0 0 0 0 0 0 0 0 4 0 0 0 0 0 1 7 1 0 0 15 0 0 0 0 0 0 0 0 0 0 0 0 0 5 8 5 0 0 0 0 1
433 200 58 30 2 0 0 0 0 0 0 2 0 0 0 0 0 0 1 9 0 0 8 21 11 0 0 0 0 0 0 0 0 0 0 0 0 0 0 0 0 3 0 1

GFSNGP_con_mlcape_114.txt.gz
CAPE
0 0 0 1 0 2 0 0 0 0 180 86 138 92 24 105 39 82 73 16 41 47 44 68 81 104 136 233 196 114 150 283 347 294 233 331 334 276 330 295 261 504 460 309
0 0 0 0 7 122 151 202 371 360 255 58 60 2 19 0 4 0 0 1 223 185 121 70 66 77 81 146 238 187 86 163 314 233 311 277 234 222 277 221 139 215 261 152
0 0 1 9 169 280 216 170 340 98 69 0 0 1 7 1 0 28 0 0 37 186 127 63 33 25 14 0 3 1 32 122 200 175 139 134 225 130 160 151 108 94 15 0
2 4 3 3 132 179 193 176 94 32 1 0 2 40 10 6 0 0 0 1 20 1 1 1 6 10 4 0 0 36 73 95 132 149 139 81 111 139 204 137 114 67 1 0
25 19 67 90 5 0 43 169 346 189 146 13 5 19 0 1 2 3 3 4 3 1 0 0 0 6 48 55 40 45 52 116 160 134 75 19 20 68 62 56 16 0 0 0
11 37 20 22 1 7 0 54 227 95 106 159 89 25 10 1 1 2 1 3 2 3 1 0 0 52 96 147 120 91 140 146 141 97 48 33 43 34 4 0 0 0 0 0
26 1 26 30 1 7 0 0 214 84 2 0 7 4 1 2 2 2 3 2 2 1 1 3 2 2 5 16 15 2 102 170 89 61 25 13 22 0 0 0 0 0 0 0
0 0 0 0 18 60 65 61 352 195 6 0 0 1 1 1 0 1 0 2 1 2 1 1 1 1 1 1 2 2 3 37 6 17 5 8 4 0 0 0 0 0 0 0
0 1 0 0 0 1 202 279 166 37 4 0 0 0 0 3 0 0 0 0 0 0 0 0 0 0 2 2 0 0 0 0 1 0 0 0 0 0 0 0 0 0 0 0
5 4 15 23 0 326 306 168 31 18 0 0 0 0 1 0 1 0 0 0 0 0 0 0 0 0 0 0 0 0 0 0 0 0 0 0 0 0 0 0 0 0 0 0
37 109 20 56 309 404 188 65 2 0 0 0 0 0 0 0 0 0 0 0 0 0 0 0 0 0 0 0 0 0 0 0 0 0 0 0 0 0 0 0 0 0 0 0
71 74 14 176 307 402 93 1 0 0 0 0 0 0 0 0 0 0 0 0 0 0 0 0 0 0 0 0 0 0 0 0 0 0 0 0 0 0 0 0 0 0 0 0
205 39 104 277 484 447 59 14 0 0 0 0 0 0 0 0 0 0 0 0 0 0 0 0 0 0 0 0 0 0 0 0 0 0 0 0 0 0 0 0 0 0 0 0
216 164 112 145 222 441 207 52 0 0 0 0 0 0 0 0 0 0 0 0 0 0 0 0 0 0 0 0 0 0 0 0 0 0 0 0 0 0 0 0 0 0 0 0
254 167 77 27 506 435 280 123 20 0 0 0 0 0 0 0 0 0 0 0 0 0 0 0 0 0 0 0 0 0 0 0 0 0 0 0 0 0 0 0 0 0 0 0
240 142 93 14 133 286 198 194 20 5 3 0 0 0 0 0 0 0 0 0 0 0 0 0 0 0 0 0 0 0 0 0 0 0 0 0 0 0 0 0 0 0 0 0
4 0 63 36 9 8 28 172 110 62 4 0 0 0 0 0 0 0 0 0 0 0 0 0 0 0 0 0 0 0 0 0 0 0 0 0 0 0 0 0 0 0 0 0
0 0 0 0 0 0 0 0 47 94 53 15 3 19 1 0 0 0 0 0 1 3 12 6 0 0 0 0 0 0 0 0 0 0 0 0 0 0 0 0 0 0 0 0
0 0 0 0 0 0 0 0 0 0 28 17 15 31 18 12 5 6 2 2 14 19 19 21 8 14 4 0 0 0 0 0 0 0 0 0 0 0 0 0 0 0 0 0
0 0 0 0 0 0 0 0 0 0 0 0 0 1 0 0 1 4 17 25 22 14 8 16 23 33 37 10 9 0 0 0 0 0 0 0 0 0 0 0 0 0 0 0
0 0 0 0 0 0 0 0 0 0 0 0 0 0 0 0 0 0 0 0 0 0 0 18 38 34 29 39 40 4 0 0 0 0 0 0 0 0 0 0 0 0 0 0
0 0 0 0 0 0 0 0 0 0 0 0 0 0 0 0 0 0 0 0 0 0 0 0 0 0 11 28 46 34 27 5 0 0 0 0 0 0 0 0 0 0 0 0
0 0 0 0 0 0 0 0 0 0 0 0 0 0 0 0 0 0 0 0 0 0 0 0 0 0 0 0 0 0 0 0 0 0 0 6 13 3 0 0 0 0 0 0
0 0 0 0 0 0 0 0 0 0 0 0 0 0 0 0 0 0 0 0 0 0 0 0 0 0 0 0 0 0 0 0 0 0 0 1 4 0 1 0 0 0 0 0
0 0 0 0 0 0 0 0 0 0 0 0 0 0 0 0 0 0 0 0 0 0 0 0 0 0 0 0 0 0 0 0 0 0 0 0 0 0 0 0 0 0 0 0
0 0 0 0 0 0 0 0 0 0 0 0 0 0 0 0 0 0 0 0 0 0 0 0 0 0 0 0 0 0 0 0 0 0 0 0 0 0 0 0 0 0 0 0
150 37 2 0 0 0 0 0 0 0 0 0 0 0 0 0 0 0 0 0 0 0 0 0 0 0 0 0 0 0 0 0 0 0 0 0 0 0 0 0 0 0 0 0

GFSNGP_con_mlcape_117.txt.gz
CAPE
0 0 0 0 38 34 8 4 0 8 214 165 98 17 25 46 67 131 123 61 47 16 70 146 176 233 337 400 346 331 333 336 287 306 391 291 285 295 231 162 82 0 95 238
0 0 0 121 115 69 164 308 260 285 172 18 188 166 29 21 0 0 0 54 64 75 86 130 183 208 266 283 295 316 350 369 310 334 454 401 347 298 339 227 131 159 183 159
0 0 5 0 48 130 161 195 149 105 84 65 111 13 2 2 0 0 0 32 50 29 43 31 36 7 32 110 136 190 204 190 189 255 211 195 208 249 212 152 63 53 23 0
0 6 2 0 33 202 156 132 98 37 108 88 27 0 2 1 0 0 0 0 0 0 20 33 10 1 0 0 5 66 104 51 137 143 151 155 142 194 156 102 80 49 1 0
0 3 10 18 0 0 16 113 213 107 62 90 18 25 0 1 3 0 0 0 2 2 3 3 9 30 21 12 0 0 4 36 70 76 119 116 97 84 61 123 97 39 0 0
0 4 13 34 0 0 8 119 175 42 28 157 114 0 1 0 0 0 2 0 0 1 2 0 4 11 90 61 110 84 47 41 102 94 72 60 21 16 19 28 29 5 0 0
0 3 8 66 6 1 17 10 166 97 2 0 0 12 0 1 0 0 0 0 2 2 1 2 2 6 54 15 36 2 70 105 85 81 48 40 23 17 2 7 6 0 0 0
0 8 10 23 10 50 2 50 292 165 1 0 0 0 1 1 0 0 0 0 0 1 1 1 1 1 1 1 2 0 27 24 33 74 13 3 7 15 0 0 0 0 0 0
0 0 0 0 0 20 41 299 398 134 2 0 0 1 4 1 0 0 1 0 0 0 0 0 1 1 0 1 1 2 0 0 1 0 0 1 6 6 1 0 0 0 0 0
3 3 16 39 0 203 347 256 144 28 0 0 0 0 0 0 0 0 0 0 0 0 0 0 0 0 0 1 1 0 0 1 1 0 2 2 0 0 0 0 0 0 0 0
6 28 0 0 26 348 218 49 33 0 0 0 0 0 0 0 0 0 0 0 0 0 0 0 0 0 0 0 0 0 0 0 0 0 0 0 0 0 0 0 0 0 0 0
48 68 16 10 253 191 10 0 0 0 0 0 0 0 0 0 0 0 0 0 0 0 0 0 0 0 0 0 0 0 0 0 0 0 0 0 0 0 0 0 0 0 0 0
188 38 36 149 373 225 2 0 0 0 0 0 0 0 0 0 0 0 0 0 0 0 0 0 0 0 0 0 0 0 0 0 0 0 0 0 0 0 0 0 0 0 0 0
93 60 173 327 378 281 18 0 0 0 0 0 0 0 0 0 0 0 0 0 0 0 0 0 0 0 0 0 0 0 0 0 0 0 0 0 0 0 0 0 0 0 0 0
69 45 179 331 443 265 61 0 0 0 0 0 0 0 0 0 0 0 0 0 0 0 0 0 0 0 0 0 0 0 0 0 0 0 0 0 0 0 0 0 0 0 0 0
134 86 73 220 156 246 73 0 0 0 0 0 0 0 0 0 0 0 0 0 0 0 0 0 0 0 0 0 0 0 0 0 0 0 0 0 0 0 0 0 0 0 0 0
198 165 39 221 264 228 86 12 0 0 0 0 0 0 0 0 0 0 0 0 0 0 0 0 0 0 0 0 0 0 0 0 0 0 0 0 0 0 0 0 0 0 0 0
83 25 0 65 212 184 152 112 49 16 1 0 0 0 0 0 0 0 0 0 0 0 0 0 0 0 0 0 0 0 0 0 0 0 0 0 0 0 0 0 0 0 0 0
0 0 0 0 6 5 14 19 21 8 8 0 0 4 8 4 1 6 9 6 3 6 23 9 9 18 11 7 0 0 0 0 0 0 0 0 0 0 0 0 0 0 0 0
0 0 0 0 0 0 0 0 0 0 0 0 11 12 5 0 0 3 5 15 25 31 23 27 28 18 23 27 30 0 0 0 0 0 0 0 0 0 0 0 0 0 0 0
0 0 0 0 0 0 0 0 0 0 0 0 0 0 0 0 0 0 0 0 0 0 0 3 6 7 18 28 31 24 6 0 0 0 0 0 0 0 0 0 0 0 0 0
0 0 0 0 0 0 0 0 0 0 0 0 0 0 0 0 0 0 0 0 0 0 0 0 0 0 2 23 21 27 16 3 2 1 0 0 0 0 1 0 0 0 0 0
0 0 0 0 0 0 0 0 0 0 0 0 0 0 0 0 0 0 0 0 0 0 0 0 0 0 0 0 0 0 0 0 0 0 0 0 0 0 1 0 0 0 0 0
0 0 0 0 0 0 0 0 0 0 0 0 0 0 0 0 0 0 0 0 0 0 0 0 0 0 0 0 0 0 0 0 0 0 0 1 1 0 1 0 0 0 0 0
0 0 0 0 0 0 0 0 0 0 0 0 0 0 0 0 0 0 0 0 0 0 0 0 0 0 0 0 0 0 0 0 0 0 0 0 0 0 1 0 0 0 0 0
0 0 0 0 0 0 0 0 0 0 0 0 0 0 0 0 0 0 0 0 0 0 0 0 0 0 0 0 0 0 0 0 0 0 0 0 0 0 0 0 0 0 0 0
0 0 0 0 0 0 0 0 0 0 0 0 0 0 0 0 0 0 0 0 0 0 0 0 0 0 0 0 0 0 0 0 0 0 0 0 0 0 0 0 0 0 0 0

GFSNGP_con_mlcape_120.txt.gz
CAPE
3 0 0 0 175 150 46 19 0 2 18 139 79 81 93 43 55 110 63 38 22 34 62 94 134 113 157 193 249 232 191 173 150 163 157 175 215 179 189 123 109 0 0 0
0 0 50 150 175 136 269 288 198 177 129 73 92 29 16 23 3 43 99 77 99 40 86 125 173 182 239 306 301 314 233 221 225 184 202 213 255 271 214 236 168 114 122 86
0 0 8 0 1 4 109 138 136 48 159 179 50 7 0 0 2 1 2 13 68 85 46 109 79 142 148 132 178 193 232 220 271 215 230 172 177 273 257 289 247 101 18 21
0 0 0 0 31 227 187 189 66 130 100 102 50 2 4 1 3 1 1 0 1 1 1 28 47 53 24 26 58 104 124 130 123 133 193 103 103 119 188 157 113 37 12 13
0 0 0 83 79 105 196 184 221 141 153 57 36 34 14 1 1 2 1 2 0 2 0 1 0 11 35 24 15 24 49 41 60 20 10 51 93 78 84 117 99 82 1 0
0 0 0 15 34 18 61 26 231 147 138 194 171 25 13 0 0 0 0 2 1 1 2 2 1 9 70 98 82 1 16 0 9 13 56 61 47 47 17 36 25 2 0 0
0 0 0 0 5 28 75 9 156 15 0 0 7 2 0 2 0 0 0 1 1 1 1 1 1 31 97 46 4 15 0 0 44 107 49 26 9 1 0 1 0 0 0 0
0 0 0 3 0 32 14 92 233 98 0 0 0 0 0 0 0 0 0 0 0 0 1 1 1 1 2 4 0 0 0 22 35 40 13 8 0 0 0 0 0 0 0 0
0 0 0 0 0 0 64 355 425 81 0 0 0 0 0 0 0 0 0 0 0 0 0 0 0 0 0 2 1 0 0 0 0 0 0 0 0 0 0 1 0 0 0 0
28 0 21 8 5 91 251 382 160 12 0 0 0 0 0 0 0 0 0 0 0 0 0 0 0 0 1 2 1 1 1 1 2 2 2 3 2 0 1 3 3 1 0 0
32 7 17 17 5 349 222 92 7 0 0 0 0 0 0 0 0 0 0 0 0 0 0 0 0 0 0 0 0 0 1 1 1 1 1 2 2 3 1 1 0 0 0 0
45 3 12 12 40 373 137 3 0 0 0 0 0 0 0 0 0 0 0 0 0 0 0 0 0 0 0 0 0 0 0 0 0 0 0 0 0 0 0 0 0 0 0 0
170 22 15 43 488 274 5 0 0 0 0 0 0 0 0 0 0 0 0 0 0 0 0 0 0 0 0 0 0 0 0 0 0 0 0 0 0 0 0 0 0 0 0 0
56 88 235 501 373 219 0 0 0 0 0 0 0 0 0 0 0 0 0 0 0 0 0 0 0 0 0 0 0 0 0 0 0 0 0 0 0 0 0 0 0 0 0 0
2 27 49 413 546 216 1 0 0 0 0 0 0 0 0 0 0 0 0 0 0 0 0 0 0 0 0 0 0 0 0 0 0 0 0 0 0 0 0 0 0 0 0 0
0 3 232 431 422 207 8 0 0 0 0 0 0 0 0 0 0 0 0 0 0 0 0 0 0 0 0 0 0 0 0 0 0 0 0 0 0 0 0 0 0 0 0 0
56 32 209 381 316 192 72 0 0 0 0 0 0 0 0 0 0 0 0 0 0 0 0 0 0 0 0 0 0 0 0 0 0 0 0 0 0 0 0 0 0 0 0 0
45 36 62 185 183 162 130 3 0 0 0 0 0 0 0 0 0 0 0 0 0 0 0 0 0 0 0 0 0 0 0 0 0 0 0 0 0 0 0 0 0 0 0 0
0 0 0 6 74 119 140 49 6 1 0 0 0 0 0 0 0 0 0 0 0 0 5 0 2 11 10 4 1 0 0 0 0 0 0 0 0 0 0 0 0 0 0 0
0 0 0 0 0 1 35 5 10 6 5 1 0 0 0 0 0 0 0 2 1 0 1 10 10 19 17 1 24 10 0 0 0 0 0 0 0 0 0 0 0 0 0 0
0 0 0 0 0 0 0 0 0 0 0 0 0 0 0 0 0 0 2 0 0 0 0 0 0 0 0 8 23 32 22 9 4 0 0 0 0 0 0 0 0 0 0 0
0 0 0 0 0 0 0 0 0 0 0 0 0 0 0 0 0 0 0 0 0 0 0 0 0 0 0 11 10 10 8 7 5 0 0 0 0 0 0 0 0 0 0 0
0 0 0 0 0 0 0 0 0 0 0 0 0 0 0 0 0 0 0 0 0 0 0 0 0 0 0 0 0 0 0 0 0 0 0 0 0 0 0 0 0 0 0 0
0 0 0 0 0 0 0 0 0 0 0 0 0 0 0 0 0 0 0 0 0 0 0 0 0 0 0 0 0 0 0 0 0 0 0 0 0 0 0 2 0 0 0 0
0 0 0 0 0 0 0 0 0 0 0 0 0 0 0 0 0 0 0 0 0 0 0 0 0 0 0 0 0 0 0 0 0 0 0 0 0 0 0 0 0 0 0 0
0 0 0 0 0 0 0 0 0 0 0 0 0 0 0 0 0 0 0 0 0 0 0 0 0 0 0 0 0 0 0 0 0 0 0 0 0 0 0 0 0 0 0 0
0 0 0 0 0 0 0 0 0 0 0 0 0 0 0 0 0 0 0 0 0 0 0 0 0 0 0 0 0 0 0 0 0 0 0 0 0 0 0 0 0 0 0 0

GFSNGP_con_mlcape_123.txt.gz
CAPE
2 14 5 313 307 358 198 162 0 0 75 368 286 239 157 116 168 147 202 163 152 171 192 176 159 161 185 277 159 156 219 180 148 328 275 265 327 276 276 339 324 306 144 67
0 0 21 212 234 194 308 296 262 269 185 310 227 156 118 16 26 52 30 35 209 203 181 178 228 281 280 169 163 287 182 227 284 355 263 414 425 438 490 461 561 433 291 219
0 0 30 42 136 99 97 280 393 186 379 419 202 88 12 0 1 1 2 24 40 37 119 227 165 81 328 421 349 259 381 367 323 349 298 213 178 315 197 467 470 381 451 432
0 0 0 16 131 291 313 257 258 289 497 288 68 3 2 2 0 0 0 1 1 1 1 6 17 74 147 220 288 259 305 240 194 278 230 217 176 78 107 203 173 330 387 133
0 0 0 2 157 321 246 264 485 359 340 192 63 27 6 3 2 1 0 0 1 2 2 2 0 0 30 127 169 149 133 80 89 74 57 58 40 79 98 159 101 74 67 99
2 10 0 3 75 120 191 93 466 435 273 187 166 184 79 3 1 1 1 1 2 2 3 2 1 1 47 83 126 128 166 42 8 3 26 21 11 40 21 112 99 44 6 4
15 19 24 0 82 113 63 78 596 485 343 336 138 155 0 1 0 0 1 0 1 1 1 2 2 50 73 56 33 28 75 48 13 48 63 57 38 17 24 22 0 0 0 0
7 12 0 116 131 231 165 143 500 352 130 69 2 0 1 0 0 1 0 0 0 0 0 1 2 1 1 0 0 0 6 3 8 31 22 20 5 0 0 0 0 0 0 0
30 63 12 141 160 85 61 267 520 202 12 0 0 0 0 0 0 0 1 0 0 0 0 0 4 4 0 3 2 2 1 0 0 0 1 1 0 0 0 1 0 0 0 0
118 79 9 54 93 139 390 650 454 133 20 0 0 0 2 0 0 0 0 0 0 0 0 0 0 2 4 4 2 2 1 0 1 0 0 1 0 0 1 3 4 4 0 0
208 166 83 193 181 438 589 455 234 126 71 0 0 0 1 0 0 0 0 0 0 0 0 0 0 0 0 0 0 0 2 1 1 1 1 1 1 1 0 1 0 1 2 0
177 271 292 215 258 629 504 220 169 52 0 0 0 0 0 0 0 0 0 0 0 0 0 0 0 0 0 0 0 0 0 0 0 0 0 0 0 0 0 2 0 0 0 0
374 241 262 252 407 734 412 222 74 0 0 0 0 0 0 0 0 0 0 0 0 0 0 0 0 0 0 0 0 0 0 0 0 0 0 0 0 0 0 0 0 0 0 0
138 330 467 610 791 492 155 63 0 0 0 0 0 0 0 0 0 0 0 0 0 0 0 0 0 0 0 0 0 0 0 0 0 0 0 0 0 0 0 0 0 0 0 0
124 280 244 896 865 305 71 0 0 0 0 0 0 0 0 0 0 0 0 0 0 0 0 0 0 0 0 0 0 0 0 0 0 0 0 0 0 0 0 0 0 0 0 0
10 24 141 671 597 135 16 0 0 0 0 0 0 0 0 0 0 0 0 0 0 0 0 0 0 0 0 0 0 0 0 0 0 0 0 0 0 0 0 0 0 0 0 0
0 12 326 812 579 205 0 0 0 0 0 0 0 0 0 0 0 0 0 0 0 0 0 0 0 0 0 0 0 0 0 0 0 0 0 0 0 0 0 0 0 0 0 0
1 97 409 660 605 380 130 3 0 0 0 0 0 0 0 0 0 0 0 0 0 0 0 0 0 0 0 0 0 0 0 0 0 0 0 0 0 0 0 0 0 0 0 0
0 16 340 599 540 343 254 71 5 3 0 0 0 0 0 0 0 0 0 0 0 5 25 14 2 0 18 13 1 0 0 0 0 0 0 0 0 0 0 0 0 0 0 0
0 1 1 128 370 378 326 299 86 65 30 2 2 0 0 0 0 0 0 10 28 45 32 33 24 45 69 66 20 42 25 10 0 0 0 0 0 0 0 0 0 0 0 0
0 0 0 0 0 61 191 261 173 63 43 10 7 5 0 1 7 13 15 30 51 2 0 0 4 20 22 33 33 67 58 40 24 6 1 0 0 0 0 0 0 0 0 0
0 0 0 0 0 0 0 15 45 79 67 15 5 7 0 7 20 17 21 44 0 0 0 0 0 0 7 1 39 54 62 60 55 42 32 34 32 5 2 5 11 10 1 0
0 0 0 0 0 0 0 0 0 0 0 0 0 0 0 0 0 0 0 0 0 0 0 0 0 0 0 0 0 0 0 3 9 28 41 44 40 42 35 10 1 1 0 0
0 0 0 0 0 0 0 0 0 0 0 0 0 0 0 0 0 0 0 0 0 0 0 0 0 0 0 0 0 0 0 0 0 0 0 0 1 0 1 4 0 0 0 0
0 0 0 0 0 0 0 0 0 0 0 0 0 0 0 0 0 0 0 0 0 0 0 0 0 0 0 0 0 0 0 0 0 0 0 0 0 0 0 0 0 0 0 0
0 0 0 0 0 0 0 0 0 0 0 0 0 0 0 0 0 0 0 0 0 0 0 0 0 0 0 0 0 0 0 0 0 0 0 0 0 0 0 0 0 0 0 0
0 0 0 0 0 0 0 0 0 0 0 0 0 0 0 0 0 0 0 0 0 0 0 0 0 0 0 0 0 0 0 0 0 0 0 0 0 0 0 0 0 0 0 0

GFSNGP_con_mlcape_126.txt.gz
CAPE
12 19 56 114 226 381 144 191 112 80 120 702 666 441 233 162 208 349 364 388 287 112 153 70 154 315 410 228 583 522 624 688 697 798 798 709 621 677 880 809 696 877 1050 889
13 8 71 226 328 280 363 350 281 292 265 724 614 289 140 105 118 85 30 44 67 255 226 292 381 420 492 280 212 511 208 300 613 701 655 538 568 778 861 960 843 890 908 941
20 29 0 26 214 214 247 351 349 251 601 844 628 271 77 84 38 21 7 12 1 0 18 93 272 378 385 642 849 290 687 404 260 369 717 588 700 603 402 547 674 588 786 777
0 22 17 154 310 324 374 383 450 326 657 841 515 127 65 15 6 10 4 4 5 3 5 21 114 228 218 354 658 977 793 461 899 1025 662 438 600 622 631 182 84 202 374 426
0 0 0 7 30 251 208 172 360 490 889 594 300 249 93 4 4 4 4 4 4 4 3 3 18 63 178 200 244 410 454 586 416 529 518 621 176 254 320 227 102 85 76 102
2 3 0 137 298 438 630 72 701 907 853 682 509 329 222 3 0 1 2 5 5 5 6 2 3 42 149 186 179 289 385 242 191 110 51 39 52 30 46 107 91 62 38 42
9 25 44 212 353 499 147 299 922 903 810 678 565 397 25 1 0 0 0 0 1 3 4 5 4 81 101 102 82 51 199 254 211 253 279 265 182 38 43 52 64 1 0 2
10 13 10 280 392 327 570 777 657 1082 838 829 258 4 2 1 1 0 1 1 1 1 3 4 3 1 1 0 3 14 57 9 5 7 0 17 19 2 0 0 0 1 0 0
52 130 449 454 359 584 541 545 1022 843 494 293 102 1 2 2 2 0 1 1 0 1 2 4 4 5 0 2 3 3 0 0 1 0 1 1 1 3 4 4 2 2 5 4
249 99 230 410 523 493 584 742 1076 724 433 227 136 27 1 2 1 1 0 0 0 0 1 2 3 2 5 5 3 1 1 6 5 1 3 3 2 4 3 4 3 2 5 3
224 310 606 589 588 657 908 1301 1084 700 441 224 52 15 0 2 0 0 0 0 0 0 0 0 0 0 0 0 1 5 5 4 3 2 2 2 3 3 1 1 0 2 3 2
40 347 347 584 781 941 1311 1227 891 595 240 70 74 25 5 7 1 1 0 0 0 0 0 0 0 0 0 0 0 0 0 0 1 1 1 0 0 1 0 0 0 0 0 0
360 744 723 916 952 1382 1240 939 736 396 165 144 124 77 40 7 5 0 0 0 0 0 0 0 0 0 0 0 0 0 0 0 0 0 0 0 0 0 0 0 0 0 0 0
642 775 914 905 1101 1249 1097 767 273 181 170 166 90 22 0 0 0 0 0 0 0 0 0 0 0 0 0 0 0 0 0 0 0 0 0 0 0 0 0 0 0 0 0 0
527 628 634 1028 1388 1057 721 350 212 127 152 33 0 0 0 0 0 0 0 0 0 0 0 0 0 0 0 0 0 0 0 0 0 0 0 0 0 0 0 0 0 0 0 0
463 536 660 1086 1145 775 475 278 78 20 46 0 0 0 0 0 0 0 0 0 0 0 0 0 0 0 0 0 0 0 0 0 0 0 0 0 0 0 0 0 0 0 0 0
243 476 489 825 986 604 327 94 0 3 3 0 0 0 0 0 0 0 0 0 0 0 0 0 0 0 0 0 0 0 0 0 0 0 0 0 0 0 0 0 0 0 0 0
107 152 506 772 937 606 219 24 0 0 2 0 0 0 0 0 0 0 0 0 0 0 0 0 0 0 0 0 0 0 0 0 0 0 0 0 0 0 0 0 0 0 0 0
18 185 312 670 906 573 139 45 13 49 45 7 0 0 0 0 0 0 0 0 0 0 0 0 0 0 22 25 9 11 9 7 4 0 0 0 0 0 0 0 0 0 0 0
66 436 603 824 806 383 135 60 7 39 126 49 24 5 6 0 0 3 6 7 8 27 64 39 26 12 21 35 0 5 15 11 8 9 11 0 0 0 0 0 0 0 0 0
15 267 437 665 625 429 363 284 131 207 276 242 170 105 63 39 13 14 22 18 26 47 13 1 10 6 47 53 53 45 32 23 31 20 22 10 1 0 0 0 5 14 17 17
0 114 186 118 214 421 571 610 613 434 557 514 399 361 314 254 113 54 36 67 63 0 0 0 3 2 10 0 13 24 28 34 39 38 50 45 42 47 48 30 22 38 22 9
0 0 81 114 146 0 112 297 521 658 723 756 688 558 385 57 61 87 164 193 96 0 0 0 0 0 0 0 0 0 3 8 17 28 39 41 35 30 25 38 24 9 2 6
0 0 5 28 0 0 55 150 134 380 509 382 184 155 4 0 7 0 2 0 4 0 0 0 0 0 0 0 0 0 0 0 0 0 0 0 3 7 11 8 4 0 0 0
0 26 79 35 36 0 3 83 51 26 66 22 0 0 0 0 0 0 0 0 0 0 0 0 0 0 0 0 0 0 0 0 0 1 1 1 2 10 14 5 0 0 0 0
14 6 4 17 0 0 0 0 0 0 0 0 0 0 0 0 0 0 3 0 0 0 0 0 0 0 0 0 0 0 0 0 0 3 12 16 3 0 0 0 0 0 0 0
15 0 0 0 0 0 0 0 0 0 0 0 0 0 0 0 0 1 2 0 0 0 0 0 0 0 0 0 0 0 0 0 0 0 0 0 0 0 5 2 4 0 0 0